Time,TemperatureF,DewpointF,PressureIn,WindDirection,WindDirectionDegrees,WindSpeedMPH,WindSpeedGustMPH,Humidity,HourlyPrecipIn,Conditions,Clouds,dailyrainin,SoftwareType,DateUTC
2013-02-24 00:00:00,43.9,21.2,29.78,SSW,203,4.7,5.4,40,0.00,,,0.00,WUHU216HW,2013-02-24 07:00:00,
2013-02-24 00:01:00,43.9,21.2,29.78,South,180,3.8,5.4,40,0.00,,,0.00,WUHU216HW,2013-02-24 07:01:00,
2013-02-24 00:02:00,43.9,21.2,29.78,South,180,2.7,5.4,40,0.00,,,0.00,WUHU216HW,2013-02-24 07:02:00,
2013-02-24 00:03:00,43.9,21.2,29.78,South,180,4.3,5.4,40,0.00,,,0.00,WUHU216HW,2013-02-24 07:03:00,
2013-02-24 00:04:00,43.9,21.2,29.78,South,180,3.6,5.4,40,0.00,,,0.00,WUHU216HW,2013-02-24 07:04:00,
2013-02-24 00:05:00,43.9,21.2,29.78,South,180,3.4,5.6,40,0.00,,,0.00,WUHU216HW,2013-02-24 07:05:00,
2013-02-24 00:06:00,43.7,21.0,29.78,SE,135,6.5,6.5,40,0.00,,,0.00,WUHU216HW,2013-02-24 07:06:00,
2013-02-24 00:07:00,43.7,21.0,29.78,SSE,158,4.5,6.5,40,0.00,,,0.00,WUHU216HW,2013-02-24 07:07:00,
2013-02-24 00:08:00,43.7,21.0,29.78,SSW,203,4.3,6.5,40,0.00,,,0.00,WUHU216HW,2013-02-24 07:08:00,
2013-02-24 00:09:00,43.7,21.0,29.78,South,180,4.3,6.5,40,0.00,,,0.00,WUHU216HW,2013-02-24 07:09:00,
2013-02-24 00:10:00,43.6,20.8,29.78,South,180,5.8,6.5,40,0.00,,,0.00,WUHU216HW,2013-02-24 07:10:00,
2013-02-24 00:11:00,43.6,21.3,29.78,SE,135,5.1,6.5,41,0.00,,,0.00,WUHU216HW,2013-02-24 07:11:00,
2013-02-24 00:12:00,43.6,20.8,29.78,SE,135,4.0,6.5,40,0.00,,,0.00,WUHU216HW,2013-02-24 07:12:00,
2013-02-24 00:13:00,43.6,21.3,29.78,South,180,6.3,6.5,41,0.00,,,0.00,WUHU216HW,2013-02-24 07:13:00,
2013-02-24 00:14:00,43.6,20.8,29.78,SSE,158,4.0,6.5,40,0.00,,,0.00,WUHU216HW,2013-02-24 07:14:00,
2013-02-24 00:15:00,43.6,21.3,29.78,SSW,203,4.3,6.5,41,0.00,,,0.00,WUHU216HW,2013-02-24 07:15:00,
2013-02-24 00:16:00,43.6,21.3,29.78,SSE,158,4.5,6.5,41,0.00,,,0.00,WUHU216HW,2013-02-24 07:16:00,
2013-02-24 00:17:00,43.6,21.3,29.78,SSE,158,6.0,6.3,41,0.00,,,0.00,WUHU216HW,2013-02-24 07:17:00,
2013-02-24 00:18:00,43.6,21.3,29.78,SSE,158,5.1,6.3,41,0.00,,,0.00,WUHU216HW,2013-02-24 07:18:00,
2013-02-24 00:19:00,43.4,21.2,29.78,South,180,3.1,6.3,41,0.00,,,0.00,WUHU216HW,2013-02-24 07:19:00,
2013-02-24 00:20:00,43.4,21.2,29.78,South,180,4.5,6.3,41,0.00,,,0.00,WUHU216HW,2013-02-24 07:20:00,
2013-02-24 00:21:00,43.4,21.2,29.78,SE,135,6.3,6.3,41,0.00,,,0.00,WUHU216HW,2013-02-24 07:21:00,
2013-02-24 00:22:00,43.4,21.2,29.78,SSW,203,4.9,7.8,41,0.00,,,0.00,WUHU216HW,2013-02-24 07:22:00,
2013-02-24 00:23:00,43.4,21.2,29.78,SSE,158,6.3,7.8,41,0.00,,,0.00,WUHU216HW,2013-02-24 07:23:00,
2013-02-24 00:24:00,43.2,21.1,29.78,South,180,7.4,7.8,41,0.00,,,0.00,WUHU216HW,2013-02-24 07:24:00,
2013-02-24 00:25:00,43.2,21.1,29.78,SSE,158,7.2,7.8,41,0.00,,,0.00,WUHU216HW,2013-02-24 07:25:00,
2013-02-24 00:26:00,43.4,21.2,29.78,SSE,158,5.4,7.8,41,0.00,,,0.00,WUHU216HW,2013-02-24 07:26:00,
2013-02-24 00:27:00,43.2,21.1,29.78,South,180,3.4,7.8,41,0.00,,,0.00,WUHU216HW,2013-02-24 07:27:00,
2013-02-24 00:28:00,43.2,21.1,29.78,SSE,158,4.5,7.8,41,0.00,,,0.00,WUHU216HW,2013-02-24 07:28:00,
2013-02-24 00:29:00,43.2,21.1,29.78,South,180,4.9,7.8,41,0.00,,,0.00,WUHU216HW,2013-02-24 07:29:00,
2013-02-24 00:30:00,43.2,21.1,29.78,SSW,203,5.4,7.8,41,0.00,,,0.00,WUHU216HW,2013-02-24 07:30:00,
2013-02-24 00:31:00,43.2,21.1,29.77,South,180,4.3,7.8,41,0.00,,,0.00,WUHU216HW,2013-02-24 07:31:00,
2013-02-24 00:32:00,43.4,21.2,29.78,SSW,203,4.0,7.4,41,0.00,,,0.00,WUHU216HW,2013-02-24 07:32:00,
2013-02-24 00:33:00,43.4,21.7,29.77,SE,135,2.9,7.4,42,0.00,,,0.00,WUHU216HW,2013-02-24 07:33:00,
2013-02-24 00:34:00,43.4,21.7,29.78,SSE,158,2.9,7.4,42,0.00,,,0.00,WUHU216HW,2013-02-24 07:34:00,
2013-02-24 00:35:00,43.4,21.7,29.78,SSW,203,3.4,7.2,42,0.00,,,0.00,WUHU216HW,2013-02-24 07:35:00,
2013-02-24 00:36:00,43.4,21.7,29.78,South,180,5.1,6.9,42,0.00,,,0.00,WUHU216HW,2013-02-24 07:36:00,
2013-02-24 00:37:00,43.4,21.7,29.78,South,180,2.0,6.9,42,0.00,,,0.00,WUHU216HW,2013-02-24 07:37:00,
2013-02-24 00:38:00,43.4,21.7,29.78,SE,135,2.5,6.0,42,0.00,,,0.00,WUHU216HW,2013-02-24 07:38:00,
2013-02-24 00:39:00,43.4,21.2,29.77,SSE,158,2.9,6.0,41,0.00,,,0.00,WUHU216HW,2013-02-24 07:39:00,
2013-02-24 00:40:00,43.6,21.3,29.78,South,180,2.5,6.0,41,0.00,,,0.00,WUHU216HW,2013-02-24 07:40:00,
2013-02-24 00:41:00,43.6,21.3,29.78,South,180,1.6,6.0,41,0.00,,,0.00,WUHU216HW,2013-02-24 07:41:00,
2013-02-24 00:42:00,43.6,21.3,29.77,SE,135,2.0,6.0,41,0.00,,,0.00,WUHU216HW,2013-02-24 07:42:00,
2013-02-24 00:43:00,43.6,21.3,29.78,SE,135,1.6,6.0,41,0.00,,,0.00,WUHU216HW,2013-02-24 07:43:00,
2013-02-24 00:44:00,43.6,21.3,29.77,SE,135,0.4,6.0,41,0.00,,,0.00,WUHU216HW,2013-02-24 07:44:00,
2013-02-24 00:45:00,43.6,21.3,29.78,NE,45,0.0,6.0,41,0.00,,,0.00,WUHU216HW,2013-02-24 07:45:00,
2013-02-24 00:46:00,43.6,21.3,29.78,SSE,158,1.1,6.0,41,0.00,,,0.00,WUHU216HW,2013-02-24 07:46:00,
2013-02-24 00:47:00,43.6,21.3,29.77,NNE,23,1.3,6.0,41,0.00,,,0.00,WUHU216HW,2013-02-24 07:47:00,
2013-02-24 00:48:00,43.6,21.3,29.77,North,0,2.0,6.0,41,0.00,,,0.00,WUHU216HW,2013-02-24 07:48:00,
2013-02-24 00:49:00,43.6,21.3,29.78,North,0,1.8,4.7,41,0.00,,,0.00,WUHU216HW,2013-02-24 07:49:00,
2013-02-24 00:50:00,43.6,21.3,29.78,North,0,2.2,2.5,41,0.00,,,0.00,WUHU216HW,2013-02-24 07:50:00,
2013-02-24 00:51:00,43.6,21.3,29.78,NNW,338,1.3,2.5,41,0.00,,,0.00,WUHU216HW,2013-02-24 07:51:00,
2013-02-24 00:52:00,43.4,21.2,29.78,NNW,338,1.6,2.5,41,0.00,,,0.00,WUHU216HW,2013-02-24 07:52:00,
2013-02-24 00:53:00,43.2,21.1,29.78,WNW,293,1.8,2.5,41,0.00,,,0.00,WUHU216HW,2013-02-24 07:53:00,
2013-02-24 00:54:00,43.2,21.1,29.78,WNW,293,1.8,2.5,41,0.00,,,0.00,WUHU216HW,2013-02-24 07:54:00,
2013-02-24 00:55:00,43.0,20.9,29.78,SW,225,0.9,2.5,41,0.00,,,0.00,WUHU216HW,2013-02-24 07:55:00,
2013-02-24 00:56:00,42.8,20.7,29.78,SW,225,0.4,2.5,41,0.00,,,0.00,WUHU216HW,2013-02-24 07:56:00,
2013-02-24 00:57:00,42.8,20.7,29.78,West,270,1.8,2.5,41,0.00,,,0.00,WUHU216HW,2013-02-24 07:57:00,
2013-02-24 00:58:00,42.8,20.7,29.77,WSW,248,0.9,2.5,41,0.00,,,0.00,WUHU216HW,2013-02-24 07:58:00,
2013-02-24 00:59:00,42.7,20.5,29.78,WNW,293,0.2,2.5,41,0.00,,,0.00,WUHU216HW,2013-02-24 07:59:00,
2013-02-24 01:00:00,42.5,20.3,29.78,WSW,248,0.9,2.2,41,0.00,,,0.00,WUHU216HW,2013-02-24 08:00:00,
2013-02-24 01:01:00,42.5,20.9,29.78,NNW,338,0.9,2.0,42,0.00,,,0.00,WUHU216HW,2013-02-24 08:01:00,
2013-02-24 01:02:00,42.5,20.9,29.78,West,270,1.6,1.8,42,0.00,,,0.00,WUHU216HW,2013-02-24 08:02:00,
2013-02-24 01:03:00,42.3,20.7,29.78,WNW,293,1.1,1.8,42,0.00,,,0.00,WUHU216HW,2013-02-24 08:03:00,
2013-02-24 01:04:00,42.1,20.6,29.78,SW,225,2.5,3.4,42,0.00,,,0.00,WUHU216HW,2013-02-24 08:04:00,
2013-02-24 01:05:00,42.1,20.6,29.78,WSW,248,2.2,3.4,42,0.00,,,0.00,WUHU216HW,2013-02-24 08:05:00,
2013-02-24 01:06:00,41.9,20.4,29.78,NW,315,0.7,3.4,42,0.00,,,0.00,WUHU216HW,2013-02-24 08:06:00,
2013-02-24 01:07:00,41.8,20.3,29.78,SW,225,1.8,3.4,42,0.00,,,0.00,WUHU216HW,2013-02-24 08:07:00,
2013-02-24 01:08:00,41.8,20.3,29.78,WNW,293,0.4,3.4,42,0.00,,,0.00,WUHU216HW,2013-02-24 08:08:00,
2013-02-24 01:09:00,41.6,20.6,29.78,West,270,2.5,3.4,43,0.00,,,0.00,WUHU216HW,2013-02-24 08:09:00,
2013-02-24 01:10:00,41.4,20.4,29.78,WNW,293,2.5,3.4,43,0.00,,,0.00,WUHU216HW,2013-02-24 08:10:00,
2013-02-24 01:11:00,41.4,20.4,29.78,WSW,248,1.3,3.4,43,0.00,,,0.00,WUHU216HW,2013-02-24 08:11:00,
2013-02-24 01:12:00,41.2,20.3,29.78,WNW,293,1.6,3.4,43,0.00,,,0.00,WUHU216HW,2013-02-24 08:12:00,
2013-02-24 01:13:00,41.2,20.3,29.78,West,270,1.6,3.4,43,0.00,,,0.00,WUHU216HW,2013-02-24 08:13:00,
2013-02-24 01:14:00,41.0,20.1,29.78,West,270,1.8,2.7,43,0.00,,,0.00,WUHU216HW,2013-02-24 08:14:00,
2013-02-24 01:15:00,41.0,20.1,29.78,West,270,1.8,2.7,43,0.00,,,0.00,WUHU216HW,2013-02-24 08:15:00,
2013-02-24 01:16:00,40.9,20.4,29.78,West,270,2.0,3.1,44,0.00,,,0.00,WUHU216HW,2013-02-24 08:16:00,
2013-02-24 01:17:00,40.7,20.4,29.78,WSW,248,1.3,3.1,44,0.00,,,0.00,WUHU216HW,2013-02-24 08:17:00,
2013-02-24 01:18:00,40.7,20.4,29.78,WNW,293,1.8,3.1,44,0.00,,,0.00,WUHU216HW,2013-02-24 08:18:00,
2013-02-24 01:19:00,40.5,20.7,29.78,WSW,248,2.0,3.1,45,0.00,,,0.00,WUHU216HW,2013-02-24 08:19:00,
2013-02-24 01:20:00,40.3,20.5,29.78,West,270,2.0,3.1,45,0.00,,,0.00,WUHU216HW,2013-02-24 08:20:00,
2013-02-24 01:21:00,40.3,21.1,29.78,WSW,248,1.1,3.1,46,0.00,,,0.00,WUHU216HW,2013-02-24 08:21:00,
2013-02-24 01:22:00,40.1,20.9,29.78,West,270,2.0,3.1,46,0.00,,,0.00,WUHU216HW,2013-02-24 08:22:00,
2013-02-24 01:23:00,40.1,20.9,29.78,WSW,248,1.6,3.1,46,0.00,,,0.00,WUHU216HW,2013-02-24 08:23:00,
2013-02-24 01:24:00,40.0,20.7,29.78,West,270,1.1,3.1,46,0.00,,,0.00,WUHU216HW,2013-02-24 08:24:00,
2013-02-24 01:25:00,40.0,20.7,29.79,West,270,2.2,3.1,46,0.00,,,0.00,WUHU216HW,2013-02-24 08:25:00,
2013-02-24 01:26:00,39.8,20.5,29.78,West,270,1.1,2.7,46,0.00,,,0.00,WUHU216HW,2013-02-24 08:26:00,
2013-02-24 01:27:00,39.8,20.5,29.78,WSW,248,1.8,2.5,46,0.00,,,0.00,WUHU216HW,2013-02-24 08:27:00,
2013-02-24 01:28:00,39.6,20.3,29.78,West,270,1.1,2.5,46,0.00,,,0.00,WUHU216HW,2013-02-24 08:28:00,
2013-02-24 01:29:00,39.6,20.9,29.78,WNW,293,1.6,2.5,47,0.00,,,0.00,WUHU216HW,2013-02-24 08:29:00,
2013-02-24 01:30:00,39.6,20.3,29.78,West,270,0.7,2.5,46,0.00,,,0.00,WUHU216HW,2013-02-24 08:30:00,
2013-02-24 01:31:00,39.4,20.3,29.78,WSW,248,1.1,2.2,46,0.00,,,0.00,WUHU216HW,2013-02-24 08:31:00,
2013-02-24 01:32:00,39.4,20.3,29.79,WSW,248,1.6,2.2,46,0.00,,,0.00,WUHU216HW,2013-02-24 08:32:00,
2013-02-24 01:33:00,39.2,20.1,29.79,WSW,248,1.8,2.2,46,0.00,,,0.00,WUHU216HW,2013-02-24 08:33:00,
2013-02-24 01:34:00,39.2,20.1,29.79,WSW,248,1.8,2.2,46,0.00,,,0.00,WUHU216HW,2013-02-24 08:34:00,
2013-02-24 01:35:00,39.2,20.1,29.79,WSW,248,1.1,2.2,46,0.00,,,0.00,WUHU216HW,2013-02-24 08:35:00,
2013-02-24 01:36:00,39.2,20.1,29.78,West,270,1.1,2.0,46,0.00,,,0.00,WUHU216HW,2013-02-24 08:36:00,
2013-02-24 01:37:00,39.1,19.9,29.78,West,270,0.7,2.0,46,0.00,,,0.00,WUHU216HW,2013-02-24 08:37:00,
2013-02-24 01:38:00,39.1,19.9,29.78,West,270,0.0,2.0,46,0.00,,,0.00,WUHU216HW,2013-02-24 08:38:00,
2013-02-24 01:39:00,39.1,19.9,29.78,WSW,248,0.4,2.0,46,0.00,,,0.00,WUHU216HW,2013-02-24 08:39:00,
2013-02-24 01:40:00,38.9,19.7,29.78,WSW,248,0.7,2.0,46,0.00,,,0.00,WUHU216HW,2013-02-24 08:40:00,
2013-02-24 01:41:00,38.9,19.7,29.78,SW,225,0.9,2.0,46,0.00,,,0.00,WUHU216HW,2013-02-24 08:41:00,
2013-02-24 01:42:00,38.9,19.7,29.78,SW,225,1.1,2.0,46,0.00,,,0.00,WUHU216HW,2013-02-24 08:42:00,
2013-02-24 01:43:00,38.9,19.7,29.78,SW,225,0.7,1.8,46,0.00,,,0.00,WUHU216HW,2013-02-24 08:43:00,
2013-02-24 01:44:00,38.7,19.5,29.78,WSW,248,0.7,1.8,46,0.00,,,0.00,WUHU216HW,2013-02-24 08:44:00,
2013-02-24 01:45:00,38.7,19.5,29.78,WSW,248,0.0,1.1,46,0.00,,,0.00,WUHU216HW,2013-02-24 08:45:00,
2013-02-24 01:46:00,38.7,19.5,29.78,SSW,203,0.4,1.1,46,0.00,,,0.00,WUHU216HW,2013-02-24 08:46:00,
2013-02-24 01:47:00,38.5,19.5,29.78,SSW,203,0.4,1.1,46,0.00,,,0.00,WUHU216HW,2013-02-24 08:47:00,
2013-02-24 01:48:00,38.5,19.5,29.78,SSW,203,0.9,1.1,46,0.00,,,0.00,WUHU216HW,2013-02-24 08:48:00,
2013-02-24 01:49:00,38.5,19.5,29.78,SSW,203,1.3,1.8,46,0.00,,,0.00,WUHU216HW,2013-02-24 08:49:00,
2013-02-24 01:50:00,38.5,19.5,29.78,SSW,203,0.4,1.8,46,0.00,,,0.00,WUHU216HW,2013-02-24 08:50:00,
2013-02-24 01:51:00,38.5,19.5,29.78,SSW,203,1.8,1.8,46,0.00,,,0.00,WUHU216HW,2013-02-24 08:51:00,
2013-02-24 01:52:00,38.5,19.5,29.78,South,180,1.8,2.5,46,0.00,,,0.00,WUHU216HW,2013-02-24 08:52:00,
2013-02-24 01:53:00,38.5,19.5,29.78,SE,135,1.1,2.5,46,0.00,,,0.00,WUHU216HW,2013-02-24 08:53:00,
2013-02-24 01:54:00,38.3,19.3,29.78,SE,135,1.1,2.5,46,0.00,,,0.00,WUHU216HW,2013-02-24 08:54:00,
2013-02-24 01:55:00,38.3,19.3,29.78,SE,135,1.1,2.5,46,0.00,,,0.00,WUHU216HW,2013-02-24 08:55:00,
2013-02-24 01:56:00,38.3,19.3,29.77,SE,135,0.7,2.5,46,0.00,,,0.00,WUHU216HW,2013-02-24 08:56:00,
2013-02-24 01:57:00,38.3,19.8,29.77,SE,135,1.8,2.5,47,0.00,,,0.00,WUHU216HW,2013-02-24 08:57:00,
2013-02-24 01:58:00,38.3,19.8,29.77,SE,135,2.7,2.7,47,0.00,,,0.00,WUHU216HW,2013-02-24 08:58:00,
2013-02-24 01:59:00,38.2,19.6,29.77,SE,135,2.5,2.7,47,0.00,,,0.00,WUHU216HW,2013-02-24 08:59:00,
2013-02-24 02:00:00,38.2,19.6,29.77,SE,135,2.0,2.7,47,0.00,,,0.00,WUHU216HW,2013-02-24 09:00:00,
2013-02-24 02:01:00,38.2,19.6,29.77,SSE,158,1.3,2.7,47,0.00,,,0.00,WUHU216HW,2013-02-24 09:01:00,
2013-02-24 02:02:00,38.2,19.6,29.77,SSE,158,1.3,2.7,47,0.00,,,0.00,WUHU216HW,2013-02-24 09:02:00,
2013-02-24 02:03:00,38.2,19.6,29.77,SSE,158,1.1,2.7,47,0.00,,,0.00,WUHU216HW,2013-02-24 09:03:00,
2013-02-24 02:04:00,38.2,19.6,29.77,SSE,158,1.1,2.7,47,0.00,,,0.00,WUHU216HW,2013-02-24 09:04:00,
2013-02-24 02:05:00,38.2,19.6,29.77,SSE,158,1.3,2.7,47,0.00,,,0.00,WUHU216HW,2013-02-24 09:05:00,
2013-02-24 02:06:00,38.0,19.4,29.77,SE,135,1.6,2.7,47,0.00,,,0.00,WUHU216HW,2013-02-24 09:06:00,
2013-02-24 02:07:00,38.0,19.4,29.77,SSE,158,1.1,2.7,47,0.00,,,0.00,WUHU216HW,2013-02-24 09:07:00,
2013-02-24 02:08:00,38.0,19.4,29.77,SE,135,1.8,2.7,47,0.00,,,0.00,WUHU216HW,2013-02-24 09:08:00,
2013-02-24 02:09:00,38.0,19.4,29.77,SSE,158,1.6,2.5,47,0.00,,,0.00,WUHU216HW,2013-02-24 09:09:00,
2013-02-24 02:10:00,38.0,19.4,29.77,SE,135,1.8,2.2,47,0.00,,,0.00,WUHU216HW,2013-02-24 09:10:00,
2013-02-24 02:11:00,38.0,19.4,29.77,SE,135,2.5,2.5,47,0.00,,,0.00,WUHU216HW,2013-02-24 09:11:00,
2013-02-24 02:12:00,38.0,19.4,29.77,SE,135,2.2,2.5,47,0.00,,,0.00,WUHU216HW,2013-02-24 09:12:00,
2013-02-24 02:13:00,37.8,19.3,29.77,SE,135,2.7,2.7,47,0.00,,,0.00,WUHU216HW,2013-02-24 09:13:00,
2013-02-24 02:14:00,37.8,19.3,29.77,SSE,158,2.2,2.7,47,0.00,,,0.00,WUHU216HW,2013-02-24 09:14:00,
2013-02-24 02:15:00,37.8,19.3,29.77,South,180,3.4,3.4,47,0.00,,,0.00,WUHU216HW,2013-02-24 09:15:00,
2013-02-24 02:16:00,37.8,19.3,29.77,South,180,1.3,3.4,47,0.00,,,0.00,WUHU216HW,2013-02-24 09:16:00,
2013-02-24 02:17:00,37.8,19.3,29.77,South,180,1.3,3.4,47,0.00,,,0.00,WUHU216HW,2013-02-24 09:17:00,
2013-02-24 02:18:00,37.8,19.3,29.77,SSW,203,1.3,3.4,47,0.00,,,0.00,WUHU216HW,2013-02-24 09:18:00,
2013-02-24 02:19:00,37.8,19.3,29.77,SSW,203,1.3,3.4,47,0.00,,,0.00,WUHU216HW,2013-02-24 09:19:00,
2013-02-24 02:20:00,37.8,19.3,29.77,SW,225,1.3,3.4,47,0.00,,,0.00,WUHU216HW,2013-02-24 09:20:00,
2013-02-24 02:21:00,37.8,19.3,29.77,South,180,0.9,3.4,47,0.00,,,0.00,WUHU216HW,2013-02-24 09:21:00,
2013-02-24 02:22:00,37.8,19.8,29.77,NNW,338,0.4,3.4,48,0.00,,,0.00,WUHU216HW,2013-02-24 09:22:00,
2013-02-24 02:23:00,37.8,19.8,29.77,NNW,338,0.0,3.4,48,0.00,,,0.00,WUHU216HW,2013-02-24 09:23:00,
2013-02-24 02:24:00,37.8,19.8,29.77,North,0,1.1,3.4,48,0.00,,,0.00,WUHU216HW,2013-02-24 09:24:00,
2013-02-24 02:25:00,37.8,19.8,29.77,NNW,338,0.9,3.4,48,0.00,,,0.00,WUHU216HW,2013-02-24 09:25:00,
2013-02-24 02:26:00,37.8,19.8,29.77,NNW,338,1.1,2.2,48,0.00,,,0.00,WUHU216HW,2013-02-24 09:26:00,
2013-02-24 02:27:00,37.8,20.4,29.77,North,0,2.2,2.2,49,0.00,,,0.00,WUHU216HW,2013-02-24 09:27:00,
2013-02-24 02:28:00,37.6,19.6,29.77,North,0,0.9,2.2,48,0.00,,,0.00,WUHU216HW,2013-02-24 09:28:00,
2013-02-24 02:29:00,37.6,19.6,29.77,NNW,338,0.2,2.2,48,0.00,,,0.00,WUHU216HW,2013-02-24 09:29:00,
2013-02-24 02:30:00,37.4,19.4,29.77,North,0,0.4,2.2,48,0.00,,,0.00,WUHU216HW,2013-02-24 09:30:00,
2013-02-24 02:31:00,37.3,19.4,29.77,North,0,0.0,2.2,48,0.00,,,0.00,WUHU216HW,2013-02-24 09:31:00,
2013-02-24 02:32:00,37.3,19.4,29.77,North,0,0.0,2.2,48,0.00,,,0.00,WUHU216HW,2013-02-24 09:32:00,
2013-02-24 02:33:00,37.1,19.2,29.77,North,0,0.0,2.2,48,0.00,,,0.00,WUHU216HW,2013-02-24 09:33:00,
2013-02-24 02:34:00,37.1,19.2,29.76,ENE,68,0.7,2.2,48,0.00,,,0.00,WUHU216HW,2013-02-24 09:34:00,
2013-02-24 02:35:00,37.1,19.2,29.76,ENE,68,0.2,2.2,48,0.00,,,0.00,WUHU216HW,2013-02-24 09:35:00,
2013-02-24 02:36:00,36.9,19.0,29.76,ESE,113,0.2,2.2,48,0.00,,,0.00,WUHU216HW,2013-02-24 09:36:00,
2013-02-24 02:37:00,36.9,19.0,29.76,ESE,113,0.4,2.2,48,0.00,,,0.00,WUHU216HW,2013-02-24 09:37:00,
2013-02-24 02:38:00,36.7,18.8,29.76,ESE,113,0.4,0.9,48,0.00,,,0.00,WUHU216HW,2013-02-24 09:38:00,
2013-02-24 02:39:00,36.7,18.8,29.76,SE,135,0.7,1.1,48,0.00,,,0.00,WUHU216HW,2013-02-24 09:39:00,
2013-02-24 02:40:00,36.5,18.6,29.76,ESE,113,0.4,1.1,48,0.00,,,0.00,WUHU216HW,2013-02-24 09:40:00,
2013-02-24 02:41:00,36.5,18.6,29.76,ESE,113,0.0,1.1,48,0.00,,,0.00,WUHU216HW,2013-02-24 09:41:00,
2013-02-24 02:42:00,36.5,19.2,29.76,ENE,68,0.2,1.1,49,0.00,,,0.00,WUHU216HW,2013-02-24 09:42:00,
2013-02-24 02:43:00,36.4,18.6,29.76,NNE,23,1.1,2.0,48,0.00,,,0.00,WUHU216HW,2013-02-24 09:43:00,
2013-02-24 02:44:00,36.4,19.0,29.76,SSE,158,1.6,2.0,49,0.00,,,0.00,WUHU216HW,2013-02-24 09:44:00,
2013-02-24 02:45:00,36.4,19.0,29.76,NNW,338,0.4,2.0,49,0.00,,,0.00,WUHU216HW,2013-02-24 09:45:00,
2013-02-24 02:46:00,36.4,19.0,29.76,NNE,23,4.0,4.0,49,0.00,,,0.00,WUHU216HW,2013-02-24 09:46:00,
2013-02-24 02:47:00,36.4,19.5,29.76,North,0,3.6,4.7,50,0.00,,,0.00,WUHU216HW,2013-02-24 09:47:00,
2013-02-24 02:48:00,36.5,19.7,29.76,NNW,338,0.4,4.7,50,0.00,,,0.00,WUHU216HW,2013-02-24 09:48:00,
2013-02-24 02:49:00,36.5,19.7,29.76,NNW,338,0.2,4.7,50,0.00,,,0.00,WUHU216HW,2013-02-24 09:49:00,
2013-02-24 02:50:00,36.7,19.4,29.76,West,270,0.4,4.7,49,0.00,,,0.00,WUHU216HW,2013-02-24 09:50:00,
2013-02-24 02:51:00,36.5,19.2,29.76,WSW,248,1.1,4.7,49,0.00,,,0.00,WUHU216HW,2013-02-24 09:51:00,
2013-02-24 02:52:00,36.7,19.4,29.76,North,0,0.7,4.7,49,0.00,,,0.00,WUHU216HW,2013-02-24 09:52:00,
2013-02-24 02:53:00,36.7,19.4,29.76,West,270,1.1,4.7,49,0.00,,,0.00,WUHU216HW,2013-02-24 09:53:00,
2013-02-24 02:54:00,36.7,19.4,29.77,NNW,338,0.4,4.7,49,0.00,,,0.00,WUHU216HW,2013-02-24 09:54:00,
2013-02-24 02:55:00,36.7,19.4,29.76,NNW,338,0.7,4.7,49,0.00,,,0.00,WUHU216HW,2013-02-24 09:55:00,
2013-02-24 02:56:00,36.5,19.2,29.76,West,270,0.4,4.7,49,0.00,,,0.00,WUHU216HW,2013-02-24 09:56:00,
2013-02-24 02:57:00,36.5,19.2,29.77,WNW,293,0.0,2.0,49,0.00,,,0.00,WUHU216HW,2013-02-24 09:57:00,
2013-02-24 02:58:00,36.5,19.2,29.76,SW,225,1.1,1.3,49,0.00,,,0.00,WUHU216HW,2013-02-24 09:58:00,
2013-02-24 02:59:00,36.5,19.2,29.77,SW,225,1.8,1.8,49,0.00,,,0.00,WUHU216HW,2013-02-24 09:59:00,
2013-02-24 03:00:00,36.5,19.2,29.76,WNW,293,0.4,1.8,49,0.00,,,0.00,WUHU216HW,2013-02-24 10:00:00,
2013-02-24 03:01:00,36.5,19.2,29.76,WNW,293,0.0,1.8,49,0.00,,,0.00,WUHU216HW,2013-02-24 10:01:00,
2013-02-24 03:02:00,36.4,19.0,29.76,WSW,248,0.7,1.8,49,0.00,,,0.00,WUHU216HW,2013-02-24 10:02:00,
2013-02-24 03:03:00,36.4,19.0,29.76,SSW,203,1.3,1.8,49,0.00,,,0.00,WUHU216HW,2013-02-24 10:03:00,
2013-02-24 03:04:00,36.4,19.0,29.76,SW,225,1.8,1.8,49,0.00,,,0.00,WUHU216HW,2013-02-24 10:04:00,
2013-02-24 03:05:00,36.4,19.0,29.76,SW,225,0.9,1.8,49,0.00,,,0.00,WUHU216HW,2013-02-24 10:05:00,
2013-02-24 03:06:00,36.4,19.0,29.76,SSW,203,1.8,1.8,49,0.00,,,0.00,WUHU216HW,2013-02-24 10:06:00,
2013-02-24 03:07:00,36.2,18.9,29.76,SSW,203,1.6,2.0,49,0.00,,,0.00,WUHU216HW,2013-02-24 10:07:00,
2013-02-24 03:08:00,36.2,18.9,29.76,SW,225,1.3,2.0,49,0.00,,,0.00,WUHU216HW,2013-02-24 10:08:00,
2013-02-24 03:09:00,36.2,18.9,29.76,SW,225,1.1,2.0,49,0.00,,,0.00,WUHU216HW,2013-02-24 10:09:00,
2013-02-24 03:10:00,36.0,18.7,29.76,SW,225,1.1,2.0,49,0.00,,,0.00,WUHU216HW,2013-02-24 10:10:00,
2013-02-24 03:11:00,36.0,18.7,29.76,SSW,203,1.1,2.0,49,0.00,,,0.00,WUHU216HW,2013-02-24 10:11:00,
2013-02-24 03:12:00,36.0,18.7,29.76,SSW,203,1.1,2.0,49,0.00,,,0.00,WUHU216HW,2013-02-24 10:12:00,
2013-02-24 03:13:00,36.0,18.7,29.76,SSW,203,1.3,2.0,49,0.00,,,0.00,WUHU216HW,2013-02-24 10:13:00,
2013-02-24 03:14:00,35.8,18.5,29.76,South,180,1.8,2.0,49,0.00,,,0.00,WUHU216HW,2013-02-24 10:14:00,
2013-02-24 03:15:00,35.8,18.5,29.76,SSW,203,1.8,2.2,49,0.00,,,0.00,WUHU216HW,2013-02-24 10:15:00,
2013-02-24 03:16:00,35.8,18.5,29.76,SSW,203,1.1,2.2,49,0.00,,,0.00,WUHU216HW,2013-02-24 10:16:00,
2013-02-24 03:17:00,35.6,18.4,29.76,SW,225,1.6,2.2,49,0.00,,,0.00,WUHU216HW,2013-02-24 10:17:00,
2013-02-24 03:18:00,35.6,18.4,29.76,SW,225,0.9,2.2,49,0.00,,,0.00,WUHU216HW,2013-02-24 10:18:00,
2013-02-24 03:19:00,35.6,18.4,29.76,SW,225,1.3,2.2,49,0.00,,,0.00,WUHU216HW,2013-02-24 10:19:00,
2013-02-24 03:20:00,35.6,18.4,29.76,SW,225,1.8,2.2,49,0.00,,,0.00,WUHU216HW,2013-02-24 10:20:00,
2013-02-24 03:21:00,35.6,18.4,29.76,SW,225,1.8,2.2,49,0.00,,,0.00,WUHU216HW,2013-02-24 10:21:00,
2013-02-24 03:22:00,35.6,18.4,29.76,SW,225,1.8,2.2,49,0.00,,,0.00,WUHU216HW,2013-02-24 10:22:00,
2013-02-24 03:23:00,35.6,18.4,29.76,SW,225,1.1,2.2,49,0.00,,,0.00,WUHU216HW,2013-02-24 10:23:00,
2013-02-24 03:24:00,35.6,18.4,29.76,SSW,203,2.5,2.5,49,0.00,,,0.00,WUHU216HW,2013-02-24 10:24:00,
2013-02-24 03:25:00,35.6,18.4,29.76,SSW,203,2.5,2.5,49,0.00,,,0.00,WUHU216HW,2013-02-24 10:25:00,
2013-02-24 03:26:00,35.6,18.4,29.76,WSW,248,1.1,2.5,49,0.00,,,0.00,WUHU216HW,2013-02-24 10:26:00,
2013-02-24 03:27:00,35.6,18.4,29.76,West,270,2.0,2.5,49,0.00,,,0.00,WUHU216HW,2013-02-24 10:27:00,
2013-02-24 03:28:00,35.6,18.4,29.76,West,270,1.8,2.5,49,0.00,,,0.00,WUHU216HW,2013-02-24 10:28:00,
2013-02-24 03:29:00,35.6,18.4,29.76,WSW,248,2.5,2.5,49,0.00,,,0.00,WUHU216HW,2013-02-24 10:29:00,
2013-02-24 03:30:00,35.6,18.9,29.76,SW,225,1.8,2.5,50,0.00,,,0.00,WUHU216HW,2013-02-24 10:30:00,
2013-02-24 03:31:00,35.6,18.9,29.76,SW,225,2.0,2.5,50,0.00,,,0.00,WUHU216HW,2013-02-24 10:31:00,
2013-02-24 03:32:00,35.6,18.9,29.76,SW,225,2.5,2.5,50,0.00,,,0.00,WUHU216HW,2013-02-24 10:32:00,
2013-02-24 03:33:00,35.6,18.9,29.75,SW,225,2.2,2.5,50,0.00,,,0.00,WUHU216HW,2013-02-24 10:33:00,
2013-02-24 03:34:00,35.5,18.7,29.75,SW,225,1.8,2.5,50,0.00,,,0.00,WUHU216HW,2013-02-24 10:34:00,
2013-02-24 03:35:00,35.5,18.7,29.76,WSW,248,1.3,2.5,50,0.00,,,0.00,WUHU216HW,2013-02-24 10:35:00,
2013-02-24 03:36:00,35.5,18.7,29.76,WSW,248,2.5,2.5,50,0.00,,,0.00,WUHU216HW,2013-02-24 10:36:00,
2013-02-24 03:37:00,35.3,18.5,29.75,SW,225,2.2,2.5,50,0.00,,,0.00,WUHU216HW,2013-02-24 10:37:00,
2013-02-24 03:38:00,35.3,18.5,29.75,SSW,203,3.4,3.4,50,0.00,,,0.00,WUHU216HW,2013-02-24 10:38:00,
2013-02-24 03:39:00,35.3,18.5,29.75,SSW,203,3.4,3.4,50,0.00,,,0.00,WUHU216HW,2013-02-24 10:39:00,
2013-02-24 03:40:00,35.3,18.5,29.75,SSW,203,3.4,3.4,50,0.00,,,0.00,WUHU216HW,2013-02-24 10:40:00,
2013-02-24 03:41:00,35.3,18.5,29.75,SW,225,2.5,3.4,50,0.00,,,0.00,WUHU216HW,2013-02-24 10:41:00,
2013-02-24 03:42:00,35.3,18.5,29.75,SW,225,2.2,3.4,50,0.00,,,0.00,WUHU216HW,2013-02-24 10:42:00,
2013-02-24 03:43:00,35.3,18.5,29.75,SW,225,3.4,3.4,50,0.00,,,0.00,WUHU216HW,2013-02-24 10:43:00,
2013-02-24 03:44:00,35.1,18.4,29.75,SSW,203,2.5,3.4,50,0.00,,,0.00,WUHU216HW,2013-02-24 10:44:00,
2013-02-24 03:45:00,35.1,18.4,29.75,SW,225,2.7,3.4,50,0.00,,,0.00,WUHU216HW,2013-02-24 10:45:00,
2013-02-24 03:46:00,35.1,18.8,29.75,SSW,203,2.9,3.4,51,0.00,,,0.00,WUHU216HW,2013-02-24 10:46:00,
2013-02-24 03:47:00,35.1,18.8,29.75,South,180,3.1,3.4,51,0.00,,,0.00,WUHU216HW,2013-02-24 10:47:00,
2013-02-24 03:48:00,35.1,18.8,29.75,SSW,203,2.7,3.4,51,0.00,,,0.00,WUHU216HW,2013-02-24 10:48:00,
2013-02-24 03:49:00,35.1,18.8,29.75,SSW,203,1.8,3.4,51,0.00,,,0.00,WUHU216HW,2013-02-24 10:49:00,
2013-02-24 03:50:00,35.1,18.8,29.75,South,180,2.2,3.4,51,0.00,,,0.00,WUHU216HW,2013-02-24 10:50:00,
2013-02-24 03:51:00,35.1,18.8,29.75,SSW,203,2.2,3.4,51,0.00,,,0.00,WUHU216HW,2013-02-24 10:51:00,
2013-02-24 03:52:00,35.1,18.8,29.75,SSE,158,2.2,3.4,51,0.00,,,0.00,WUHU216HW,2013-02-24 10:52:00,
2013-02-24 03:53:00,35.1,18.8,29.75,SSE,158,0.7,3.1,51,0.00,,,0.00,WUHU216HW,2013-02-24 10:53:00,
2013-02-24 03:54:00,35.1,18.8,29.75,SSE,158,1.1,3.1,51,0.00,,,0.00,WUHU216HW,2013-02-24 10:54:00,
2013-02-24 03:55:00,35.1,18.8,29.75,South,180,1.6,3.1,51,0.00,,,0.00,WUHU216HW,2013-02-24 10:55:00,
2013-02-24 03:56:00,35.1,18.8,29.75,SSE,158,1.1,3.1,51,0.00,,,0.00,WUHU216HW,2013-02-24 10:56:00,
2013-02-24 03:57:00,35.1,18.8,29.75,South,180,0.9,3.1,51,0.00,,,0.00,WUHU216HW,2013-02-24 10:57:00,
2013-02-24 03:58:00,35.1,18.8,29.75,SSE,158,0.7,2.7,51,0.00,,,0.00,WUHU216HW,2013-02-24 10:58:00,
2013-02-24 03:59:00,35.1,18.8,29.75,SSW,203,0.9,2.7,51,0.00,,,0.00,WUHU216HW,2013-02-24 10:59:00,
2013-02-24 04:00:00,34.9,18.6,29.75,SSW,203,0.9,2.7,51,0.00,,,0.00,WUHU216HW,2013-02-24 11:00:00,
2013-02-24 04:01:00,35.1,18.8,29.75,SW,225,0.4,2.7,51,0.00,,,0.00,WUHU216HW,2013-02-24 11:01:00,
2013-02-24 04:02:00,35.1,18.8,29.75,SSW,203,0.0,2.2,51,0.00,,,0.00,WUHU216HW,2013-02-24 11:02:00,
2013-02-24 04:03:00,35.1,18.8,29.75,SE,135,0.4,1.6,51,0.00,,,0.00,WUHU216HW,2013-02-24 11:03:00,
2013-02-24 04:04:00,35.1,18.8,29.75,ESE,113,0.7,1.6,51,0.00,,,0.00,WUHU216HW,2013-02-24 11:04:00,
2013-02-24 04:05:00,35.1,18.8,29.75,ESE,113,0.7,1.6,51,0.00,,,0.00,WUHU216HW,2013-02-24 11:05:00,
2013-02-24 04:06:00,35.1,18.8,29.75,ESE,113,0.2,1.3,51,0.00,,,0.00,WUHU216HW,2013-02-24 11:06:00,
2013-02-24 04:07:00,35.1,18.8,29.75,East,90,0.7,1.1,51,0.00,,,0.00,WUHU216HW,2013-02-24 11:07:00,
2013-02-24 04:08:00,35.1,18.8,29.75,East,90,0.0,1.1,51,0.00,,,0.00,WUHU216HW,2013-02-24 11:08:00,
2013-02-24 04:09:00,35.1,18.8,29.75,East,90,0.0,0.9,51,0.00,,,0.00,WUHU216HW,2013-02-24 11:09:00,
2013-02-24 04:10:00,35.1,18.8,29.75,East,90,0.0,0.9,51,0.00,,,0.00,WUHU216HW,2013-02-24 11:10:00,
2013-02-24 04:11:00,35.1,18.8,29.75,East,90,0.0,0.9,51,0.00,,,0.00,WUHU216HW,2013-02-24 11:11:00,
2013-02-24 04:12:00,35.1,18.8,29.75,East,90,0.0,0.9,51,0.00,,,0.00,WUHU216HW,2013-02-24 11:12:00,
2013-02-24 04:13:00,34.9,18.6,29.75,East,90,0.0,0.9,51,0.00,,,0.00,WUHU216HW,2013-02-24 11:13:00,
2013-02-24 04:14:00,34.9,18.6,29.75,East,90,0.0,0.7,51,0.00,,,0.00,WUHU216HW,2013-02-24 11:14:00,
2013-02-24 04:15:00,34.9,18.6,29.75,SW,225,0.9,0.9,51,0.00,,,0.00,WUHU216HW,2013-02-24 11:15:00,
2013-02-24 04:16:00,34.9,18.6,29.75,SW,225,1.8,1.8,51,0.00,,,0.00,WUHU216HW,2013-02-24 11:16:00,
2013-02-24 04:17:00,34.9,18.6,29.75,SSW,203,1.8,1.8,51,0.00,,,0.00,WUHU216HW,2013-02-24 11:17:00,
2013-02-24 04:18:00,34.7,18.5,29.75,SW,225,1.1,1.8,51,0.00,,,0.00,WUHU216HW,2013-02-24 11:18:00,
2013-02-24 04:19:00,34.7,18.5,29.75,SW,225,1.1,1.8,51,0.00,,,0.00,WUHU216HW,2013-02-24 11:19:00,
2013-02-24 04:20:00,34.7,18.5,29.75,SW,225,1.6,2.5,51,0.00,,,0.00,WUHU216HW,2013-02-24 11:20:00,
2013-02-24 04:21:00,34.6,18.3,29.75,SSW,203,2.5,2.9,51,0.00,,,0.00,WUHU216HW,2013-02-24 11:21:00,
2013-02-24 04:22:00,34.6,18.3,29.75,WSW,248,0.7,2.9,51,0.00,,,0.00,WUHU216HW,2013-02-24 11:22:00,
2013-02-24 04:23:00,34.6,18.3,29.75,SW,225,2.0,2.9,51,0.00,,,0.00,WUHU216HW,2013-02-24 11:23:00,
2013-02-24 04:24:00,34.6,18.3,29.75,SSW,203,2.5,2.9,51,0.00,,,0.00,WUHU216HW,2013-02-24 11:24:00,
2013-02-24 04:25:00,34.6,18.3,29.75,SSW,203,2.5,2.9,51,0.00,,,0.00,WUHU216HW,2013-02-24 11:25:00,
2013-02-24 04:26:00,34.6,18.3,29.75,SSW,203,3.6,3.6,51,0.00,,,0.00,WUHU216HW,2013-02-24 11:26:00,
2013-02-24 04:27:00,34.7,18.5,29.75,SW,225,1.8,3.8,51,0.00,,,0.00,WUHU216HW,2013-02-24 11:27:00,
2013-02-24 04:28:00,34.7,18.5,29.75,SW,225,1.3,3.8,51,0.00,,,0.00,WUHU216HW,2013-02-24 11:28:00,
2013-02-24 04:29:00,34.7,18.5,29.75,SW,225,2.5,3.8,51,0.00,,,0.00,WUHU216HW,2013-02-24 11:29:00,
2013-02-24 04:30:00,34.7,18.5,29.75,SW,225,2.5,3.8,51,0.00,,,0.00,WUHU216HW,2013-02-24 11:30:00,
2013-02-24 04:31:00,34.9,18.6,29.75,WSW,248,1.8,3.8,51,0.00,,,0.00,WUHU216HW,2013-02-24 11:31:00,
2013-02-24 04:32:00,34.9,18.6,29.76,SW,225,1.6,3.8,51,0.00,,,0.00,WUHU216HW,2013-02-24 11:32:00,
2013-02-24 04:33:00,34.9,18.6,29.76,SSW,203,2.2,3.8,51,0.00,,,0.00,WUHU216HW,2013-02-24 11:33:00,
2013-02-24 04:34:00,34.9,18.6,29.75,SW,225,3.4,3.8,51,0.00,,,0.00,WUHU216HW,2013-02-24 11:34:00,
2013-02-24 04:35:00,34.9,18.6,29.75,WSW,248,2.2,3.8,51,0.00,,,0.00,WUHU216HW,2013-02-24 11:35:00,
2013-02-24 04:36:00,35.1,18.8,29.75,SW,225,2.2,3.8,51,0.00,,,0.00,WUHU216HW,2013-02-24 11:36:00,
2013-02-24 04:37:00,34.9,18.6,29.75,SW,225,2.2,3.4,51,0.00,,,0.00,WUHU216HW,2013-02-24 11:37:00,
2013-02-24 04:38:00,35.1,18.4,29.75,SW,225,1.8,3.4,50,0.00,,,0.00,WUHU216HW,2013-02-24 11:38:00,
2013-02-24 04:39:00,35.1,18.4,29.76,SW,225,2.5,3.4,50,0.00,,,0.00,WUHU216HW,2013-02-24 11:39:00,
2013-02-24 04:40:00,35.1,18.4,29.75,SW,225,2.5,3.4,50,0.00,,,0.00,WUHU216HW,2013-02-24 11:40:00,
2013-02-24 04:41:00,35.1,18.4,29.75,SSW,203,2.5,3.4,50,0.00,,,0.00,WUHU216HW,2013-02-24 11:41:00,
2013-02-24 04:42:00,34.9,18.2,29.75,SW,225,2.0,3.4,50,0.00,,,0.00,WUHU216HW,2013-02-24 11:42:00,
2013-02-24 04:43:00,34.9,18.2,29.75,SSW,203,2.2,3.4,50,0.00,,,0.00,WUHU216HW,2013-02-24 11:43:00,
2013-02-24 04:44:00,34.9,18.2,29.75,SW,225,1.8,3.4,50,0.00,,,0.00,WUHU216HW,2013-02-24 11:44:00,
2013-02-24 04:45:00,34.9,18.2,29.75,SW,225,2.0,2.9,50,0.00,,,0.00,WUHU216HW,2013-02-24 11:45:00,
2013-02-24 04:46:00,34.9,18.2,29.75,SW,225,2.5,3.1,50,0.00,,,0.00,WUHU216HW,2013-02-24 11:46:00,
2013-02-24 04:47:00,34.9,18.2,29.75,SW,225,2.2,3.1,50,0.00,,,0.00,WUHU216HW,2013-02-24 11:47:00,
2013-02-24 04:48:00,34.9,18.2,29.75,SW,225,1.8,3.1,50,0.00,,,0.00,WUHU216HW,2013-02-24 11:48:00,
2013-02-24 04:49:00,34.9,18.2,29.75,SW,225,1.8,3.1,50,0.00,,,0.00,WUHU216HW,2013-02-24 11:49:00,
2013-02-24 04:50:00,34.9,18.2,29.75,SW,225,2.0,3.1,50,0.00,,,0.00,WUHU216HW,2013-02-24 11:50:00,
2013-02-24 04:51:00,34.9,18.2,29.75,SW,225,1.1,3.1,50,0.00,,,0.00,WUHU216HW,2013-02-24 11:51:00,
2013-02-24 04:52:00,34.9,18.2,29.75,SW,225,1.1,3.1,50,0.00,,,0.00,WUHU216HW,2013-02-24 11:52:00,
2013-02-24 04:53:00,34.9,18.2,29.75,SW,225,1.8,3.1,50,0.00,,,0.00,WUHU216HW,2013-02-24 11:53:00,
2013-02-24 04:54:00,34.9,18.2,29.75,WSW,248,1.1,3.1,50,0.00,,,0.00,WUHU216HW,2013-02-24 11:54:00,
2013-02-24 04:55:00,34.9,18.2,29.75,SW,225,0.4,3.1,50,0.00,,,0.00,WUHU216HW,2013-02-24 11:55:00,
2013-02-24 04:56:00,34.9,18.2,29.75,SW,225,0.0,2.9,50,0.00,,,0.00,WUHU216HW,2013-02-24 11:56:00,
2013-02-24 04:57:00,34.9,18.2,29.75,SW,225,0.0,2.5,50,0.00,,,0.00,WUHU216HW,2013-02-24 11:57:00,
2013-02-24 04:58:00,34.9,18.2,29.75,NE,45,1.1,2.5,50,0.00,,,0.00,WUHU216HW,2013-02-24 11:58:00,
2013-02-24 04:59:00,34.9,18.2,29.75,NE,45,0.4,2.5,50,0.00,,,0.00,WUHU216HW,2013-02-24 11:59:00,
2013-02-24 05:00:00,34.9,18.6,29.75,North,0,0.7,2.2,51,0.00,,,0.00,WUHU216HW,2013-02-24 12:00:00,
2013-02-24 05:01:00,34.9,18.6,29.75,North,0,0.4,2.2,51,0.00,,,0.00,WUHU216HW,2013-02-24 12:01:00,
2013-02-24 05:02:00,34.7,18.5,29.75,North,0,0.4,2.2,51,0.00,,,0.00,WUHU216HW,2013-02-24 12:02:00,
2013-02-24 05:03:00,34.7,18.5,29.76,North,0,0.4,2.2,51,0.00,,,0.00,WUHU216HW,2013-02-24 12:03:00,
2013-02-24 05:04:00,34.7,18.5,29.75,North,0,0.2,2.2,51,0.00,,,0.00,WUHU216HW,2013-02-24 12:04:00,
2013-02-24 05:05:00,34.6,18.3,29.76,North,0,0.4,1.1,51,0.00,,,0.00,WUHU216HW,2013-02-24 12:05:00,
2013-02-24 05:06:00,34.6,18.3,29.76,North,0,0.2,1.1,51,0.00,,,0.00,WUHU216HW,2013-02-24 12:06:00,
2013-02-24 05:07:00,34.6,18.3,29.76,North,0,0.4,1.1,51,0.00,,,0.00,WUHU216HW,2013-02-24 12:07:00,
2013-02-24 05:08:00,34.4,18.1,29.76,North,0,0.2,1.1,51,0.00,,,0.00,WUHU216HW,2013-02-24 12:08:00,
2013-02-24 05:09:00,34.4,18.1,29.76,NNE,23,0.4,1.1,51,0.00,,,0.00,WUHU216HW,2013-02-24 12:09:00,
2013-02-24 05:10:00,34.2,17.9,29.75,ENE,68,0.4,1.1,51,0.00,,,0.00,WUHU216HW,2013-02-24 12:10:00,
2013-02-24 05:11:00,34.2,17.9,29.76,ENE,68,0.2,0.9,51,0.00,,,0.00,WUHU216HW,2013-02-24 12:11:00,
2013-02-24 05:12:00,34.2,17.9,29.76,ENE,68,0.0,0.9,51,0.00,,,0.00,WUHU216HW,2013-02-24 12:12:00,
2013-02-24 05:13:00,34.0,17.7,29.76,ENE,68,0.7,1.1,51,0.00,,,0.00,WUHU216HW,2013-02-24 12:13:00,
2013-02-24 05:14:00,34.0,17.7,29.76,East,90,0.7,1.1,51,0.00,,,0.00,WUHU216HW,2013-02-24 12:14:00,
2013-02-24 05:15:00,33.8,18.0,29.75,ESE,113,1.1,1.1,52,0.00,,,0.00,WUHU216HW,2013-02-24 12:15:00,
2013-02-24 05:16:00,33.8,18.0,29.75,ESE,113,0.4,1.1,52,0.00,,,0.00,WUHU216HW,2013-02-24 12:16:00,
2013-02-24 05:17:00,33.8,18.0,29.76,ESE,113,0.0,1.1,52,0.00,,,0.00,WUHU216HW,2013-02-24 12:17:00,
2013-02-24 05:18:00,33.7,17.8,29.76,ESE,113,0.0,1.1,52,0.00,,,0.00,WUHU216HW,2013-02-24 12:18:00,
2013-02-24 05:19:00,33.7,17.8,29.76,ESE,113,0.2,1.1,52,0.00,,,0.00,WUHU216HW,2013-02-24 12:19:00,
2013-02-24 05:20:00,33.5,17.6,29.75,East,90,0.0,1.1,52,0.00,,,0.00,WUHU216HW,2013-02-24 12:20:00,
2013-02-24 05:21:00,33.5,17.6,29.75,East,90,0.2,1.1,52,0.00,,,0.00,WUHU216HW,2013-02-24 12:21:00,
2013-02-24 05:22:00,33.5,17.6,29.75,East,90,0.0,1.1,52,0.00,,,0.00,WUHU216HW,2013-02-24 12:22:00,
2013-02-24 05:23:00,33.5,17.6,29.75,East,90,0.4,1.1,52,0.00,,,0.00,WUHU216HW,2013-02-24 12:23:00,
2013-02-24 05:24:00,33.3,17.5,29.75,ESE,113,0.4,1.1,52,0.00,,,0.00,WUHU216HW,2013-02-24 12:24:00,
2013-02-24 05:25:00,33.3,17.5,29.75,ESE,113,0.9,1.1,52,0.00,,,0.00,WUHU216HW,2013-02-24 12:25:00,
2013-02-24 05:26:00,33.3,17.5,29.75,ESE,113,0.4,0.9,52,0.00,,,0.00,WUHU216HW,2013-02-24 12:26:00,
2013-02-24 05:27:00,33.1,17.7,29.75,ESE,113,0.7,0.9,53,0.00,,,0.00,WUHU216HW,2013-02-24 12:27:00,
2013-02-24 05:28:00,33.1,17.7,29.75,ESE,113,0.2,0.9,53,0.00,,,0.00,WUHU216HW,2013-02-24 12:28:00,
2013-02-24 05:29:00,33.1,17.7,29.75,ESE,113,0.0,0.9,53,0.00,,,0.00,WUHU216HW,2013-02-24 12:29:00,
2013-02-24 05:30:00,33.1,17.7,29.75,ESE,113,0.4,0.9,53,0.00,,,0.00,WUHU216HW,2013-02-24 12:30:00,
2013-02-24 05:31:00,32.9,17.6,29.75,ESE,113,0.0,0.9,53,0.00,,,0.00,WUHU216HW,2013-02-24 12:31:00,
2013-02-24 05:32:00,32.9,17.6,29.75,ESE,113,0.0,0.9,53,0.00,,,0.00,WUHU216HW,2013-02-24 12:32:00,
2013-02-24 05:33:00,32.9,17.6,29.75,ESE,113,0.4,0.9,53,0.00,,,0.00,WUHU216HW,2013-02-24 12:33:00,
2013-02-24 05:34:00,32.8,17.5,29.75,ESE,113,0.0,0.9,53,0.00,,,0.00,WUHU216HW,2013-02-24 12:34:00,
2013-02-24 05:35:00,32.8,17.5,29.75,ESE,113,0.0,0.7,53,0.00,,,0.00,WUHU216HW,2013-02-24 12:35:00,
2013-02-24 05:36:00,32.8,17.5,29.75,ESE,113,0.0,0.7,53,0.00,,,0.00,WUHU216HW,2013-02-24 12:36:00,
2013-02-24 05:37:00,32.8,17.5,29.75,ESE,113,0.4,0.4,53,0.00,,,0.00,WUHU216HW,2013-02-24 12:37:00,
2013-02-24 05:38:00,32.8,17.5,29.75,ESE,113,0.0,0.4,53,0.00,,,0.00,WUHU216HW,2013-02-24 12:38:00,
2013-02-24 05:39:00,32.8,17.5,29.75,ESE,113,0.0,0.4,53,0.00,,,0.00,WUHU216HW,2013-02-24 12:39:00,
2013-02-24 05:40:00,32.6,17.3,29.75,ESE,113,0.4,0.4,53,0.00,,,0.00,WUHU216HW,2013-02-24 12:40:00,
2013-02-24 05:41:00,32.6,17.3,29.75,ESE,113,0.7,0.7,53,0.00,,,0.00,WUHU216HW,2013-02-24 12:41:00,
2013-02-24 05:42:00,32.6,17.3,29.75,SE,135,0.7,0.9,53,0.00,,,0.00,WUHU216HW,2013-02-24 12:42:00,
2013-02-24 05:43:00,32.6,17.3,29.75,SE,135,0.7,0.9,53,0.00,,,0.00,WUHU216HW,2013-02-24 12:43:00,
2013-02-24 05:44:00,32.6,17.3,29.75,SE,135,0.4,0.9,53,0.00,,,0.00,WUHU216HW,2013-02-24 12:44:00,
2013-02-24 05:45:00,32.4,17.1,29.75,SE,135,0.0,0.9,53,0.00,,,0.00,WUHU216HW,2013-02-24 12:45:00,
2013-02-24 05:46:00,32.4,17.1,29.76,SE,135,0.2,0.9,53,0.00,,,0.00,WUHU216HW,2013-02-24 12:46:00,
2013-02-24 05:47:00,32.4,17.1,29.76,SE,135,0.0,0.9,53,0.00,,,0.00,WUHU216HW,2013-02-24 12:47:00,
2013-02-24 05:48:00,32.4,17.6,29.76,SE,135,0.0,0.9,54,0.00,,,0.00,WUHU216HW,2013-02-24 12:48:00,
2013-02-24 05:49:00,32.2,17.4,29.76,SE,135,0.2,0.9,54,0.00,,,0.00,WUHU216HW,2013-02-24 12:49:00,
2013-02-24 05:50:00,32.2,17.4,29.76,SE,135,0.0,0.9,54,0.00,,,0.00,WUHU216HW,2013-02-24 12:50:00,
2013-02-24 05:51:00,32.2,17.4,29.76,SE,135,0.0,0.9,54,0.00,,,0.00,WUHU216HW,2013-02-24 12:51:00,
2013-02-24 05:52:00,32.2,17.4,29.76,SW,225,0.4,0.9,54,0.00,,,0.00,WUHU216HW,2013-02-24 12:52:00,
2013-02-24 05:53:00,32.0,17.2,29.76,SW,225,0.4,0.9,54,0.00,,,0.00,WUHU216HW,2013-02-24 12:53:00,
2013-02-24 05:54:00,32.0,17.2,29.76,WSW,248,0.9,0.9,54,0.00,,,0.00,WUHU216HW,2013-02-24 12:54:00,
2013-02-24 05:55:00,32.0,16.7,29.76,WSW,248,1.1,1.1,53,0.00,,,0.00,WUHU216HW,2013-02-24 12:55:00,
2013-02-24 05:56:00,32.0,16.7,29.76,WSW,248,1.1,1.1,53,0.00,,,0.00,WUHU216HW,2013-02-24 12:56:00,
2013-02-24 05:57:00,31.9,16.7,29.76,WSW,248,0.4,1.3,53,0.00,,,0.00,WUHU216HW,2013-02-24 12:57:00,
2013-02-24 05:58:00,31.9,16.7,29.76,WSW,248,0.7,1.3,53,0.00,,,0.00,WUHU216HW,2013-02-24 12:58:00,
2013-02-24 05:59:00,31.7,16.5,29.76,WSW,248,1.1,1.3,53,0.00,,,0.00,WUHU216HW,2013-02-24 12:59:00,
2013-02-24 06:00:00,31.9,16.7,29.76,WSW,248,0.4,1.3,53,0.00,,,0.00,WUHU216HW,2013-02-24 13:00:00,
2013-02-24 06:01:00,31.7,16.5,29.76,WSW,248,0.0,1.3,53,0.00,,,0.00,WUHU216HW,2013-02-24 13:01:00,
2013-02-24 06:02:00,31.7,16.5,29.76,WSW,248,0.2,1.3,53,0.00,,,0.00,WUHU216HW,2013-02-24 13:02:00,
2013-02-24 06:03:00,31.7,16.5,29.76,WSW,248,0.0,1.3,53,0.00,,,0.00,WUHU216HW,2013-02-24 13:03:00,
2013-02-24 06:04:00,31.7,16.8,29.76,WSW,248,0.0,1.3,54,0.00,,,0.00,WUHU216HW,2013-02-24 13:04:00,
2013-02-24 06:05:00,31.7,16.8,29.76,North,0,0.0,1.3,54,0.00,,,0.00,WUHU216HW,2013-02-24 13:05:00,
2013-02-24 06:06:00,31.5,16.8,29.76,North,0,0.2,1.3,54,0.00,,,0.00,WUHU216HW,2013-02-24 13:06:00,
2013-02-24 06:07:00,31.5,16.8,29.76,North,0,0.0,1.3,54,0.00,,,0.00,WUHU216HW,2013-02-24 13:07:00,
2013-02-24 06:08:00,31.5,16.8,29.76,North,0,0.0,1.3,54,0.00,,,0.00,WUHU216HW,2013-02-24 13:08:00,
2013-02-24 06:09:00,31.5,16.8,29.76,ENE,68,0.4,1.1,54,0.00,,,0.00,WUHU216HW,2013-02-24 13:09:00,
2013-02-24 06:10:00,31.5,16.8,29.76,ENE,68,0.4,0.7,54,0.00,,,0.00,WUHU216HW,2013-02-24 13:10:00,
2013-02-24 06:11:00,31.5,16.8,29.76,ENE,68,0.2,0.7,54,0.00,,,0.00,WUHU216HW,2013-02-24 13:11:00,
2013-02-24 06:12:00,31.5,16.8,29.76,ENE,68,0.2,0.7,54,0.00,,,0.00,WUHU216HW,2013-02-24 13:12:00,
2013-02-24 06:13:00,31.3,16.6,29.76,East,90,0.4,0.7,54,0.00,,,0.00,WUHU216HW,2013-02-24 13:13:00,
2013-02-24 06:14:00,31.3,16.6,29.76,ESE,113,0.4,0.7,54,0.00,,,0.00,WUHU216HW,2013-02-24 13:14:00,
2013-02-24 06:15:00,31.3,16.6,29.76,ESE,113,0.2,0.7,54,0.00,,,0.00,WUHU216HW,2013-02-24 13:15:00,
2013-02-24 06:16:00,31.3,16.6,29.76,ESE,113,0.0,0.7,54,0.00,,,0.00,WUHU216HW,2013-02-24 13:16:00,
2013-02-24 06:17:00,31.3,16.6,29.76,ESE,113,0.0,0.7,54,0.00,,,0.00,WUHU216HW,2013-02-24 13:17:00,
2013-02-24 06:18:00,31.3,16.6,29.76,ESE,113,0.0,0.7,54,0.00,,,0.00,WUHU216HW,2013-02-24 13:18:00,
2013-02-24 06:19:00,31.3,16.6,29.76,ESE,113,0.0,0.7,54,0.00,,,0.00,WUHU216HW,2013-02-24 13:19:00,
2013-02-24 06:20:00,31.3,16.9,29.76,ESE,113,0.0,0.7,55,0.00,,,0.00,WUHU216HW,2013-02-24 13:20:00,
2013-02-24 06:21:00,31.3,16.9,29.76,ESE,113,0.0,0.7,55,0.00,,,0.00,WUHU216HW,2013-02-24 13:21:00,
2013-02-24 06:22:00,31.3,16.9,29.76,ESE,113,0.0,0.7,55,0.00,,,0.00,WUHU216HW,2013-02-24 13:22:00,
2013-02-24 06:23:00,31.3,16.9,29.76,ESE,113,0.0,0.7,55,0.00,,,0.00,WUHU216HW,2013-02-24 13:23:00,
2013-02-24 06:24:00,31.3,16.9,29.76,ESE,113,0.0,0.4,55,0.00,,,0.00,WUHU216HW,2013-02-24 13:24:00,
2013-02-24 06:25:00,31.3,16.9,29.76,ESE,113,0.0,0.4,55,0.00,,,0.00,WUHU216HW,2013-02-24 13:25:00,
2013-02-24 06:26:00,31.1,16.8,29.75,ESE,113,0.4,0.4,55,0.00,,,0.00,WUHU216HW,2013-02-24 13:26:00,
2013-02-24 06:27:00,31.1,16.8,29.75,ESE,113,0.7,0.7,55,0.00,,,0.00,WUHU216HW,2013-02-24 13:27:00,
2013-02-24 06:28:00,31.1,16.8,29.75,ESE,113,0.4,0.7,55,0.00,,,0.00,WUHU216HW,2013-02-24 13:28:00,
2013-02-24 06:29:00,31.1,16.8,29.75,ESE,113,0.4,0.7,55,0.00,,,0.00,WUHU216HW,2013-02-24 13:29:00,
2013-02-24 06:30:00,31.1,16.8,29.75,ESE,113,0.2,0.7,55,0.00,,,0.00,WUHU216HW,2013-02-24 13:30:00,
2013-02-24 06:31:00,31.1,16.8,29.75,ESE,113,1.1,1.1,55,0.00,,,0.00,WUHU216HW,2013-02-24 13:31:00,
2013-02-24 06:32:00,31.1,16.8,29.75,ESE,113,1.1,1.1,55,0.00,,,0.00,WUHU216HW,2013-02-24 13:32:00,
2013-02-24 06:33:00,31.0,16.7,29.75,ESE,113,1.1,1.1,55,0.00,,,0.00,WUHU216HW,2013-02-24 13:33:00,
2013-02-24 06:34:00,31.0,16.7,29.75,ESE,113,0.7,1.1,55,0.00,,,0.00,WUHU216HW,2013-02-24 13:34:00,
2013-02-24 06:35:00,31.0,16.7,29.75,ESE,113,0.7,1.1,55,0.00,,,0.00,WUHU216HW,2013-02-24 13:35:00,
2013-02-24 06:36:00,31.0,16.7,29.75,ESE,113,0.9,1.1,55,0.00,,,0.00,WUHU216HW,2013-02-24 13:36:00,
2013-02-24 06:37:00,31.0,16.7,29.74,ESE,113,1.3,1.8,55,0.00,,,0.00,WUHU216HW,2013-02-24 13:37:00,
2013-02-24 06:38:00,31.1,16.8,29.74,ESE,113,0.4,1.8,55,0.00,,,0.00,WUHU216HW,2013-02-24 13:38:00,
2013-02-24 06:39:00,31.0,17.0,29.75,ESE,113,0.0,1.8,56,0.00,,,0.00,WUHU216HW,2013-02-24 13:39:00,
2013-02-24 06:40:00,31.1,17.2,29.75,ESE,113,0.0,1.8,56,0.00,,,0.00,WUHU216HW,2013-02-24 13:40:00,
2013-02-24 06:41:00,31.1,17.2,29.74,ESE,113,0.4,1.8,56,0.00,,,0.00,WUHU216HW,2013-02-24 13:41:00,
2013-02-24 06:42:00,31.1,17.2,29.74,East,90,0.4,1.8,56,0.00,,,0.00,WUHU216HW,2013-02-24 13:42:00,
2013-02-24 06:43:00,31.1,17.2,29.74,East,90,0.0,1.8,56,0.00,,,0.00,WUHU216HW,2013-02-24 13:43:00,
2013-02-24 06:44:00,31.3,17.4,29.75,East,90,0.0,1.8,56,0.00,,,0.00,WUHU216HW,2013-02-24 13:44:00,
2013-02-24 06:45:00,31.1,17.2,29.75,East,90,0.2,1.8,56,0.00,,,0.00,WUHU216HW,2013-02-24 13:45:00,
2013-02-24 06:46:00,31.1,17.2,29.75,East,90,0.0,1.8,56,0.00,,,0.00,WUHU216HW,2013-02-24 13:46:00,
2013-02-24 06:47:00,31.1,17.2,29.75,East,90,0.0,1.3,56,0.00,,,0.00,WUHU216HW,2013-02-24 13:47:00,
2013-02-24 06:48:00,31.1,17.2,29.75,East,90,0.0,0.4,56,0.00,,,0.00,WUHU216HW,2013-02-24 13:48:00,
2013-02-24 06:49:00,31.1,17.2,29.75,East,90,0.0,0.4,56,0.00,,,0.00,WUHU216HW,2013-02-24 13:49:00,
2013-02-24 06:50:00,31.1,17.2,29.75,East,90,0.0,0.4,56,0.00,,,0.00,WUHU216HW,2013-02-24 13:50:00,
2013-02-24 06:51:00,31.1,17.2,29.75,East,90,0.0,0.4,56,0.00,,,0.00,WUHU216HW,2013-02-24 13:51:00,
2013-02-24 06:52:00,31.0,17.0,29.75,East,90,0.0,0.4,56,0.00,,,0.00,WUHU216HW,2013-02-24 13:52:00,
2013-02-24 06:53:00,31.0,17.0,29.75,East,90,0.0,0.4,56,0.00,,,0.00,WUHU216HW,2013-02-24 13:53:00,
2013-02-24 06:54:00,31.0,17.0,29.75,ESE,113,0.4,0.4,56,0.00,,,0.00,WUHU216HW,2013-02-24 13:54:00,
2013-02-24 06:55:00,31.0,17.0,29.75,SW,225,0.7,0.7,56,0.00,,,0.00,WUHU216HW,2013-02-24 13:55:00,
2013-02-24 06:56:00,30.8,16.5,29.75,SW,225,1.8,1.8,55,0.00,,,0.00,WUHU216HW,2013-02-24 13:56:00,
2013-02-24 06:57:00,30.8,16.5,29.75,West,270,1.8,2.5,55,0.00,,,0.00,WUHU216HW,2013-02-24 13:57:00,
2013-02-24 06:58:00,30.6,16.3,29.75,WSW,248,1.6,2.5,55,0.00,,,0.00,WUHU216HW,2013-02-24 13:58:00,
2013-02-24 06:59:00,30.6,16.3,29.75,WSW,248,0.9,2.5,55,0.00,,,0.00,WUHU216HW,2013-02-24 13:59:00,
2013-02-24 07:00:00,30.8,16.5,29.75,SW,225,1.8,2.5,55,0.00,,,0.00,WUHU216HW,2013-02-24 14:00:00,
2013-02-24 07:01:00,30.6,16.3,29.76,SW,225,2.0,2.5,55,0.00,,,0.00,WUHU216HW,2013-02-24 14:01:00,
2013-02-24 07:02:00,30.6,16.7,29.76,SW,225,2.0,2.5,56,0.00,,,0.00,WUHU216HW,2013-02-24 14:02:00,
2013-02-24 07:03:00,30.6,16.7,29.76,SW,225,1.1,2.5,56,0.00,,,0.00,WUHU216HW,2013-02-24 14:03:00,
2013-02-24 07:04:00,30.6,16.7,29.76,SW,225,0.4,2.5,56,0.00,,,0.00,WUHU216HW,2013-02-24 14:04:00,
2013-02-24 07:05:00,30.6,16.7,29.75,SW,225,1.1,2.5,56,0.00,,,0.00,WUHU216HW,2013-02-24 14:05:00,
2013-02-24 07:06:00,30.6,16.7,29.75,SW,225,1.1,2.5,56,0.00,,,0.00,WUHU216HW,2013-02-24 14:06:00,
2013-02-24 07:07:00,30.8,16.8,29.75,WSW,248,1.1,2.5,56,0.00,,,0.00,WUHU216HW,2013-02-24 14:07:00,
2013-02-24 07:08:00,31.0,17.0,29.76,WSW,248,0.7,2.5,56,0.00,,,0.00,WUHU216HW,2013-02-24 14:08:00,
2013-02-24 07:09:00,31.0,17.5,29.75,SW,225,0.7,2.5,57,0.00,,,0.00,WUHU216HW,2013-02-24 14:09:00,
2013-02-24 07:10:00,31.1,17.7,29.76,SW,225,0.7,2.5,57,0.00,,,0.00,WUHU216HW,2013-02-24 14:10:00,
2013-02-24 07:11:00,31.1,17.7,29.76,SW,225,1.1,2.5,57,0.00,,,0.00,WUHU216HW,2013-02-24 14:11:00,
2013-02-24 07:12:00,31.3,17.8,29.76,SW,225,1.3,2.5,57,0.00,,,0.00,WUHU216HW,2013-02-24 14:12:00,
2013-02-24 07:13:00,31.5,18.0,29.76,SW,225,0.7,1.6,57,0.00,,,0.00,WUHU216HW,2013-02-24 14:13:00,
2013-02-24 07:14:00,31.5,18.0,29.76,SW,225,0.4,1.6,57,0.00,,,0.00,WUHU216HW,2013-02-24 14:14:00,
2013-02-24 07:15:00,31.9,18.4,29.76,West,270,0.7,1.6,57,0.00,,,0.00,WUHU216HW,2013-02-24 14:15:00,
2013-02-24 07:16:00,32.0,18.6,29.76,West,270,0.7,1.6,57,0.00,,,0.00,WUHU216HW,2013-02-24 14:16:00,
2013-02-24 07:17:00,32.0,18.1,29.76,WSW,248,1.1,1.6,56,0.00,,,0.00,WUHU216HW,2013-02-24 14:17:00,
2013-02-24 07:18:00,32.4,18.8,29.76,WSW,248,1.1,1.6,57,0.00,,,0.00,WUHU216HW,2013-02-24 14:18:00,
2013-02-24 07:19:00,32.6,19.0,29.76,WSW,248,1.1,1.6,57,0.00,,,0.00,WUHU216HW,2013-02-24 14:19:00,
2013-02-24 07:20:00,32.8,18.7,29.76,SW,225,1.3,1.6,56,0.00,,,0.00,WUHU216HW,2013-02-24 14:20:00,
2013-02-24 07:21:00,32.9,18.9,29.76,WSW,248,0.7,1.6,56,0.00,,,0.00,WUHU216HW,2013-02-24 14:21:00,
2013-02-24 07:22:00,33.3,19.2,29.76,WSW,248,0.7,1.3,56,0.00,,,0.00,WUHU216HW,2013-02-24 14:22:00,
2013-02-24 07:23:00,33.5,19.4,29.76,WSW,248,0.4,1.3,56,0.00,,,0.00,WUHU216HW,2013-02-24 14:23:00,
2013-02-24 07:24:00,33.8,19.7,29.76,SW,225,1.6,1.6,56,0.00,,,0.00,WUHU216HW,2013-02-24 14:24:00,
2013-02-24 07:25:00,34.2,20.5,29.76,SW,225,1.1,1.6,57,0.00,,,0.00,WUHU216HW,2013-02-24 14:25:00,
2013-02-24 07:26:00,34.6,20.9,29.77,SSW,203,1.1,1.6,57,0.00,,,0.00,WUHU216HW,2013-02-24 14:26:00,
2013-02-24 07:27:00,35.1,21.8,29.76,SSW,203,0.4,1.6,58,0.00,,,0.00,WUHU216HW,2013-02-24 14:27:00,
2013-02-24 07:28:00,35.6,22.3,29.77,SW,225,0.7,1.6,58,0.00,,,0.00,WUHU216HW,2013-02-24 14:28:00,
2013-02-24 07:29:00,36.2,22.9,29.77,SW,225,0.9,1.6,58,0.00,,,0.00,WUHU216HW,2013-02-24 14:29:00,
2013-02-24 07:30:00,36.5,22.8,29.77,SSW,203,0.4,1.6,57,0.00,,,0.00,WUHU216HW,2013-02-24 14:30:00,
2013-02-24 07:31:00,37.1,23.2,29.77,SSW,203,0.4,1.6,57,0.00,,,0.00,WUHU216HW,2013-02-24 14:31:00,
2013-02-24 07:32:00,37.8,23.4,29.77,South,180,0.4,1.6,56,0.00,,,0.00,WUHU216HW,2013-02-24 14:32:00,
2013-02-24 07:33:00,38.5,24.1,29.77,SSW,203,0.7,1.6,56,0.00,,,0.00,WUHU216HW,2013-02-24 14:33:00,
2013-02-24 07:34:00,39.1,24.1,29.77,SSW,203,0.7,1.6,55,0.00,,,0.00,WUHU216HW,2013-02-24 14:34:00,
2013-02-24 07:35:00,39.4,24.5,29.77,South,180,1.6,1.6,55,0.00,,,0.00,WUHU216HW,2013-02-24 14:35:00,
2013-02-24 07:36:00,40.1,24.8,29.77,SSW,203,2.0,2.0,54,0.00,,,0.00,WUHU216HW,2013-02-24 14:36:00,
2013-02-24 07:37:00,40.7,24.8,29.77,South,180,1.6,2.0,53,0.00,,,0.00,WUHU216HW,2013-02-24 14:37:00,
2013-02-24 07:38:00,41.0,24.7,29.76,SSW,203,1.3,2.7,52,0.00,,,0.00,WUHU216HW,2013-02-24 14:38:00,
2013-02-24 07:39:00,41.4,25.0,29.77,SW,225,1.6,2.7,52,0.00,,,0.00,WUHU216HW,2013-02-24 14:39:00,
2013-02-24 07:40:00,41.9,25.1,29.77,SW,225,1.1,2.7,51,0.00,,,0.00,WUHU216HW,2013-02-24 14:40:00,
2013-02-24 07:41:00,42.5,25.7,29.77,WSW,248,1.6,2.7,51,0.00,,,0.00,WUHU216HW,2013-02-24 14:41:00,
2013-02-24 07:42:00,42.8,26.0,29.77,WSW,248,1.1,2.7,51,0.00,,,0.00,WUHU216HW,2013-02-24 14:42:00,
2013-02-24 07:43:00,43.0,25.8,29.77,SW,225,1.3,2.7,50,0.00,,,0.00,WUHU216HW,2013-02-24 14:43:00,
2013-02-24 07:44:00,43.4,25.5,29.77,SW,225,2.0,2.7,49,0.00,,,0.00,WUHU216HW,2013-02-24 14:44:00,
2013-02-24 07:45:00,43.6,25.7,29.77,SW,225,2.0,2.7,49,0.00,,,0.00,WUHU216HW,2013-02-24 14:45:00,
2013-02-24 07:46:00,43.6,25.1,29.77,WSW,248,1.8,2.7,48,0.00,,,0.00,WUHU216HW,2013-02-24 14:46:00,
2013-02-24 07:47:00,43.7,25.3,29.77,SSW,203,1.8,2.7,48,0.00,,,0.00,WUHU216HW,2013-02-24 14:47:00,
2013-02-24 07:48:00,43.7,24.8,29.77,SW,225,1.1,2.5,47,0.00,,,0.00,WUHU216HW,2013-02-24 14:48:00,
2013-02-24 07:49:00,43.7,24.8,29.76,ESE,113,0.4,2.5,47,0.00,,,0.00,WUHU216HW,2013-02-24 14:49:00,
2013-02-24 07:50:00,43.6,24.6,29.76,ESE,113,1.1,2.5,47,0.00,,,0.00,WUHU216HW,2013-02-24 14:50:00,
2013-02-24 07:51:00,43.6,24.6,29.76,ESE,113,0.4,2.5,47,0.00,,,0.00,WUHU216HW,2013-02-24 14:51:00,
2013-02-24 07:52:00,43.6,24.0,29.76,ESE,113,0.2,2.5,46,0.00,,,0.00,WUHU216HW,2013-02-24 14:52:00,
2013-02-24 07:53:00,43.6,24.0,29.76,ESE,113,0.0,2.5,46,0.00,,,0.00,WUHU216HW,2013-02-24 14:53:00,
2013-02-24 07:54:00,43.6,24.0,29.76,ESE,113,0.0,2.5,46,0.00,,,0.00,WUHU216HW,2013-02-24 14:54:00,
2013-02-24 07:55:00,43.6,24.0,29.76,SE,135,0.0,2.5,46,0.00,,,0.00,WUHU216HW,2013-02-24 14:55:00,
2013-02-24 07:56:00,43.6,24.0,29.76,SE,135,0.4,2.5,46,0.00,,,0.00,WUHU216HW,2013-02-24 14:56:00,
2013-02-24 07:57:00,43.6,24.0,29.77,SW,225,1.1,2.5,46,0.00,,,0.00,WUHU216HW,2013-02-24 14:57:00,
2013-02-24 07:58:00,43.6,24.0,29.77,SW,225,2.7,2.7,46,0.00,,,0.00,WUHU216HW,2013-02-24 14:58:00,
2013-02-24 07:59:00,43.6,24.0,29.77,WSW,248,0.4,2.7,46,0.00,,,0.00,WUHU216HW,2013-02-24 14:59:00,
2013-02-24 08:00:00,43.6,24.0,29.77,SSW,203,0.7,2.7,46,0.00,,,0.00,WUHU216HW,2013-02-24 15:00:00,
2013-02-24 08:01:00,43.6,24.0,29.77,SSW,203,1.6,2.7,46,0.00,,,0.00,WUHU216HW,2013-02-24 15:01:00,
2013-02-24 08:02:00,43.6,24.6,29.77,South,180,0.4,2.7,47,0.00,,,0.00,WUHU216HW,2013-02-24 15:02:00,
2013-02-24 08:03:00,43.6,24.6,29.77,SSE,158,0.2,2.7,47,0.00,,,0.00,WUHU216HW,2013-02-24 15:03:00,
2013-02-24 08:04:00,43.6,24.6,29.77,South,180,1.8,2.7,47,0.00,,,0.00,WUHU216HW,2013-02-24 15:04:00,
2013-02-24 08:05:00,43.6,24.0,29.77,SSE,158,2.9,2.9,46,0.00,,,0.00,WUHU216HW,2013-02-24 15:05:00,
2013-02-24 08:06:00,43.6,24.0,29.77,SE,135,0.4,2.9,46,0.00,,,0.00,WUHU216HW,2013-02-24 15:06:00,
2013-02-24 08:07:00,43.7,24.2,29.77,ENE,68,0.4,2.9,46,0.00,,,0.00,WUHU216HW,2013-02-24 15:07:00,
2013-02-24 08:08:00,43.7,24.2,29.77,WNW,293,0.7,2.9,46,0.00,,,0.00,WUHU216HW,2013-02-24 15:08:00,
2013-02-24 08:09:00,43.9,24.4,29.77,SW,225,0.9,2.9,46,0.00,,,0.00,WUHU216HW,2013-02-24 15:09:00,
2013-02-24 08:10:00,44.1,24.6,29.77,SSW,203,0.0,2.9,46,0.00,,,0.00,WUHU216HW,2013-02-24 15:10:00,
2013-02-24 08:11:00,44.1,24.6,29.77,NNE,23,1.1,2.9,46,0.00,,,0.00,WUHU216HW,2013-02-24 15:11:00,
2013-02-24 08:12:00,44.3,24.7,29.77,NNE,23,1.8,2.9,46,0.00,,,0.00,WUHU216HW,2013-02-24 15:12:00,
2013-02-24 08:13:00,44.3,24.7,29.77,NNE,23,1.1,2.9,46,0.00,,,0.00,WUHU216HW,2013-02-24 15:13:00,
2013-02-24 08:14:00,44.3,24.7,29.77,North,0,1.1,2.9,46,0.00,,,0.00,WUHU216HW,2013-02-24 15:14:00,
2013-02-24 08:15:00,44.5,24.8,29.77,North,0,0.7,2.2,46,0.00,,,0.00,WUHU216HW,2013-02-24 15:15:00,
2013-02-24 08:16:00,44.5,24.8,29.77,NNW,338,0.7,1.8,46,0.00,,,0.00,WUHU216HW,2013-02-24 15:16:00,
2013-02-24 08:17:00,44.6,25.0,29.77,NNW,338,0.4,1.8,46,0.00,,,0.00,WUHU216HW,2013-02-24 15:17:00,
2013-02-24 08:18:00,44.6,25.0,29.77,NNW,338,0.0,1.8,46,0.00,,,0.00,WUHU216HW,2013-02-24 15:18:00,
2013-02-24 08:19:00,44.8,25.2,29.77,North,0,0.2,1.8,46,0.00,,,0.00,WUHU216HW,2013-02-24 15:19:00,
2013-02-24 08:20:00,45.0,25.4,29.77,NE,45,1.1,1.8,46,0.00,,,0.00,WUHU216HW,2013-02-24 15:20:00,
2013-02-24 08:21:00,45.0,25.4,29.77,NE,45,0.7,1.8,46,0.00,,,0.00,WUHU216HW,2013-02-24 15:21:00,
2013-02-24 08:22:00,45.2,25.5,29.77,NNE,23,0.4,1.8,46,0.00,,,0.00,WUHU216HW,2013-02-24 15:22:00,
2013-02-24 08:23:00,45.2,25.5,29.77,NNW,338,1.6,1.6,46,0.00,,,0.00,WUHU216HW,2013-02-24 15:23:00,
2013-02-24 08:24:00,45.4,25.1,29.77,North,0,0.7,1.6,45,0.00,,,0.00,WUHU216HW,2013-02-24 15:24:00,
2013-02-24 08:25:00,45.4,25.1,29.77,NNE,23,0.9,1.6,45,0.00,,,0.00,WUHU216HW,2013-02-24 15:25:00,
2013-02-24 08:26:00,45.4,25.1,29.77,NE,45,0.7,1.6,45,0.00,,,0.00,WUHU216HW,2013-02-24 15:26:00,
2013-02-24 08:27:00,45.5,25.3,29.77,NE,45,1.1,1.6,45,0.00,,,0.00,WUHU216HW,2013-02-24 15:27:00,
2013-02-24 08:28:00,45.5,25.3,29.77,NE,45,0.4,1.6,45,0.00,,,0.00,WUHU216HW,2013-02-24 15:28:00,
2013-02-24 08:29:00,45.7,25.5,29.77,NE,45,0.7,1.6,45,0.00,,,0.00,WUHU216HW,2013-02-24 15:29:00,
2013-02-24 08:30:00,45.7,25.5,29.77,NNE,23,1.1,1.8,45,0.00,,,0.00,WUHU216HW,2013-02-24 15:30:00,
2013-02-24 08:31:00,45.7,25.5,29.77,NNE,23,1.1,1.8,45,0.00,,,0.00,WUHU216HW,2013-02-24 15:31:00,
2013-02-24 08:32:00,45.7,25.5,29.77,NNE,23,0.2,1.8,45,0.00,,,0.00,WUHU216HW,2013-02-24 15:32:00,
2013-02-24 08:33:00,45.9,25.7,29.77,ENE,68,0.4,1.8,45,0.00,,,0.00,WUHU216HW,2013-02-24 15:33:00,
2013-02-24 08:34:00,45.9,25.7,29.77,ENE,68,0.4,1.8,45,0.00,,,0.00,WUHU216HW,2013-02-24 15:34:00,
2013-02-24 08:35:00,46.1,25.7,29.77,ENE,68,0.4,1.8,45,0.00,,,0.00,WUHU216HW,2013-02-24 15:35:00,
2013-02-24 08:36:00,46.3,25.9,29.77,ENE,68,0.7,1.8,45,0.00,,,0.00,WUHU216HW,2013-02-24 15:36:00,
2013-02-24 08:37:00,46.4,26.1,29.77,ENE,68,0.9,1.8,45,0.00,,,0.00,WUHU216HW,2013-02-24 15:37:00,
2013-02-24 08:38:00,46.4,26.1,29.77,NE,45,0.9,1.8,45,0.00,,,0.00,WUHU216HW,2013-02-24 15:38:00,
2013-02-24 08:39:00,46.6,26.3,29.77,NE,45,0.4,1.8,45,0.00,,,0.00,WUHU216HW,2013-02-24 15:39:00,
2013-02-24 08:40:00,46.8,26.5,29.77,East,90,1.1,1.8,45,0.00,,,0.00,WUHU216HW,2013-02-24 15:40:00,
2013-02-24 08:41:00,46.8,25.9,29.77,ESE,113,1.8,1.8,44,0.00,,,0.00,WUHU216HW,2013-02-24 15:41:00,
2013-02-24 08:42:00,47.0,26.0,29.77,ESE,113,0.4,1.8,44,0.00,,,0.00,WUHU216HW,2013-02-24 15:42:00,
2013-02-24 08:43:00,47.0,26.0,29.77,ESE,113,0.0,1.8,44,0.00,,,0.00,WUHU216HW,2013-02-24 15:43:00,
2013-02-24 08:44:00,47.2,26.2,29.77,ESE,113,0.0,1.8,44,0.00,,,0.00,WUHU216HW,2013-02-24 15:44:00,
2013-02-24 08:45:00,47.2,26.2,29.77,ENE,68,0.7,1.8,44,0.00,,,0.00,WUHU216HW,2013-02-24 15:45:00,
2013-02-24 08:46:00,47.5,26.6,29.77,ENE,68,0.7,1.8,44,0.00,,,0.00,WUHU216HW,2013-02-24 15:46:00,
2013-02-24 08:47:00,47.5,26.6,29.77,ENE,68,0.7,1.8,44,0.00,,,0.00,WUHU216HW,2013-02-24 15:47:00,
2013-02-24 08:48:00,47.9,26.8,29.77,East,90,0.4,1.8,44,0.00,,,0.00,WUHU216HW,2013-02-24 15:48:00,
2013-02-24 08:49:00,47.9,26.8,29.77,East,90,0.2,1.8,44,0.00,,,0.00,WUHU216HW,2013-02-24 15:49:00,
2013-02-24 08:50:00,48.1,27.0,29.77,East,90,0.4,1.8,44,0.00,,,0.00,WUHU216HW,2013-02-24 15:50:00,
2013-02-24 08:51:00,48.1,26.5,29.77,East,90,0.4,1.8,43,0.00,,,0.00,WUHU216HW,2013-02-24 15:51:00,
2013-02-24 08:52:00,48.4,26.8,29.77,East,90,0.0,1.1,43,0.00,,,0.00,WUHU216HW,2013-02-24 15:52:00,
2013-02-24 08:53:00,48.4,26.8,29.77,East,90,0.0,1.1,43,0.00,,,0.00,WUHU216HW,2013-02-24 15:53:00,
2013-02-24 08:54:00,48.6,27.0,29.77,East,90,0.0,1.1,43,0.00,,,0.00,WUHU216HW,2013-02-24 15:54:00,
2013-02-24 08:55:00,48.8,27.2,29.77,ESE,113,0.4,1.1,43,0.00,,,0.00,WUHU216HW,2013-02-24 15:55:00,
2013-02-24 08:56:00,48.8,26.7,29.77,SSW,203,1.3,1.3,42,0.00,,,0.00,WUHU216HW,2013-02-24 15:56:00,
2013-02-24 08:57:00,49.0,26.7,29.77,SSW,203,0.4,1.3,42,0.00,,,0.00,WUHU216HW,2013-02-24 15:57:00,
2013-02-24 08:58:00,49.1,26.9,29.77,SSE,158,0.0,1.3,42,0.00,,,0.00,WUHU216HW,2013-02-24 15:58:00,
2013-02-24 08:59:00,49.3,27.1,29.77,ESE,113,1.1,1.3,42,0.00,,,0.00,WUHU216HW,2013-02-24 15:59:00,
2013-02-24 09:00:00,49.3,27.1,29.77,ESE,113,0.7,1.3,42,0.00,,,0.00,WUHU216HW,2013-02-24 16:00:00,
2013-02-24 09:01:00,49.5,27.3,29.77,ESE,113,0.4,1.3,42,0.00,,,0.00,WUHU216HW,2013-02-24 16:01:00,
2013-02-24 09:02:00,49.7,26.9,29.77,ESE,113,0.9,1.3,41,0.00,,,0.00,WUHU216HW,2013-02-24 16:02:00,
2013-02-24 09:03:00,49.7,26.9,29.77,East,90,0.4,1.3,41,0.00,,,0.00,WUHU216HW,2013-02-24 16:03:00,
2013-02-24 09:04:00,49.7,26.9,29.77,East,90,0.4,1.3,41,0.00,,,0.00,WUHU216HW,2013-02-24 16:04:00,
2013-02-24 09:05:00,49.9,26.5,29.77,NNE,23,0.0,1.3,40,0.00,,,0.00,WUHU216HW,2013-02-24 16:05:00,
2013-02-24 09:06:00,49.9,26.5,29.77,WNW,293,0.4,1.3,40,0.00,,,0.00,WUHU216HW,2013-02-24 16:06:00,
2013-02-24 09:07:00,50.0,26.6,29.77,NW,315,0.4,1.1,40,0.00,,,0.00,WUHU216HW,2013-02-24 16:07:00,
2013-02-24 09:08:00,50.0,26.6,29.77,WSW,248,0.4,1.1,40,0.00,,,0.00,WUHU216HW,2013-02-24 16:08:00,
2013-02-24 09:09:00,50.0,27.2,29.77,SSW,203,0.2,1.1,41,0.00,,,0.00,WUHU216HW,2013-02-24 16:09:00,
2013-02-24 09:10:00,50.0,27.2,29.76,SSW,203,0.0,0.9,41,0.00,,,0.00,WUHU216HW,2013-02-24 16:10:00,
2013-02-24 09:11:00,50.2,27.4,29.77,SE,135,0.9,0.9,41,0.00,,,0.00,WUHU216HW,2013-02-24 16:11:00,
2013-02-24 09:12:00,50.4,27.6,29.76,SE,135,0.7,0.9,41,0.00,,,0.00,WUHU216HW,2013-02-24 16:12:00,
2013-02-24 09:13:00,50.4,27.6,29.76,SE,135,0.4,0.9,41,0.00,,,0.00,WUHU216HW,2013-02-24 16:13:00,
2013-02-24 09:14:00,50.6,27.7,29.76,SE,135,0.7,1.1,41,0.00,,,0.00,WUHU216HW,2013-02-24 16:14:00,
2013-02-24 09:15:00,50.8,27.3,29.76,South,180,1.1,1.1,40,0.00,,,0.00,WUHU216HW,2013-02-24 16:15:00,
2013-02-24 09:16:00,50.8,27.3,29.76,SE,135,2.0,2.5,40,0.00,,,0.00,WUHU216HW,2013-02-24 16:16:00,
2013-02-24 09:17:00,50.8,27.3,29.76,SSE,158,2.0,2.7,40,0.00,,,0.00,WUHU216HW,2013-02-24 16:17:00,
2013-02-24 09:18:00,50.9,27.5,29.76,SSE,158,0.4,2.7,40,0.00,,,0.00,WUHU216HW,2013-02-24 16:18:00,
2013-02-24 09:19:00,50.9,27.5,29.76,SE,135,0.4,2.7,40,0.00,,,0.00,WUHU216HW,2013-02-24 16:19:00,
2013-02-24 09:20:00,51.1,27.6,29.76,NNW,338,0.0,2.7,40,0.00,,,0.00,WUHU216HW,2013-02-24 16:20:00,
2013-02-24 09:21:00,51.1,26.9,29.76,SSE,158,0.9,2.7,39,0.00,,,0.00,WUHU216HW,2013-02-24 16:21:00,
2013-02-24 09:22:00,51.3,27.1,29.76,WSW,248,1.6,2.7,39,0.00,,,0.00,WUHU216HW,2013-02-24 16:22:00,
2013-02-24 09:23:00,51.5,27.3,29.76,SSW,203,2.2,2.7,39,0.00,,,0.00,WUHU216HW,2013-02-24 16:23:00,
2013-02-24 09:24:00,51.5,27.3,29.76,SW,225,1.8,2.7,39,0.00,,,0.00,WUHU216HW,2013-02-24 16:24:00,
2013-02-24 09:25:00,51.5,27.3,29.76,SW,225,3.1,3.1,39,0.00,,,0.00,WUHU216HW,2013-02-24 16:25:00,
2013-02-24 09:26:00,51.3,27.1,29.76,SW,225,1.6,3.1,39,0.00,,,0.00,WUHU216HW,2013-02-24 16:26:00,
2013-02-24 09:27:00,51.3,27.1,29.76,WSW,248,0.9,3.1,39,0.00,,,0.00,WUHU216HW,2013-02-24 16:27:00,
2013-02-24 09:28:00,51.3,26.4,29.76,WSW,248,1.8,3.4,38,0.00,,,0.00,WUHU216HW,2013-02-24 16:28:00,
2013-02-24 09:29:00,51.1,26.3,29.76,WSW,248,2.2,3.4,38,0.00,,,0.00,WUHU216HW,2013-02-24 16:29:00,
2013-02-24 09:30:00,51.1,26.3,29.76,WSW,248,3.1,3.4,38,0.00,,,0.00,WUHU216HW,2013-02-24 16:30:00,
2013-02-24 09:31:00,51.1,26.3,29.76,NW,315,1.6,3.4,38,0.00,,,0.00,WUHU216HW,2013-02-24 16:31:00,
2013-02-24 09:32:00,50.9,26.1,29.76,West,270,2.7,3.4,38,0.00,,,0.00,WUHU216HW,2013-02-24 16:32:00,
2013-02-24 09:33:00,50.9,26.1,29.76,SW,225,3.4,3.4,38,0.00,,,0.00,WUHU216HW,2013-02-24 16:33:00,
2013-02-24 09:34:00,51.1,25.6,29.76,NW,315,0.4,3.4,37,0.00,,,0.00,WUHU216HW,2013-02-24 16:34:00,
2013-02-24 09:35:00,51.1,26.3,29.76,SW,225,1.3,3.4,38,0.00,,,0.00,WUHU216HW,2013-02-24 16:35:00,
2013-02-24 09:36:00,51.1,26.3,29.76,SW,225,3.4,3.4,38,0.00,,,0.00,WUHU216HW,2013-02-24 16:36:00,
2013-02-24 09:37:00,51.3,26.4,29.76,SSE,158,2.7,3.4,38,0.00,,,0.00,WUHU216HW,2013-02-24 16:37:00,
2013-02-24 09:38:00,51.5,26.6,29.76,East,90,2.2,3.4,38,0.00,,,0.00,WUHU216HW,2013-02-24 16:38:00,
2013-02-24 09:39:00,51.5,26.6,29.76,ENE,68,3.1,3.4,38,0.00,,,0.00,WUHU216HW,2013-02-24 16:39:00,
2013-02-24 09:40:00,51.7,26.7,29.76,NNE,23,2.2,3.4,38,0.00,,,0.00,WUHU216HW,2013-02-24 16:40:00,
2013-02-24 09:41:00,51.8,26.2,29.76,ENE,68,0.4,3.4,37,0.00,,,0.00,WUHU216HW,2013-02-24 16:41:00,
2013-02-24 09:42:00,51.8,26.2,29.76,West,270,2.5,3.4,37,0.00,,,0.00,WUHU216HW,2013-02-24 16:42:00,
2013-02-24 09:43:00,51.8,26.2,29.76,North,0,0.9,3.4,37,0.00,,,0.00,WUHU216HW,2013-02-24 16:43:00,
2013-02-24 09:44:00,52.2,26.6,29.75,SSE,158,1.3,3.4,37,0.00,,,0.00,WUHU216HW,2013-02-24 16:44:00,
2013-02-24 09:45:00,52.2,26.6,29.75,South,180,1.8,3.4,37,0.00,,,0.00,WUHU216HW,2013-02-24 16:45:00,
2013-02-24 09:46:00,52.2,26.6,29.75,WSW,248,2.7,3.4,37,0.00,,,0.00,WUHU216HW,2013-02-24 16:46:00,
2013-02-24 09:47:00,52.4,26.7,29.76,SSW,203,5.4,5.4,37,0.00,,,0.00,WUHU216HW,2013-02-24 16:47:00,
2013-02-24 09:48:00,52.6,26.8,29.75,SW,225,1.6,5.4,37,0.00,,,0.00,WUHU216HW,2013-02-24 16:48:00,
2013-02-24 09:49:00,52.7,27.0,29.75,SSW,203,3.4,5.4,37,0.00,,,0.00,WUHU216HW,2013-02-24 16:49:00,
2013-02-24 09:50:00,52.7,26.4,29.75,SSW,203,8.9,8.9,36,0.00,,,0.00,WUHU216HW,2013-02-24 16:50:00,
2013-02-24 09:51:00,52.7,26.4,29.75,West,270,3.8,8.9,36,0.00,,,0.00,WUHU216HW,2013-02-24 16:51:00,
2013-02-24 09:52:00,52.9,26.5,29.75,NW,315,3.8,8.9,36,0.00,,,0.00,WUHU216HW,2013-02-24 16:52:00,
2013-02-24 09:53:00,52.9,25.1,29.75,NE,45,1.8,8.9,34,0.00,,,0.00,WUHU216HW,2013-02-24 16:53:00,
2013-02-24 09:54:00,52.9,25.8,29.75,NNE,23,1.3,8.9,35,0.00,,,0.00,WUHU216HW,2013-02-24 16:54:00,
2013-02-24 09:55:00,52.9,25.8,29.75,NNE,23,1.8,8.9,35,0.00,,,0.00,WUHU216HW,2013-02-24 16:55:00,
2013-02-24 09:56:00,52.9,26.5,29.75,WSW,248,2.9,8.9,36,0.00,,,0.00,WUHU216HW,2013-02-24 16:56:00,
2013-02-24 09:57:00,53.1,26.0,29.75,SW,225,2.7,8.9,35,0.00,,,0.00,WUHU216HW,2013-02-24 16:57:00,
2013-02-24 09:58:00,53.1,26.0,29.75,SW,225,6.3,8.9,35,0.00,,,0.00,WUHU216HW,2013-02-24 16:58:00,
2013-02-24 09:59:00,53.3,25.5,29.74,SW,225,1.6,8.9,34,0.00,,,0.00,WUHU216HW,2013-02-24 16:59:00,
2013-02-24 10:00:00,53.3,25.5,29.74,SW,225,1.1,8.9,34,0.00,,,0.00,WUHU216HW,2013-02-24 17:00:00,
2013-02-24 10:01:00,53.5,25.7,29.74,SSW,203,4.9,6.9,34,0.00,,,0.00,WUHU216HW,2013-02-24 17:01:00,
2013-02-24 10:02:00,53.6,25.7,29.74,SSW,203,6.5,9.4,34,0.00,,,0.00,WUHU216HW,2013-02-24 17:02:00,
2013-02-24 10:03:00,53.6,25.7,29.74,SW,225,7.2,9.4,34,0.00,,,0.00,WUHU216HW,2013-02-24 17:03:00,
2013-02-24 10:04:00,53.8,25.9,29.74,SSW,203,6.3,9.4,34,0.00,,,0.00,WUHU216HW,2013-02-24 17:04:00,
2013-02-24 10:05:00,54.0,26.1,29.74,West,270,4.0,9.4,34,0.00,,,0.00,WUHU216HW,2013-02-24 17:05:00,
2013-02-24 10:06:00,54.2,26.2,29.74,SSW,203,5.6,9.4,34,0.00,,,0.00,WUHU216HW,2013-02-24 17:06:00,
2013-02-24 10:07:00,54.2,26.2,29.74,South,180,3.4,9.4,34,0.00,,,0.00,WUHU216HW,2013-02-24 17:07:00,
2013-02-24 10:08:00,54.4,26.4,29.73,SSW,203,2.7,9.4,34,0.00,,,0.00,WUHU216HW,2013-02-24 17:08:00,
2013-02-24 10:09:00,54.4,25.7,29.73,SW,225,4.9,9.4,33,0.00,,,0.00,WUHU216HW,2013-02-24 17:09:00,
2013-02-24 10:10:00,54.5,25.8,29.73,SW,225,4.9,9.4,33,0.00,,,0.00,WUHU216HW,2013-02-24 17:10:00,
2013-02-24 10:11:00,54.5,25.8,29.74,WSW,248,6.9,9.4,33,0.00,,,0.00,WUHU216HW,2013-02-24 17:11:00,
2013-02-24 10:12:00,54.5,25.1,29.74,SSW,203,7.2,7.2,32,0.00,,,0.00,WUHU216HW,2013-02-24 17:12:00,
2013-02-24 10:13:00,54.5,25.8,29.74,SW,225,5.1,7.2,33,0.00,,,0.00,WUHU216HW,2013-02-24 17:13:00,
2013-02-24 10:14:00,54.5,25.8,29.73,SSW,203,3.4,7.2,33,0.00,,,0.00,WUHU216HW,2013-02-24 17:14:00,
2013-02-24 10:15:00,54.7,26.0,29.73,SSE,158,1.8,7.2,33,0.00,,,0.00,WUHU216HW,2013-02-24 17:15:00,
2013-02-24 10:16:00,54.9,26.1,29.73,SSW,203,2.9,7.2,33,0.00,,,0.00,WUHU216HW,2013-02-24 17:16:00,
2013-02-24 10:17:00,55.1,26.3,29.73,South,180,5.6,7.2,33,0.00,,,0.00,WUHU216HW,2013-02-24 17:17:00,
2013-02-24 10:18:00,55.1,26.3,29.73,WSW,248,6.0,8.5,33,0.00,,,0.00,WUHU216HW,2013-02-24 17:18:00,
2013-02-24 10:19:00,55.3,25.8,29.73,SW,225,3.4,8.5,32,0.00,,,0.00,WUHU216HW,2013-02-24 17:19:00,
2013-02-24 10:20:00,55.1,25.6,29.73,WNW,293,5.1,8.5,32,0.00,,,0.00,WUHU216HW,2013-02-24 17:20:00,
2013-02-24 10:21:00,55.3,25.8,29.73,West,270,1.1,8.5,32,0.00,,,0.00,WUHU216HW,2013-02-24 17:21:00,
2013-02-24 10:22:00,55.1,25.6,29.73,SW,225,2.0,8.5,32,0.00,,,0.00,WUHU216HW,2013-02-24 17:22:00,
2013-02-24 10:23:00,55.3,25.8,29.73,SSW,203,2.2,8.5,32,0.00,,,0.00,WUHU216HW,2013-02-24 17:23:00,
2013-02-24 10:24:00,55.3,25.8,29.72,SSW,203,1.8,8.5,32,0.00,,,0.00,WUHU216HW,2013-02-24 17:24:00,
2013-02-24 10:25:00,55.3,25.8,29.72,South,180,4.0,8.5,32,0.00,,,0.00,WUHU216HW,2013-02-24 17:25:00,
2013-02-24 10:26:00,55.4,25.9,29.72,SSW,203,5.8,8.5,32,0.00,,,0.00,WUHU216HW,2013-02-24 17:26:00,
2013-02-24 10:27:00,55.4,25.9,29.73,SW,225,6.9,8.5,32,0.00,,,0.00,WUHU216HW,2013-02-24 17:27:00,
2013-02-24 10:28:00,55.8,26.2,29.73,SW,225,3.8,8.5,32,0.00,,,0.00,WUHU216HW,2013-02-24 17:28:00,
2013-02-24 10:29:00,55.8,26.2,29.73,South,180,5.4,8.5,32,0.00,,,0.00,WUHU216HW,2013-02-24 17:29:00,
2013-02-24 10:30:00,56.0,26.4,29.73,South,180,9.8,9.8,32,0.00,,,0.00,WUHU216HW,2013-02-24 17:30:00,
2013-02-24 10:31:00,56.2,25.8,29.72,SSW,203,8.3,10.3,31,0.00,,,0.00,WUHU216HW,2013-02-24 17:31:00,
2013-02-24 10:32:00,56.2,25.8,29.72,SSW,203,9.2,12.5,31,0.00,,,0.00,WUHU216HW,2013-02-24 17:32:00,
2013-02-24 10:33:00,56.3,26.0,29.72,SW,225,9.8,12.5,31,0.00,,,0.00,WUHU216HW,2013-02-24 17:33:00,
2013-02-24 10:34:00,56.5,26.2,29.72,SSW,203,8.5,12.5,31,0.00,,,0.00,WUHU216HW,2013-02-24 17:34:00,
2013-02-24 10:35:00,56.5,25.5,29.72,SW,225,8.9,12.5,30,0.00,,,0.00,WUHU216HW,2013-02-24 17:35:00,
2013-02-24 10:36:00,56.5,25.5,29.72,WSW,248,7.6,12.5,30,0.00,,,0.00,WUHU216HW,2013-02-24 17:36:00,
2013-02-24 10:37:00,56.5,25.5,29.72,SSW,203,9.8,12.5,30,0.00,,,0.00,WUHU216HW,2013-02-24 17:37:00,
2013-02-24 10:38:00,56.7,25.7,29.72,South,180,8.3,12.5,30,0.00,,,0.00,WUHU216HW,2013-02-24 17:38:00,
2013-02-24 10:39:00,56.7,25.7,29.72,SW,225,4.7,12.5,30,0.00,,,0.00,WUHU216HW,2013-02-24 17:39:00,
2013-02-24 10:40:00,56.9,25.7,29.72,WSW,248,11.6,12.5,30,0.00,,,0.00,WUHU216HW,2013-02-24 17:40:00,
2013-02-24 10:41:00,56.9,23.9,29.72,SW,225,11.6,14.5,28,0.00,,,0.00,WUHU216HW,2013-02-24 17:41:00,
2013-02-24 10:42:00,56.7,22.8,29.72,SW,225,14.3,14.5,27,0.00,,,0.00,WUHU216HW,2013-02-24 17:42:00,
2013-02-24 10:43:00,56.7,22.8,29.72,SW,225,10.5,14.5,27,0.00,,,0.00,WUHU216HW,2013-02-24 17:43:00,
2013-02-24 10:44:00,56.5,22.6,29.72,WSW,248,9.4,14.5,27,0.00,,,0.00,WUHU216HW,2013-02-24 17:44:00,
2013-02-24 10:45:00,56.5,22.6,29.72,SSW,203,6.9,14.5,27,0.00,,,0.00,WUHU216HW,2013-02-24 17:45:00,
2013-02-24 10:46:00,56.3,22.4,29.72,SW,225,8.5,14.5,27,0.00,,,0.00,WUHU216HW,2013-02-24 17:46:00,
2013-02-24 10:47:00,56.3,23.4,29.72,SSW,203,8.3,14.5,28,0.00,,,0.00,WUHU216HW,2013-02-24 17:47:00,
2013-02-24 10:48:00,56.5,23.6,29.72,SW,225,10.3,14.5,28,0.00,,,0.00,WUHU216HW,2013-02-24 17:48:00,
2013-02-24 10:49:00,56.5,23.6,29.72,SW,225,4.7,14.5,28,0.00,,,0.00,WUHU216HW,2013-02-24 17:49:00,
2013-02-24 10:50:00,56.7,23.8,29.72,SW,225,7.2,14.5,28,0.00,,,0.00,WUHU216HW,2013-02-24 17:50:00,
2013-02-24 10:51:00,56.9,23.9,29.72,WSW,248,8.3,14.5,28,0.00,,,0.00,WUHU216HW,2013-02-24 17:51:00,
2013-02-24 10:52:00,56.9,23.9,29.71,SSW,203,4.9,14.3,28,0.00,,,0.00,WUHU216HW,2013-02-24 17:52:00,
2013-02-24 10:53:00,57.1,24.0,29.71,SW,225,9.6,12.3,28,0.00,,,0.00,WUHU216HW,2013-02-24 17:53:00,
2013-02-24 10:54:00,57.1,24.0,29.71,SSW,203,10.5,12.3,28,0.00,,,0.00,WUHU216HW,2013-02-24 17:54:00,
2013-02-24 10:55:00,57.2,24.2,29.71,SW,225,6.3,10.7,28,0.00,,,0.00,WUHU216HW,2013-02-24 17:55:00,
2013-02-24 10:56:00,57.4,24.4,29.71,SW,225,9.8,10.7,28,0.00,,,0.00,WUHU216HW,2013-02-24 17:56:00,
2013-02-24 10:57:00,57.6,24.5,29.71,SSW,203,5.4,10.5,28,0.00,,,0.00,WUHU216HW,2013-02-24 17:57:00,
2013-02-24 10:58:00,57.6,24.5,29.71,SSW,203,6.0,10.5,28,0.00,,,0.00,WUHU216HW,2013-02-24 17:58:00,
2013-02-24 10:59:00,57.8,24.7,29.71,SW,225,9.2,10.5,28,0.00,,,0.00,WUHU216HW,2013-02-24 17:59:00,
2013-02-24 11:00:00,58.0,24.9,29.71,SW,225,8.5,10.5,28,0.00,,,0.00,WUHU216HW,2013-02-24 18:00:00,
2013-02-24 11:01:00,57.8,23.7,29.71,SW,225,11.4,11.9,27,0.00,,,0.00,WUHU216HW,2013-02-24 18:01:00,
2013-02-24 11:02:00,57.8,22.8,29.71,South,180,6.0,11.9,26,0.00,,,0.00,WUHU216HW,2013-02-24 18:02:00,
2013-02-24 11:03:00,57.8,23.7,29.71,WSW,248,7.2,11.9,27,0.00,,,0.00,WUHU216HW,2013-02-24 18:03:00,
2013-02-24 11:04:00,57.6,23.6,29.71,SW,225,6.3,11.9,27,0.00,,,0.00,WUHU216HW,2013-02-24 18:04:00,
2013-02-24 11:05:00,57.8,23.7,29.71,SW,225,12.8,12.8,27,0.00,,,0.00,WUHU216HW,2013-02-24 18:05:00,
2013-02-24 11:06:00,57.8,23.7,29.71,SW,225,10.5,15.7,27,0.00,,,0.00,WUHU216HW,2013-02-24 18:06:00,
2013-02-24 11:07:00,57.8,23.7,29.71,SW,225,5.6,15.7,27,0.00,,,0.00,WUHU216HW,2013-02-24 18:07:00,
2013-02-24 11:08:00,57.8,23.7,29.71,SW,225,13.2,15.7,27,0.00,,,0.00,WUHU216HW,2013-02-24 18:08:00,
2013-02-24 11:09:00,57.8,23.7,29.71,WSW,248,11.9,15.7,27,0.00,,,0.00,WUHU216HW,2013-02-24 18:09:00,
2013-02-24 11:10:00,57.8,20.8,29.70,West,270,11.2,15.7,24,0.00,,,0.00,WUHU216HW,2013-02-24 18:10:00,
2013-02-24 11:11:00,57.8,21.8,29.70,SW,225,7.2,15.7,25,0.00,,,0.00,WUHU216HW,2013-02-24 18:11:00,
2013-02-24 11:12:00,57.8,21.8,29.70,WSW,248,10.5,15.7,25,0.00,,,0.00,WUHU216HW,2013-02-24 18:12:00,
2013-02-24 11:13:00,58.0,22.0,29.70,SSW,203,9.4,15.7,25,0.00,,,0.00,WUHU216HW,2013-02-24 18:13:00,
2013-02-24 11:14:00,58.0,22.9,29.70,SSW,203,6.9,15.7,26,0.00,,,0.00,WUHU216HW,2013-02-24 18:14:00,
2013-02-24 11:15:00,58.1,23.0,29.70,South,180,11.6,15.7,26,0.00,,,0.00,WUHU216HW,2013-02-24 18:15:00,
2013-02-24 11:16:00,58.3,22.2,29.70,SW,225,7.2,13.4,25,0.00,,,0.00,WUHU216HW,2013-02-24 18:16:00,
2013-02-24 11:17:00,58.5,22.4,29.69,SW,225,10.7,13.4,25,0.00,,,0.00,WUHU216HW,2013-02-24 18:17:00,
2013-02-24 11:18:00,58.5,21.4,29.69,SW,225,11.2,13.4,24,0.00,,,0.00,WUHU216HW,2013-02-24 18:18:00,
2013-02-24 11:19:00,58.5,21.4,29.69,SW,225,12.5,13.4,24,0.00,,,0.00,WUHU216HW,2013-02-24 18:19:00,
2013-02-24 11:20:00,58.5,20.4,29.69,SW,225,10.5,13.4,23,0.00,,,0.00,WUHU216HW,2013-02-24 18:20:00,
2013-02-24 11:21:00,58.7,21.6,29.69,WSW,248,13.9,13.9,24,0.00,,,0.00,WUHU216HW,2013-02-24 18:21:00,
2013-02-24 11:22:00,58.7,20.6,29.69,SSW,203,9.2,13.9,23,0.00,,,0.00,WUHU216HW,2013-02-24 18:22:00,
2013-02-24 11:23:00,58.7,21.6,29.69,SW,225,10.5,13.9,24,0.00,,,0.00,WUHU216HW,2013-02-24 18:23:00,
2013-02-24 11:24:00,58.9,21.8,29.69,SW,225,12.1,13.9,24,0.00,,,0.00,WUHU216HW,2013-02-24 18:24:00,
2013-02-24 11:25:00,59.0,20.0,29.69,West,270,14.3,14.3,22,0.00,,,0.00,WUHU216HW,2013-02-24 18:25:00,
2013-02-24 11:26:00,59.0,20.0,29.69,SSW,203,17.2,17.2,22,0.00,,,0.00,WUHU216HW,2013-02-24 18:26:00,
2013-02-24 11:27:00,59.0,20.9,29.69,SW,225,13.6,17.2,23,0.00,,,0.00,WUHU216HW,2013-02-24 18:27:00,
2013-02-24 11:28:00,59.4,21.3,29.69,SSE,158,8.5,17.2,23,0.00,,,0.00,WUHU216HW,2013-02-24 18:28:00,
2013-02-24 11:29:00,59.6,20.4,29.69,SW,225,13.4,17.4,22,0.00,,,0.00,WUHU216HW,2013-02-24 18:29:00,
2013-02-24 11:30:00,59.8,20.6,29.68,West,270,8.3,17.4,22,0.00,,,0.00,WUHU216HW,2013-02-24 18:30:00,
2013-02-24 11:31:00,59.9,21.7,29.68,SW,225,13.4,17.4,23,0.00,,,0.00,WUHU216HW,2013-02-24 18:31:00,
2013-02-24 11:32:00,60.1,20.9,29.68,SW,225,12.3,17.4,22,0.00,,,0.00,WUHU216HW,2013-02-24 18:32:00,
2013-02-24 11:33:00,60.3,20.1,29.68,SSW,203,12.8,21.5,21,0.00,,,0.00,WUHU216HW,2013-02-24 18:33:00,
2013-02-24 11:34:00,60.3,20.1,29.68,SSW,203,14.5,21.5,21,0.00,,,0.00,WUHU216HW,2013-02-24 18:34:00,
2013-02-24 11:35:00,60.5,20.3,29.68,West,270,14.8,21.5,21,0.00,,,0.00,WUHU216HW,2013-02-24 18:35:00,
2013-02-24 11:36:00,60.7,20.4,29.68,SSW,203,16.6,22.1,21,0.00,,,0.00,WUHU216HW,2013-02-24 18:36:00,
2013-02-24 11:37:00,60.8,20.6,29.68,SW,225,16.1,22.1,21,0.00,,,0.00,WUHU216HW,2013-02-24 18:37:00,
2013-02-24 11:38:00,60.8,20.6,29.67,SSW,203,13.4,22.1,21,0.00,,,0.00,WUHU216HW,2013-02-24 18:38:00,
2013-02-24 11:39:00,60.8,20.6,29.68,SW,225,17.9,22.1,21,0.00,,,0.00,WUHU216HW,2013-02-24 18:39:00,
2013-02-24 11:40:00,60.8,20.6,29.68,SW,225,17.4,22.6,21,0.00,,,0.00,WUHU216HW,2013-02-24 18:40:00,
2013-02-24 11:41:00,60.8,20.6,29.68,SW,225,15.0,22.6,21,0.00,,,0.00,WUHU216HW,2013-02-24 18:41:00,
2013-02-24 11:42:00,60.8,20.6,29.67,SW,225,20.4,23.3,21,0.00,,,0.00,WUHU216HW,2013-02-24 18:42:00,
2013-02-24 11:43:00,60.8,20.6,29.67,SW,225,20.8,23.3,21,0.00,,,0.00,WUHU216HW,2013-02-24 18:43:00,
2013-02-24 11:44:00,60.8,20.6,29.67,SSW,203,16.3,25.9,21,0.00,,,0.00,WUHU216HW,2013-02-24 18:44:00,
2013-02-24 11:45:00,60.8,20.6,29.67,West,270,18.1,25.9,21,0.00,,,0.00,WUHU216HW,2013-02-24 18:45:00,
2013-02-24 11:46:00,60.8,20.6,29.67,SW,225,21.0,25.9,21,0.00,,,0.00,WUHU216HW,2013-02-24 18:46:00,
2013-02-24 11:47:00,61.0,19.8,29.67,WSW,248,23.7,25.9,20,0.00,,,0.00,WUHU216HW,2013-02-24 18:47:00,
2013-02-24 11:48:00,61.0,20.7,29.67,SSW,203,17.9,25.9,21,0.00,,,0.00,WUHU216HW,2013-02-24 18:48:00,
2013-02-24 11:49:00,61.0,20.7,29.67,SW,225,17.4,25.9,21,0.00,,,0.00,WUHU216HW,2013-02-24 18:49:00,
2013-02-24 11:50:00,61.2,20.9,29.67,SSW,203,20.6,25.9,21,0.00,,,0.00,WUHU216HW,2013-02-24 18:50:00,
2013-02-24 11:51:00,61.4,18.5,29.67,SW,225,25.9,27.3,19,0.00,,,0.00,WUHU216HW,2013-02-24 18:51:00,
2013-02-24 11:52:00,61.4,18.5,29.67,SSW,203,17.9,27.5,19,0.00,,,0.00,WUHU216HW,2013-02-24 18:52:00,
2013-02-24 11:53:00,61.4,18.5,29.67,SW,225,14.5,27.5,19,0.00,,,0.00,WUHU216HW,2013-02-24 18:53:00,
2013-02-24 11:54:00,61.4,20.1,29.67,SW,225,21.5,27.5,20,0.00,,,0.00,WUHU216HW,2013-02-24 18:54:00,
2013-02-24 11:55:00,61.6,18.6,29.66,SSW,203,13.4,27.5,19,0.00,,,0.00,WUHU216HW,2013-02-24 18:55:00,
2013-02-24 11:56:00,61.6,18.6,29.66,SW,225,21.7,27.5,19,0.00,,,0.00,WUHU216HW,2013-02-24 18:56:00,
2013-02-24 11:57:00,61.6,18.6,29.66,SW,225,15.7,27.5,19,0.00,,,0.00,WUHU216HW,2013-02-24 18:57:00,
2013-02-24 11:58:00,61.6,18.6,29.66,SW,225,23.0,27.5,19,0.00,,,0.00,WUHU216HW,2013-02-24 18:58:00,
2013-02-24 11:59:00,61.4,18.5,29.67,SW,225,14.3,27.5,19,0.00,,,0.00,WUHU216HW,2013-02-24 18:59:00,
2013-02-24 12:00:00,61.4,18.5,29.66,WSW,248,19.9,27.5,19,0.00,,,0.00,WUHU216HW,2013-02-24 19:00:00,
2013-02-24 12:01:00,61.6,18.6,29.66,West,270,20.1,27.5,19,0.00,,,0.00,WUHU216HW,2013-02-24 19:01:00,
2013-02-24 12:02:00,61.6,18.6,29.66,WSW,248,11.2,23.0,19,0.00,,,0.00,WUHU216HW,2013-02-24 19:02:00,
2013-02-24 12:03:00,61.6,18.6,29.66,SW,225,15.9,23.0,19,0.00,,,0.00,WUHU216HW,2013-02-24 19:03:00,
2013-02-24 12:04:00,61.7,17.2,29.66,West,270,15.4,23.0,18,0.00,,,0.00,WUHU216HW,2013-02-24 19:04:00,
2013-02-24 12:05:00,61.7,17.2,29.66,WSW,248,16.3,23.0,18,0.00,,,0.00,WUHU216HW,2013-02-24 19:05:00,
2013-02-24 12:06:00,61.9,17.4,29.66,SW,225,21.3,24.4,18,0.00,,,0.00,WUHU216HW,2013-02-24 19:06:00,
2013-02-24 12:07:00,61.9,18.9,29.66,SW,225,13.4,24.4,19,0.00,,,0.00,WUHU216HW,2013-02-24 19:07:00,
2013-02-24 12:08:00,61.9,18.9,29.66,WSW,248,17.0,24.4,19,0.00,,,0.00,WUHU216HW,2013-02-24 19:08:00,
2013-02-24 12:09:00,62.1,17.5,29.66,WSW,248,22.4,24.4,18,0.00,,,0.00,WUHU216HW,2013-02-24 19:09:00,
2013-02-24 12:10:00,62.1,17.5,29.66,SW,225,15.7,24.4,18,0.00,,,0.00,WUHU216HW,2013-02-24 19:10:00,
2013-02-24 12:11:00,62.3,17.6,29.66,SSW,203,15.2,24.4,18,0.00,,,0.00,WUHU216HW,2013-02-24 19:11:00,
2013-02-24 12:12:00,62.3,19.2,29.66,SW,225,19.2,24.4,19,0.00,,,0.00,WUHU216HW,2013-02-24 19:12:00,
2013-02-24 12:13:00,62.5,19.4,29.66,South,180,21.5,24.4,19,0.00,,,0.00,WUHU216HW,2013-02-24 19:13:00,
2013-02-24 12:14:00,62.6,19.5,29.66,SW,225,23.5,24.4,19,0.00,,,0.00,WUHU216HW,2013-02-24 19:14:00,
2013-02-24 12:15:00,62.6,19.5,29.66,SW,225,16.6,24.4,19,0.00,,,0.00,WUHU216HW,2013-02-24 19:15:00,
2013-02-24 12:16:00,62.8,18.1,29.66,SW,225,25.3,25.3,18,0.00,,,0.00,WUHU216HW,2013-02-24 19:16:00,
2013-02-24 12:17:00,62.8,18.1,29.66,SW,225,21.5,25.3,18,0.00,,,0.00,WUHU216HW,2013-02-24 19:17:00,
2013-02-24 12:18:00,62.8,19.6,29.66,WSW,248,14.1,25.3,19,0.00,,,0.00,WUHU216HW,2013-02-24 19:18:00,
2013-02-24 12:19:00,62.8,18.1,29.66,SW,225,22.8,25.3,18,0.00,,,0.00,WUHU216HW,2013-02-24 19:19:00,
2013-02-24 12:20:00,62.8,18.1,29.66,SSW,203,20.1,25.3,18,0.00,,,0.00,WUHU216HW,2013-02-24 19:20:00,
2013-02-24 12:21:00,62.8,18.1,29.66,SSW,203,21.7,25.3,18,0.00,,,0.00,WUHU216HW,2013-02-24 19:21:00,
2013-02-24 12:22:00,63.0,18.2,29.65,SSW,203,15.7,25.3,18,0.00,,,0.00,WUHU216HW,2013-02-24 19:22:00,
2013-02-24 12:23:00,63.0,19.8,29.65,SW,225,14.1,25.3,19,0.00,,,0.00,WUHU216HW,2013-02-24 19:23:00,
2013-02-24 12:24:00,63.0,18.2,29.65,SW,225,22.1,25.3,18,0.00,,,0.00,WUHU216HW,2013-02-24 19:24:00,
2013-02-24 12:25:00,63.2,18.4,29.65,South,180,17.9,25.3,18,0.00,,,0.00,WUHU216HW,2013-02-24 19:25:00,
2013-02-24 12:26:00,63.4,20.1,29.64,SW,225,11.6,24.8,19,0.00,,,0.00,WUHU216HW,2013-02-24 19:26:00,
2013-02-24 12:27:00,63.4,18.5,29.65,WSW,248,20.1,24.8,18,0.00,,,0.00,WUHU216HW,2013-02-24 19:27:00,
2013-02-24 12:28:00,63.4,18.5,29.65,WSW,248,27.5,27.5,18,0.00,,,0.00,WUHU216HW,2013-02-24 19:28:00,
2013-02-24 12:29:00,63.4,16.9,29.65,SW,225,23.3,27.5,17,0.00,,,0.00,WUHU216HW,2013-02-24 19:29:00,
2013-02-24 12:30:00,63.2,18.4,29.65,SW,225,16.1,27.5,18,0.00,,,0.00,WUHU216HW,2013-02-24 19:30:00,
2013-02-24 12:31:00,63.2,16.7,29.65,SW,225,13.9,27.5,17,0.00,,,0.00,WUHU216HW,2013-02-24 19:31:00,
2013-02-24 12:32:00,63.0,18.2,29.65,SW,225,12.1,27.5,18,0.00,,,0.00,WUHU216HW,2013-02-24 19:32:00,
2013-02-24 12:33:00,63.0,16.7,29.65,SW,225,17.9,27.5,17,0.00,,,0.00,WUHU216HW,2013-02-24 19:33:00,
2013-02-24 12:34:00,62.8,18.1,29.64,SW,225,17.2,27.5,18,0.00,,,0.00,WUHU216HW,2013-02-24 19:34:00,
2013-02-24 12:35:00,62.8,18.1,29.64,WSW,248,20.1,27.5,18,0.00,,,0.00,WUHU216HW,2013-02-24 19:35:00,
2013-02-24 12:36:00,62.8,18.1,29.65,SW,225,12.1,27.5,18,0.00,,,0.00,WUHU216HW,2013-02-24 19:36:00,
2013-02-24 12:37:00,63.0,18.2,29.65,SW,225,18.8,27.5,18,0.00,,,0.00,WUHU216HW,2013-02-24 19:37:00,
2013-02-24 12:38:00,62.8,18.1,29.64,SW,225,14.5,27.5,18,0.00,,,0.00,WUHU216HW,2013-02-24 19:38:00,
2013-02-24 12:39:00,63.0,18.2,29.64,SW,225,13.4,23.5,18,0.00,,,0.00,WUHU216HW,2013-02-24 19:39:00,
2013-02-24 12:40:00,63.4,18.5,29.64,SW,225,14.8,23.5,18,0.00,,,0.00,WUHU216HW,2013-02-24 19:40:00,
2013-02-24 12:41:00,63.4,18.5,29.64,SSW,203,15.0,23.5,18,0.00,,,0.00,WUHU216HW,2013-02-24 19:41:00,
2013-02-24 12:42:00,63.5,18.6,29.64,SSW,203,14.5,27.1,18,0.00,,,0.00,WUHU216HW,2013-02-24 19:42:00,
2013-02-24 12:43:00,63.7,17.2,29.64,South,180,20.1,27.1,17,0.00,,,0.00,WUHU216HW,2013-02-24 19:43:00,
2013-02-24 12:44:00,63.7,17.2,29.64,SSW,203,22.1,27.1,17,0.00,,,0.00,WUHU216HW,2013-02-24 19:44:00,
2013-02-24 12:45:00,63.7,18.8,29.64,SW,225,15.0,27.1,18,0.00,,,0.00,WUHU216HW,2013-02-24 19:45:00,
2013-02-24 12:46:00,63.9,18.9,29.64,SSW,203,13.6,27.1,18,0.00,,,0.00,WUHU216HW,2013-02-24 19:46:00,
2013-02-24 12:47:00,63.9,17.4,29.64,WSW,248,21.9,27.1,17,0.00,,,0.00,WUHU216HW,2013-02-24 19:47:00,
2013-02-24 12:48:00,63.9,17.4,29.64,WSW,248,14.5,27.1,17,0.00,,,0.00,WUHU216HW,2013-02-24 19:48:00,
2013-02-24 12:49:00,63.9,17.4,29.64,SSW,203,25.9,27.1,17,0.00,,,0.00,WUHU216HW,2013-02-24 19:49:00,
2013-02-24 12:50:00,63.7,17.2,29.64,WSW,248,14.5,27.1,17,0.00,,,0.00,WUHU216HW,2013-02-24 19:50:00,
2013-02-24 12:51:00,63.9,17.4,29.64,SW,225,19.9,27.1,17,0.00,,,0.00,WUHU216HW,2013-02-24 19:51:00,
2013-02-24 12:52:00,63.9,17.4,29.64,SSW,203,22.6,26.4,17,0.00,,,0.00,WUHU216HW,2013-02-24 19:52:00,
2013-02-24 12:53:00,63.9,17.4,29.64,SW,225,21.3,26.4,17,0.00,,,0.00,WUHU216HW,2013-02-24 19:53:00,
2013-02-24 12:54:00,63.7,17.2,29.64,SSW,203,20.8,26.4,17,0.00,,,0.00,WUHU216HW,2013-02-24 19:54:00,
2013-02-24 12:55:00,63.7,17.2,29.64,WSW,248,16.3,26.4,17,0.00,,,0.00,WUHU216HW,2013-02-24 19:55:00,
2013-02-24 12:56:00,63.7,17.2,29.64,SW,225,20.1,26.4,17,0.00,,,0.00,WUHU216HW,2013-02-24 19:56:00,
2013-02-24 12:57:00,63.5,17.0,29.64,WSW,248,17.2,26.4,17,0.00,,,0.00,WUHU216HW,2013-02-24 19:57:00,
2013-02-24 12:58:00,63.5,17.0,29.64,WSW,248,13.4,25.9,17,0.00,,,0.00,WUHU216HW,2013-02-24 19:58:00,
2013-02-24 12:59:00,63.4,18.5,29.64,SW,225,15.7,24.4,18,0.00,,,0.00,WUHU216HW,2013-02-24 19:59:00,
2013-02-24 13:00:00,63.4,16.9,29.64,SSW,203,25.5,25.5,17,0.00,,,0.00,WUHU216HW,2013-02-24 20:00:00,
2013-02-24 13:01:00,63.4,16.9,29.63,South,180,17.7,25.5,17,0.00,,,0.00,WUHU216HW,2013-02-24 20:01:00,
2013-02-24 13:02:00,63.4,16.9,29.64,SW,225,25.5,28.4,17,0.00,,,0.00,WUHU216HW,2013-02-24 20:02:00,
2013-02-24 13:03:00,63.2,16.7,29.64,WSW,248,19.2,28.4,17,0.00,,,0.00,WUHU216HW,2013-02-24 20:03:00,
2013-02-24 13:04:00,63.2,18.4,29.64,West,270,13.9,28.4,18,0.00,,,0.00,WUHU216HW,2013-02-24 20:04:00,
2013-02-24 13:05:00,63.2,16.7,29.64,SW,225,21.5,28.4,17,0.00,,,0.00,WUHU216HW,2013-02-24 20:05:00,
2013-02-24 13:06:00,63.2,16.7,29.64,SW,225,20.8,28.4,17,0.00,,,0.00,WUHU216HW,2013-02-24 20:06:00,
2013-02-24 13:07:00,63.2,18.4,29.63,WSW,248,12.1,28.4,18,0.00,,,0.00,WUHU216HW,2013-02-24 20:07:00,
2013-02-24 13:08:00,63.2,18.4,29.64,WSW,248,22.8,28.4,18,0.00,,,0.00,WUHU216HW,2013-02-24 20:08:00,
2013-02-24 13:09:00,63.0,18.2,29.64,SW,225,17.7,28.4,18,0.00,,,0.00,WUHU216HW,2013-02-24 20:09:00,
2013-02-24 13:10:00,63.0,18.2,29.64,SW,225,21.3,28.4,18,0.00,,,0.00,WUHU216HW,2013-02-24 20:10:00,
2013-02-24 13:11:00,62.8,18.1,29.64,WSW,248,23.0,28.4,18,0.00,,,0.00,WUHU216HW,2013-02-24 20:11:00,
2013-02-24 13:12:00,62.6,17.9,29.64,WSW,248,16.1,25.5,18,0.00,,,0.00,WUHU216HW,2013-02-24 20:12:00,
2013-02-24 13:13:00,62.6,17.9,29.63,WSW,248,15.0,24.2,18,0.00,,,0.00,WUHU216HW,2013-02-24 20:13:00,
2013-02-24 13:14:00,62.5,17.8,29.63,West,270,17.0,24.2,18,0.00,,,0.00,WUHU216HW,2013-02-24 20:14:00,
2013-02-24 13:15:00,62.3,17.6,29.64,WSW,248,15.0,23.7,18,0.00,,,0.00,WUHU216HW,2013-02-24 20:15:00,
2013-02-24 13:16:00,62.3,17.6,29.63,WSW,248,12.8,23.7,18,0.00,,,0.00,WUHU216HW,2013-02-24 20:16:00,
2013-02-24 13:17:00,62.5,17.8,29.63,West,270,14.5,23.7,18,0.00,,,0.00,WUHU216HW,2013-02-24 20:17:00,
2013-02-24 13:18:00,62.5,17.8,29.63,WSW,248,20.1,23.7,18,0.00,,,0.00,WUHU216HW,2013-02-24 20:18:00,
2013-02-24 13:19:00,62.5,17.8,29.63,SW,225,17.0,23.7,18,0.00,,,0.00,WUHU216HW,2013-02-24 20:19:00,
2013-02-24 13:20:00,62.3,17.6,29.64,West,270,14.1,23.7,18,0.00,,,0.00,WUHU216HW,2013-02-24 20:20:00,
2013-02-24 13:21:00,62.3,17.6,29.63,SSW,203,15.7,23.0,18,0.00,,,0.00,WUHU216HW,2013-02-24 20:21:00,
2013-02-24 13:22:00,62.1,17.5,29.63,SW,225,14.3,20.4,18,0.00,,,0.00,WUHU216HW,2013-02-24 20:22:00,
2013-02-24 13:23:00,61.9,18.9,29.64,WSW,248,13.2,20.4,19,0.00,,,0.00,WUHU216HW,2013-02-24 20:23:00,
2013-02-24 13:24:00,61.9,18.9,29.64,SW,225,10.1,20.4,19,0.00,,,0.00,WUHU216HW,2013-02-24 20:24:00,
2013-02-24 13:25:00,61.9,18.9,29.63,SW,225,17.2,20.4,19,0.00,,,0.00,WUHU216HW,2013-02-24 20:25:00,
2013-02-24 13:26:00,61.9,18.9,29.63,WSW,248,11.2,20.4,19,0.00,,,0.00,WUHU216HW,2013-02-24 20:26:00,
2013-02-24 13:27:00,61.9,18.9,29.63,SSW,203,16.8,20.4,19,0.00,,,0.00,WUHU216HW,2013-02-24 20:27:00,
2013-02-24 13:28:00,61.7,18.8,29.63,SW,225,18.8,20.4,19,0.00,,,0.00,WUHU216HW,2013-02-24 20:28:00,
2013-02-24 13:29:00,61.6,18.6,29.63,SW,225,20.1,23.3,19,0.00,,,0.00,WUHU216HW,2013-02-24 20:29:00,
2013-02-24 13:30:00,61.6,18.6,29.63,SSW,203,15.9,23.3,19,0.00,,,0.00,WUHU216HW,2013-02-24 20:30:00,
2013-02-24 13:31:00,61.4,18.5,29.63,WSW,248,22.4,23.3,19,0.00,,,0.00,WUHU216HW,2013-02-24 20:31:00,
2013-02-24 13:32:00,61.4,18.5,29.63,West,270,22.4,23.3,19,0.00,,,0.00,WUHU216HW,2013-02-24 20:32:00,
2013-02-24 13:33:00,61.4,18.5,29.63,WSW,248,13.6,25.1,19,0.00,,,0.00,WUHU216HW,2013-02-24 20:33:00,
2013-02-24 13:34:00,61.4,18.5,29.63,SW,225,19.2,25.1,19,0.00,,,0.00,WUHU216HW,2013-02-24 20:34:00,
2013-02-24 13:35:00,61.4,18.5,29.63,WSW,248,21.5,25.1,19,0.00,,,0.00,WUHU216HW,2013-02-24 20:35:00,
2013-02-24 13:36:00,61.4,18.5,29.63,West,270,16.8,25.1,19,0.00,,,0.00,WUHU216HW,2013-02-24 20:36:00,
2013-02-24 13:37:00,61.2,18.4,29.63,WNW,293,12.1,25.1,19,0.00,,,0.00,WUHU216HW,2013-02-24 20:37:00,
2013-02-24 13:38:00,61.2,20.9,29.63,NNW,338,12.5,25.1,21,0.00,,,0.00,WUHU216HW,2013-02-24 20:38:00,
2013-02-24 13:39:00,61.0,20.7,29.63,NW,315,18.1,25.1,21,0.00,,,0.00,WUHU216HW,2013-02-24 20:39:00,
2013-02-24 13:40:00,60.7,20.4,29.63,NNW,338,12.3,25.1,21,0.00,,,0.00,WUHU216HW,2013-02-24 20:40:00,
2013-02-24 13:41:00,60.5,20.3,29.63,WSW,248,19.2,25.1,21,0.00,,,0.00,WUHU216HW,2013-02-24 20:41:00,
2013-02-24 13:42:00,60.1,19.9,29.64,WNW,293,19.9,25.1,21,0.00,,,0.00,WUHU216HW,2013-02-24 20:42:00,
2013-02-24 13:43:00,59.6,19.4,29.64,West,270,12.1,22.4,21,0.00,,,0.00,WUHU216HW,2013-02-24 20:43:00,
2013-02-24 13:44:00,59.4,20.3,29.64,West,270,9.4,22.4,22,0.00,,,0.00,WUHU216HW,2013-02-24 20:44:00,
2013-02-24 13:45:00,59.2,20.1,29.63,WNW,293,19.7,22.4,22,0.00,,,0.00,WUHU216HW,2013-02-24 20:45:00,
2013-02-24 13:46:00,58.9,19.8,29.64,WNW,293,17.7,23.0,22,0.00,,,0.00,WUHU216HW,2013-02-24 20:46:00,
2013-02-24 13:47:00,58.7,19.6,29.64,NNW,338,15.0,23.0,22,0.00,,,0.00,WUHU216HW,2013-02-24 20:47:00,
2013-02-24 13:48:00,58.7,19.6,29.64,West,270,8.5,23.0,22,0.00,,,0.00,WUHU216HW,2013-02-24 20:48:00,
2013-02-24 13:49:00,58.7,19.6,29.64,WSW,248,22.8,23.0,22,0.00,,,0.00,WUHU216HW,2013-02-24 20:49:00,
2013-02-24 13:50:00,58.7,19.6,29.64,West,270,15.9,25.1,22,0.00,,,0.00,WUHU216HW,2013-02-24 20:50:00,
2013-02-24 13:51:00,58.5,20.4,29.64,WSW,248,16.3,25.1,23,0.00,,,0.00,WUHU216HW,2013-02-24 20:51:00,
2013-02-24 13:52:00,58.5,20.4,29.64,WSW,248,18.6,25.1,23,0.00,,,0.00,WUHU216HW,2013-02-24 20:52:00,
2013-02-24 13:53:00,58.3,20.4,29.64,West,270,11.9,25.1,23,0.00,,,0.00,WUHU216HW,2013-02-24 20:53:00,
2013-02-24 13:54:00,58.3,20.4,29.64,WNW,293,13.9,25.1,23,0.00,,,0.00,WUHU216HW,2013-02-24 20:54:00,
2013-02-24 13:55:00,58.3,20.4,29.64,West,270,17.2,25.1,23,0.00,,,0.00,WUHU216HW,2013-02-24 20:55:00,
2013-02-24 13:56:00,58.1,20.2,29.64,West,270,9.8,25.1,23,0.00,,,0.00,WUHU216HW,2013-02-24 20:56:00,
2013-02-24 13:57:00,58.0,20.0,29.64,NW,315,11.4,25.1,23,0.00,,,0.00,WUHU216HW,2013-02-24 20:57:00,
2013-02-24 13:58:00,58.0,21.0,29.64,WSW,248,12.3,25.1,24,0.00,,,0.00,WUHU216HW,2013-02-24 20:58:00,
2013-02-24 13:59:00,57.8,20.8,29.64,West,270,11.4,25.1,24,0.00,,,0.00,WUHU216HW,2013-02-24 20:59:00,
2013-02-24 14:00:00,57.8,20.8,29.64,WSW,248,18.3,18.6,24,0.00,,,0.00,WUHU216HW,2013-02-24 21:00:00,
2013-02-24 14:01:00,57.6,20.7,29.64,WSW,248,18.6,18.6,24,0.00,,,0.00,WUHU216HW,2013-02-24 21:01:00,
2013-02-24 14:02:00,57.6,20.7,29.64,WSW,248,12.3,18.6,24,0.00,,,0.00,WUHU216HW,2013-02-24 21:02:00,
2013-02-24 14:03:00,57.4,22.4,29.65,WNW,293,14.1,18.6,26,0.00,,,0.00,WUHU216HW,2013-02-24 21:03:00,
2013-02-24 14:04:00,57.2,23.2,29.65,North,0,10.7,18.6,27,0.00,,,0.00,WUHU216HW,2013-02-24 21:04:00,
2013-02-24 14:05:00,57.2,23.2,29.65,North,0,12.1,18.6,27,0.00,,,0.00,WUHU216HW,2013-02-24 21:05:00,
2013-02-24 14:06:00,57.2,23.2,29.65,WNW,293,6.7,18.6,27,0.00,,,0.00,WUHU216HW,2013-02-24 21:06:00,
2013-02-24 14:07:00,57.1,24.0,29.65,NW,315,8.3,18.6,28,0.00,,,0.00,WUHU216HW,2013-02-24 21:07:00,
2013-02-24 14:08:00,57.1,24.0,29.65,WNW,293,11.9,18.6,28,0.00,,,0.00,WUHU216HW,2013-02-24 21:08:00,
2013-02-24 14:09:00,56.9,24.9,29.65,WNW,293,9.6,18.6,29,0.00,,,0.00,WUHU216HW,2013-02-24 21:09:00,
2013-02-24 14:10:00,56.7,24.7,29.65,NNW,338,8.3,18.6,29,0.00,,,0.00,WUHU216HW,2013-02-24 21:10:00,
2013-02-24 14:11:00,56.7,25.7,29.65,WNW,293,11.0,18.6,30,0.00,,,0.00,WUHU216HW,2013-02-24 21:11:00,
2013-02-24 14:12:00,56.5,24.5,29.65,WNW,293,9.2,16.8,29,0.00,,,0.00,WUHU216HW,2013-02-24 21:12:00,
2013-02-24 14:13:00,56.5,25.5,29.65,WNW,293,13.0,16.8,30,0.00,,,0.00,WUHU216HW,2013-02-24 21:13:00,
2013-02-24 14:14:00,56.3,25.3,29.66,NNW,338,14.3,16.8,30,0.00,,,0.00,WUHU216HW,2013-02-24 21:14:00,
2013-02-24 14:15:00,56.0,24.9,29.65,NW,315,12.3,16.8,30,0.00,,,0.00,WUHU216HW,2013-02-24 21:15:00,
2013-02-24 14:16:00,56.0,24.9,29.66,NNW,338,11.4,16.8,30,0.00,,,0.00,WUHU216HW,2013-02-24 21:16:00,
2013-02-24 14:17:00,55.8,25.5,29.66,WSW,248,11.9,16.8,31,0.00,,,0.00,WUHU216HW,2013-02-24 21:17:00,
2013-02-24 14:18:00,55.8,25.5,29.65,West,270,9.8,16.8,31,0.00,,,0.00,WUHU216HW,2013-02-24 21:18:00,
2013-02-24 14:19:00,55.6,25.4,29.65,WSW,248,9.6,16.8,31,0.00,,,0.00,WUHU216HW,2013-02-24 21:19:00,
2013-02-24 14:20:00,55.6,25.4,29.65,West,270,9.8,16.8,31,0.00,,,0.00,WUHU216HW,2013-02-24 21:20:00,
2013-02-24 14:21:00,55.6,25.4,29.66,NW,315,8.5,14.3,31,0.00,,,0.00,WUHU216HW,2013-02-24 21:21:00,
2013-02-24 14:22:00,55.6,25.4,29.66,WNW,293,11.0,14.3,31,0.00,,,0.00,WUHU216HW,2013-02-24 21:22:00,
2013-02-24 14:23:00,55.6,25.4,29.66,West,270,11.4,14.3,31,0.00,,,0.00,WUHU216HW,2013-02-24 21:23:00,
2013-02-24 14:24:00,55.4,25.2,29.66,West,270,10.3,14.3,31,0.00,,,0.00,WUHU216HW,2013-02-24 21:24:00,
2013-02-24 14:25:00,55.4,25.2,29.66,WSW,248,8.9,13.4,31,0.00,,,0.00,WUHU216HW,2013-02-24 21:25:00,
2013-02-24 14:26:00,55.4,25.2,29.66,WNW,293,11.0,13.4,31,0.00,,,0.00,WUHU216HW,2013-02-24 21:26:00,
2013-02-24 14:27:00,55.4,25.2,29.66,West,270,17.9,17.9,31,0.00,,,0.00,WUHU216HW,2013-02-24 21:27:00,
2013-02-24 14:28:00,55.3,25.0,29.66,NW,315,9.4,17.9,31,0.00,,,0.00,WUHU216HW,2013-02-24 21:28:00,
2013-02-24 14:29:00,55.3,25.0,29.66,NW,315,5.4,17.9,31,0.00,,,0.00,WUHU216HW,2013-02-24 21:29:00,
2013-02-24 14:30:00,55.1,24.9,29.66,NNW,338,15.2,17.9,31,0.00,,,0.00,WUHU216HW,2013-02-24 21:30:00,
2013-02-24 14:31:00,55.1,24.9,29.66,WNW,293,12.1,17.9,31,0.00,,,0.00,WUHU216HW,2013-02-24 21:31:00,
2013-02-24 14:32:00,55.1,24.9,29.66,NNW,338,12.1,17.9,31,0.00,,,0.00,WUHU216HW,2013-02-24 21:32:00,
2013-02-24 14:33:00,55.1,24.9,29.66,NW,315,15.0,17.9,31,0.00,,,0.00,WUHU216HW,2013-02-24 21:33:00,
2013-02-24 14:34:00,54.9,24.8,29.66,NW,315,13.4,17.9,31,0.00,,,0.00,WUHU216HW,2013-02-24 21:34:00,
2013-02-24 14:35:00,54.7,24.6,29.66,WNW,293,5.8,17.9,31,0.00,,,0.00,WUHU216HW,2013-02-24 21:35:00,
2013-02-24 14:36:00,54.7,24.6,29.65,WSW,248,8.5,17.9,31,0.00,,,0.00,WUHU216HW,2013-02-24 21:36:00,
2013-02-24 14:37:00,54.7,24.6,29.65,WNW,293,12.1,15.2,31,0.00,,,0.00,WUHU216HW,2013-02-24 21:37:00,
2013-02-24 14:38:00,54.7,24.6,29.65,NW,315,11.6,15.2,31,0.00,,,0.00,WUHU216HW,2013-02-24 21:38:00,
2013-02-24 14:39:00,54.7,24.6,29.65,West,270,8.5,15.2,31,0.00,,,0.00,WUHU216HW,2013-02-24 21:39:00,
2013-02-24 14:40:00,54.7,24.6,29.65,WNW,293,10.7,15.2,31,0.00,,,0.00,WUHU216HW,2013-02-24 21:40:00,
2013-02-24 14:41:00,54.9,24.8,29.65,West,270,8.5,15.2,31,0.00,,,0.00,WUHU216HW,2013-02-24 21:41:00,
2013-02-24 14:42:00,55.1,24.9,29.65,WSW,248,15.9,15.9,31,0.00,,,0.00,WUHU216HW,2013-02-24 21:42:00,
2013-02-24 14:43:00,55.1,24.9,29.65,WNW,293,12.8,15.9,31,0.00,,,0.00,WUHU216HW,2013-02-24 21:43:00,
2013-02-24 14:44:00,55.4,24.5,29.65,West,270,13.6,17.0,30,0.00,,,0.00,WUHU216HW,2013-02-24 21:44:00,
2013-02-24 14:45:00,55.6,23.7,29.65,WSW,248,19.5,19.5,29,0.00,,,0.00,WUHU216HW,2013-02-24 21:45:00,
2013-02-24 14:46:00,55.6,23.7,29.65,SW,225,15.2,22.4,29,0.00,,,0.00,WUHU216HW,2013-02-24 21:46:00,
2013-02-24 14:47:00,55.6,23.7,29.65,West,270,6.7,22.4,29,0.00,,,0.00,WUHU216HW,2013-02-24 21:47:00,
2013-02-24 14:48:00,55.8,23.0,29.65,West,270,16.3,22.4,28,0.00,,,0.00,WUHU216HW,2013-02-24 21:48:00,
2013-02-24 14:49:00,55.8,23.0,29.65,WSW,248,11.9,22.4,28,0.00,,,0.00,WUHU216HW,2013-02-24 21:49:00,
2013-02-24 14:50:00,55.8,23.0,29.66,WSW,248,10.7,22.4,28,0.00,,,0.00,WUHU216HW,2013-02-24 21:50:00,
2013-02-24 14:51:00,56.0,23.0,29.66,WNW,293,16.3,22.4,28,0.00,,,0.00,WUHU216HW,2013-02-24 21:51:00,
2013-02-24 14:52:00,56.0,23.0,29.66,WNW,293,14.1,22.4,28,0.00,,,0.00,WUHU216HW,2013-02-24 21:52:00,
2013-02-24 14:53:00,55.8,22.0,29.66,WSW,248,14.1,22.4,27,0.00,,,0.00,WUHU216HW,2013-02-24 21:53:00,
2013-02-24 14:54:00,55.8,22.0,29.66,West,270,12.1,22.4,27,0.00,,,0.00,WUHU216HW,2013-02-24 21:54:00,
2013-02-24 14:55:00,55.6,20.0,29.66,West,270,13.9,22.4,25,0.00,,,0.00,WUHU216HW,2013-02-24 21:55:00,
2013-02-24 14:56:00,55.6,20.0,29.66,NW,315,15.7,19.2,25,0.00,,,0.00,WUHU216HW,2013-02-24 21:56:00,
2013-02-24 14:57:00,55.6,20.0,29.66,West,270,16.3,19.7,25,0.00,,,0.00,WUHU216HW,2013-02-24 21:57:00,
2013-02-24 14:58:00,55.4,18.9,29.66,WSW,248,11.4,19.9,24,0.00,,,0.00,WUHU216HW,2013-02-24 21:58:00,
2013-02-24 14:59:00,55.3,18.7,29.66,WSW,248,14.8,21.0,24,0.00,,,0.00,WUHU216HW,2013-02-24 21:59:00,
2013-02-24 15:00:00,55.1,17.7,29.66,WNW,293,16.3,23.0,23,0.00,,,0.00,WUHU216HW,2013-02-24 22:00:00,
2013-02-24 15:01:00,54.9,18.4,29.66,WNW,293,11.6,23.0,24,0.00,,,0.00,WUHU216HW,2013-02-24 22:01:00,
2013-02-24 15:02:00,54.7,18.3,29.66,SW,225,13.2,23.0,24,0.00,,,0.00,WUHU216HW,2013-02-24 22:02:00,
2013-02-24 15:03:00,54.7,17.3,29.66,WSW,248,17.0,23.0,23,0.00,,,0.00,WUHU216HW,2013-02-24 22:03:00,
2013-02-24 15:04:00,54.7,17.3,29.66,West,270,15.0,23.0,23,0.00,,,0.00,WUHU216HW,2013-02-24 22:04:00,
2013-02-24 15:05:00,54.7,17.3,29.66,WSW,248,18.6,23.0,23,0.00,,,0.00,WUHU216HW,2013-02-24 22:05:00,
2013-02-24 15:06:00,54.5,17.1,29.66,WSW,248,8.3,23.0,23,0.00,,,0.00,WUHU216HW,2013-02-24 22:06:00,
2013-02-24 15:07:00,54.7,17.3,29.66,WSW,248,17.9,23.0,23,0.00,,,0.00,WUHU216HW,2013-02-24 22:07:00,
2013-02-24 15:08:00,54.7,17.3,29.66,WSW,248,12.1,23.0,23,0.00,,,0.00,WUHU216HW,2013-02-24 22:08:00,
2013-02-24 15:09:00,54.7,17.3,29.66,NW,315,14.3,23.0,23,0.00,,,0.00,WUHU216HW,2013-02-24 22:09:00,
2013-02-24 15:10:00,54.5,17.1,29.66,WSW,248,15.7,22.6,23,0.00,,,0.00,WUHU216HW,2013-02-24 22:10:00,
2013-02-24 15:11:00,54.4,17.0,29.67,WSW,248,16.3,22.6,23,0.00,,,0.00,WUHU216HW,2013-02-24 22:11:00,
2013-02-24 15:12:00,54.2,17.8,29.67,WNW,293,13.0,22.6,24,0.00,,,0.00,WUHU216HW,2013-02-24 22:12:00,
2013-02-24 15:13:00,54.0,16.7,29.67,West,270,17.2,22.6,23,0.00,,,0.00,WUHU216HW,2013-02-24 22:13:00,
2013-02-24 15:14:00,53.8,17.5,29.67,WNW,293,18.6,22.6,24,0.00,,,0.00,WUHU216HW,2013-02-24 22:14:00,
2013-02-24 15:15:00,53.6,18.3,29.67,South,180,11.6,21.3,25,0.00,,,0.00,WUHU216HW,2013-02-24 22:15:00,
2013-02-24 15:16:00,53.6,19.3,29.67,West,270,11.2,21.3,26,0.00,,,0.00,WUHU216HW,2013-02-24 22:16:00,
2013-02-24 15:17:00,53.6,21.2,29.67,North,0,10.5,20.8,28,0.00,,,0.00,WUHU216HW,2013-02-24 22:17:00,
2013-02-24 15:18:00,53.6,22.1,29.67,West,270,22.6,22.6,29,0.00,,,0.00,WUHU216HW,2013-02-24 22:18:00,
2013-02-24 15:19:00,53.3,21.8,29.67,West,270,12.8,22.6,29,0.00,,,0.00,WUHU216HW,2013-02-24 22:19:00,
2013-02-24 15:20:00,53.1,22.6,29.67,NW,315,13.9,24.6,30,0.00,,,0.00,WUHU216HW,2013-02-24 22:20:00,
2013-02-24 15:21:00,52.9,22.4,29.67,NW,315,16.1,24.6,30,0.00,,,0.00,WUHU216HW,2013-02-24 22:21:00,
2013-02-24 15:22:00,52.6,22.8,29.67,NNW,338,13.0,24.6,31,0.00,,,0.00,WUHU216HW,2013-02-24 22:22:00,
2013-02-24 15:23:00,52.2,22.4,29.68,NNW,338,11.0,24.6,31,0.00,,,0.00,WUHU216HW,2013-02-24 22:23:00,
2013-02-24 15:24:00,52.2,22.4,29.68,WNW,293,19.2,24.6,31,0.00,,,0.00,WUHU216HW,2013-02-24 22:24:00,
2013-02-24 15:25:00,51.8,22.8,29.68,NW,315,16.6,24.6,32,0.00,,,0.00,WUHU216HW,2013-02-24 22:25:00,
2013-02-24 15:26:00,51.7,22.6,29.68,NW,315,11.9,24.6,32,0.00,,,0.00,WUHU216HW,2013-02-24 22:26:00,
2013-02-24 15:27:00,51.3,22.3,29.68,SW,225,19.9,24.6,32,0.00,,,0.00,WUHU216HW,2013-02-24 22:27:00,
2013-02-24 15:28:00,51.1,22.1,29.68,West,270,14.1,24.6,32,0.00,,,0.00,WUHU216HW,2013-02-24 22:28:00,
2013-02-24 15:29:00,50.9,22.0,29.68,West,270,9.2,24.6,32,0.00,,,0.00,WUHU216HW,2013-02-24 22:29:00,
2013-02-24 15:30:00,50.8,21.8,29.68,WNW,293,15.7,20.1,32,0.00,,,0.00,WUHU216HW,2013-02-24 22:30:00,
2013-02-24 15:31:00,50.6,21.0,29.69,NW,315,10.3,20.1,31,0.00,,,0.00,WUHU216HW,2013-02-24 22:31:00,
2013-02-24 15:32:00,50.6,21.0,29.69,WNW,293,13.4,20.1,31,0.00,,,0.00,WUHU216HW,2013-02-24 22:32:00,
2013-02-24 15:33:00,50.6,21.0,29.69,WSW,248,13.4,20.1,31,0.00,,,0.00,WUHU216HW,2013-02-24 22:33:00,
2013-02-24 15:34:00,50.8,21.2,29.69,WNW,293,10.3,20.1,31,0.00,,,0.00,WUHU216HW,2013-02-24 22:34:00,
2013-02-24 15:35:00,50.8,20.4,29.69,West,270,19.5,20.1,30,0.00,,,0.00,WUHU216HW,2013-02-24 22:35:00,
2013-02-24 15:36:00,50.9,21.3,29.69,WNW,293,12.8,20.1,31,0.00,,,0.00,WUHU216HW,2013-02-24 22:36:00,
2013-02-24 15:37:00,50.9,20.6,29.69,WNW,293,13.9,20.1,30,0.00,,,0.00,WUHU216HW,2013-02-24 22:37:00,
2013-02-24 15:38:00,50.9,20.6,29.69,WNW,293,14.3,20.1,30,0.00,,,0.00,WUHU216HW,2013-02-24 22:38:00,
2013-02-24 15:39:00,50.9,20.6,29.69,NW,315,13.4,20.1,30,0.00,,,0.00,WUHU216HW,2013-02-24 22:39:00,
2013-02-24 15:40:00,50.9,19.7,29.69,WSW,248,20.8,20.8,29,0.00,,,0.00,WUHU216HW,2013-02-24 22:40:00,
2013-02-24 15:41:00,50.8,19.5,29.70,WSW,248,16.8,20.8,29,0.00,,,0.00,WUHU216HW,2013-02-24 22:41:00,
2013-02-24 15:42:00,50.6,19.4,29.69,West,270,20.6,20.8,29,0.00,,,0.00,WUHU216HW,2013-02-24 22:42:00,
2013-02-24 15:43:00,50.4,20.2,29.69,WSW,248,12.8,20.8,30,0.00,,,0.00,WUHU216HW,2013-02-24 22:43:00,
2013-02-24 15:44:00,50.6,19.4,29.70,WNW,293,8.7,20.8,29,0.00,,,0.00,WUHU216HW,2013-02-24 22:44:00,
2013-02-24 15:45:00,50.4,18.3,29.69,West,270,19.2,21.9,28,0.00,,,0.00,WUHU216HW,2013-02-24 22:45:00,
2013-02-24 15:46:00,50.4,18.3,29.70,SW,225,13.2,21.9,28,0.00,,,0.00,WUHU216HW,2013-02-24 22:46:00,
2013-02-24 15:47:00,50.2,18.1,29.70,West,270,9.8,21.9,28,0.00,,,0.00,WUHU216HW,2013-02-24 22:47:00,
2013-02-24 15:48:00,50.2,17.2,29.70,WNW,293,8.7,21.9,27,0.00,,,0.00,WUHU216HW,2013-02-24 22:48:00,
2013-02-24 15:49:00,50.2,15.4,29.70,West,270,15.7,21.9,25,0.00,,,0.00,WUHU216HW,2013-02-24 22:49:00,
2013-02-24 15:50:00,50.0,15.2,29.70,West,270,11.4,21.9,25,0.00,,,0.00,WUHU216HW,2013-02-24 22:50:00,
2013-02-24 15:51:00,50.0,14.3,29.70,West,270,14.3,21.9,24,0.00,,,0.00,WUHU216HW,2013-02-24 22:51:00,
2013-02-24 15:52:00,50.0,13.4,29.70,WNW,293,14.3,21.9,23,0.00,,,0.00,WUHU216HW,2013-02-24 22:52:00,
2013-02-24 15:53:00,50.0,13.4,29.70,WNW,293,14.3,21.9,23,0.00,,,0.00,WUHU216HW,2013-02-24 22:53:00,
2013-02-24 15:54:00,50.0,13.4,29.70,WSW,248,13.9,21.9,23,0.00,,,0.00,WUHU216HW,2013-02-24 22:54:00,
2013-02-24 15:55:00,49.9,15.0,29.70,WSW,248,14.5,20.4,25,0.00,,,0.00,WUHU216HW,2013-02-24 22:55:00,
2013-02-24 15:56:00,49.9,15.0,29.70,NNW,338,13.9,20.4,25,0.00,,,0.00,WUHU216HW,2013-02-24 22:56:00,
2013-02-24 15:57:00,49.7,16.7,29.71,WNW,293,17.4,20.4,27,0.00,,,0.00,WUHU216HW,2013-02-24 22:57:00,
2013-02-24 15:58:00,49.5,16.6,29.71,West,270,13.9,20.4,27,0.00,,,0.00,WUHU216HW,2013-02-24 22:58:00,
2013-02-24 15:59:00,49.3,16.5,29.70,WNW,293,12.3,20.4,27,0.00,,,0.00,WUHU216HW,2013-02-24 22:59:00,
2013-02-24 16:00:00,49.3,16.5,29.70,West,270,9.8,20.4,27,0.00,,,0.00,WUHU216HW,2013-02-24 23:00:00,
2013-02-24 16:01:00,49.3,16.5,29.70,North,0,11.9,20.4,27,0.00,,,0.00,WUHU216HW,2013-02-24 23:01:00,
2013-02-24 16:02:00,49.1,16.3,29.70,NNW,338,10.3,19.5,27,0.00,,,0.00,WUHU216HW,2013-02-24 23:02:00,
2013-02-24 16:03:00,49.1,16.3,29.70,NW,315,12.1,19.5,27,0.00,,,0.00,WUHU216HW,2013-02-24 23:03:00,
2013-02-24 16:04:00,49.1,16.3,29.70,West,270,11.6,19.5,27,0.00,,,0.00,WUHU216HW,2013-02-24 23:04:00,
2013-02-24 16:05:00,49.1,16.3,29.70,NW,315,12.1,17.4,27,0.00,,,0.00,WUHU216HW,2013-02-24 23:05:00,
2013-02-24 16:06:00,49.0,15.2,29.71,WSW,248,8.5,17.4,26,0.00,,,0.00,WUHU216HW,2013-02-24 23:06:00,
2013-02-24 16:07:00,49.0,14.3,29.71,WNW,293,11.6,17.4,25,0.00,,,0.00,WUHU216HW,2013-02-24 23:07:00,
2013-02-24 16:08:00,49.0,14.3,29.71,NW,315,16.3,16.3,25,0.00,,,0.00,WUHU216HW,2013-02-24 23:08:00,
2013-02-24 16:09:00,48.8,14.1,29.71,SSW,203,6.5,16.3,25,0.00,,,0.00,WUHU216HW,2013-02-24 23:09:00,
2013-02-24 16:10:00,48.8,14.1,29.71,West,270,6.7,16.3,25,0.00,,,0.00,WUHU216HW,2013-02-24 23:10:00,
2013-02-24 16:11:00,49.0,14.3,29.71,WNW,293,10.1,16.3,25,0.00,,,0.00,WUHU216HW,2013-02-24 23:11:00,
2013-02-24 16:12:00,49.0,14.3,29.71,WNW,293,9.4,16.3,25,0.00,,,0.00,WUHU216HW,2013-02-24 23:12:00,
2013-02-24 16:13:00,49.0,13.3,29.71,West,270,12.1,16.3,24,0.00,,,0.00,WUHU216HW,2013-02-24 23:13:00,
2013-02-24 16:14:00,48.8,13.2,29.71,West,270,12.8,16.3,24,0.00,,,0.00,WUHU216HW,2013-02-24 23:14:00,
2013-02-24 16:15:00,49.0,13.3,29.71,WSW,248,8.9,16.3,24,0.00,,,0.00,WUHU216HW,2013-02-24 23:15:00,
2013-02-24 16:16:00,49.0,12.4,29.71,West,270,18.1,18.1,23,0.00,,,0.00,WUHU216HW,2013-02-24 23:16:00,
2013-02-24 16:17:00,49.0,13.3,29.71,West,270,13.6,18.1,24,0.00,,,0.00,WUHU216HW,2013-02-24 23:17:00,
2013-02-24 16:18:00,48.6,13.1,29.71,NNW,338,10.3,18.1,24,0.00,,,0.00,WUHU216HW,2013-02-24 23:18:00,
2013-02-24 16:19:00,48.6,13.1,29.72,NW,315,13.6,18.8,24,0.00,,,0.00,WUHU216HW,2013-02-24 23:19:00,
2013-02-24 16:20:00,48.4,12.9,29.72,WNW,293,11.6,18.8,24,0.00,,,0.00,WUHU216HW,2013-02-24 23:20:00,
2013-02-24 16:21:00,48.4,12.9,29.72,WNW,293,10.5,18.8,24,0.00,,,0.00,WUHU216HW,2013-02-24 23:21:00,
2013-02-24 16:22:00,48.2,12.8,29.72,WSW,248,16.1,18.8,24,0.00,,,0.00,WUHU216HW,2013-02-24 23:22:00,
2013-02-24 16:23:00,48.1,12.6,29.72,NW,315,10.7,18.8,24,0.00,,,0.00,WUHU216HW,2013-02-24 23:23:00,
2013-02-24 16:24:00,48.2,12.8,29.72,West,270,21.5,21.5,24,0.00,,,0.00,WUHU216HW,2013-02-24 23:24:00,
2013-02-24 16:25:00,47.9,12.4,29.72,NW,315,16.6,21.5,24,0.00,,,0.00,WUHU216HW,2013-02-24 23:25:00,
2013-02-24 16:26:00,47.9,12.4,29.72,NW,315,14.8,21.5,24,0.00,,,0.00,WUHU216HW,2013-02-24 23:26:00,
2013-02-24 16:27:00,47.9,12.4,29.72,NW,315,11.4,21.5,24,0.00,,,0.00,WUHU216HW,2013-02-24 23:27:00,
2013-02-24 16:28:00,47.9,12.4,29.72,NW,315,18.3,21.5,24,0.00,,,0.00,WUHU216HW,2013-02-24 23:28:00,
2013-02-24 16:29:00,47.7,13.2,29.72,NW,315,15.7,21.5,25,0.00,,,0.00,WUHU216HW,2013-02-24 23:29:00,
2013-02-24 16:30:00,47.7,13.2,29.72,NW,315,11.4,21.5,25,0.00,,,0.00,WUHU216HW,2013-02-24 23:30:00,
2013-02-24 16:31:00,47.7,13.2,29.72,WSW,248,10.1,21.5,25,0.00,,,0.00,WUHU216HW,2013-02-24 23:31:00,
2013-02-24 16:32:00,47.5,13.1,29.72,WNW,293,11.4,21.5,25,0.00,,,0.00,WUHU216HW,2013-02-24 23:32:00,
2013-02-24 16:33:00,47.5,13.1,29.73,North,0,11.6,21.5,25,0.00,,,0.00,WUHU216HW,2013-02-24 23:33:00,
2013-02-24 16:34:00,47.5,13.1,29.72,NNW,338,13.6,21.5,25,0.00,,,0.00,WUHU216HW,2013-02-24 23:34:00,
2013-02-24 16:35:00,47.5,13.1,29.72,WNW,293,11.4,18.3,25,0.00,,,0.00,WUHU216HW,2013-02-24 23:35:00,
2013-02-24 16:36:00,47.5,13.1,29.73,WNW,293,12.3,18.3,25,0.00,,,0.00,WUHU216HW,2013-02-24 23:36:00,
2013-02-24 16:37:00,47.3,12.9,29.73,NW,315,14.3,18.3,25,0.00,,,0.00,WUHU216HW,2013-02-24 23:37:00,
2013-02-24 16:38:00,47.3,12.9,29.73,West,270,14.3,18.3,25,0.00,,,0.00,WUHU216HW,2013-02-24 23:38:00,
2013-02-24 16:39:00,47.2,12.8,29.72,WNW,293,10.1,20.8,25,0.00,,,0.00,WUHU216HW,2013-02-24 23:39:00,
2013-02-24 16:40:00,47.2,12.8,29.73,WNW,293,14.8,20.8,25,0.00,,,0.00,WUHU216HW,2013-02-24 23:40:00,
2013-02-24 16:41:00,47.0,12.6,29.72,SW,225,16.1,20.8,25,0.00,,,0.00,WUHU216HW,2013-02-24 23:41:00,
2013-02-24 16:42:00,47.0,12.6,29.73,NW,315,8.5,20.8,25,0.00,,,0.00,WUHU216HW,2013-02-24 23:42:00,
2013-02-24 16:43:00,47.0,12.6,29.73,West,270,19.0,20.8,25,0.00,,,0.00,WUHU216HW,2013-02-24 23:43:00,
2013-02-24 16:44:00,47.0,12.6,29.73,NNW,338,7.4,20.8,25,0.00,,,0.00,WUHU216HW,2013-02-24 23:44:00,
2013-02-24 16:45:00,47.0,12.6,29.73,North,0,11.4,20.8,25,0.00,,,0.00,WUHU216HW,2013-02-24 23:45:00,
2013-02-24 16:46:00,47.0,13.5,29.73,WNW,293,13.2,20.8,26,0.00,,,0.00,WUHU216HW,2013-02-24 23:46:00,
2013-02-24 16:47:00,47.0,13.5,29.73,NW,315,9.8,20.8,26,0.00,,,0.00,WUHU216HW,2013-02-24 23:47:00,
2013-02-24 16:48:00,46.8,13.4,29.73,West,270,12.1,20.8,26,0.00,,,0.00,WUHU216HW,2013-02-24 23:48:00,
2013-02-24 16:49:00,46.8,13.4,29.73,North,0,14.3,19.0,26,0.00,,,0.00,WUHU216HW,2013-02-24 23:49:00,
2013-02-24 16:50:00,46.8,12.4,29.73,WSW,248,12.8,19.0,25,0.00,,,0.00,WUHU216HW,2013-02-24 23:50:00,
2013-02-24 16:51:00,46.8,12.4,29.73,NW,315,15.2,19.0,25,0.00,,,0.00,WUHU216HW,2013-02-24 23:51:00,
2013-02-24 16:52:00,46.6,12.3,29.73,WSW,248,17.0,20.8,25,0.00,,,0.00,WUHU216HW,2013-02-24 23:52:00,
2013-02-24 16:53:00,46.6,12.3,29.73,NW,315,17.2,20.8,25,0.00,,,0.00,WUHU216HW,2013-02-24 23:53:00,
2013-02-24 16:54:00,46.6,12.3,29.74,West,270,11.4,20.8,25,0.00,,,0.00,WUHU216HW,2013-02-24 23:54:00,
2013-02-24 16:55:00,46.6,11.3,29.73,SW,225,17.4,20.8,24,0.00,,,0.00,WUHU216HW,2013-02-24 23:55:00,
2013-02-24 16:56:00,46.4,11.3,29.74,West,270,9.8,20.8,24,0.00,,,0.00,WUHU216HW,2013-02-24 23:56:00,
2013-02-24 16:57:00,46.6,11.3,29.74,West,270,8.5,20.8,24,0.00,,,0.00,WUHU216HW,2013-02-24 23:57:00,
2013-02-24 16:58:00,46.6,11.3,29.74,West,270,22.8,22.8,24,0.00,,,0.00,WUHU216HW,2013-02-24 23:58:00,
2013-02-24 16:59:00,46.4,11.3,29.74,WNW,293,13.4,22.8,24,0.00,,,0.00,WUHU216HW,2013-02-24 23:59:00,
2013-02-24 17:00:00,46.4,11.3,29.74,NW,315,7.8,22.8,24,0.00,,,0.00,WUHU216HW,2013-02-25 00:00:00,
2013-02-24 17:01:00,46.4,11.3,29.74,NW,315,12.1,22.8,24,0.00,,,0.00,WUHU216HW,2013-02-25 00:01:00,
2013-02-24 17:02:00,46.4,10.4,29.74,North,0,18.6,22.8,23,0.00,,,0.00,WUHU216HW,2013-02-25 00:02:00,
2013-02-24 17:03:00,46.4,10.4,29.74,WNW,293,15.0,22.8,23,0.00,,,0.00,WUHU216HW,2013-02-25 00:03:00,
2013-02-24 17:04:00,46.3,10.2,29.74,WSW,248,7.2,22.8,23,0.00,,,0.00,WUHU216HW,2013-02-25 00:04:00,
2013-02-24 17:05:00,46.3,10.2,29.74,West,270,15.7,22.8,23,0.00,,,0.00,WUHU216HW,2013-02-25 00:05:00,
2013-02-24 17:06:00,46.3,10.2,29.74,West,270,14.3,22.8,23,0.00,,,0.00,WUHU216HW,2013-02-25 00:06:00,
2013-02-24 17:07:00,46.1,10.0,29.74,WSW,248,7.6,22.8,23,0.00,,,0.00,WUHU216HW,2013-02-25 00:07:00,
2013-02-24 17:08:00,46.1,10.0,29.74,West,270,18.3,22.8,23,0.00,,,0.00,WUHU216HW,2013-02-25 00:08:00,
2013-02-24 17:09:00,46.1,10.0,29.74,West,270,13.9,18.6,23,0.00,,,0.00,WUHU216HW,2013-02-25 00:09:00,
2013-02-24 17:10:00,46.1,10.0,29.74,WNW,293,16.3,19.0,23,0.00,,,0.00,WUHU216HW,2013-02-25 00:10:00,
2013-02-24 17:11:00,45.9,9.9,29.74,NW,315,11.4,19.0,23,0.00,,,0.00,WUHU216HW,2013-02-25 00:11:00,
2013-02-24 17:12:00,45.9,9.9,29.74,NNW,338,13.4,19.0,23,0.00,,,0.00,WUHU216HW,2013-02-25 00:12:00,
2013-02-24 17:13:00,45.9,9.9,29.74,West,270,11.0,21.9,23,0.00,,,0.00,WUHU216HW,2013-02-25 00:13:00,
2013-02-24 17:14:00,45.7,9.7,29.74,NW,315,11.4,21.9,23,0.00,,,0.00,WUHU216HW,2013-02-25 00:14:00,
2013-02-24 17:15:00,45.7,9.7,29.74,WNW,293,9.2,21.9,23,0.00,,,0.00,WUHU216HW,2013-02-25 00:15:00,
2013-02-24 17:16:00,45.7,8.8,29.74,West,270,13.4,21.9,22,0.00,,,0.00,WUHU216HW,2013-02-25 00:16:00,
2013-02-24 17:17:00,45.7,8.8,29.74,WNW,293,19.5,21.9,22,0.00,,,0.00,WUHU216HW,2013-02-25 00:17:00,
2013-02-24 17:18:00,45.5,8.6,29.74,WSW,248,8.7,21.9,22,0.00,,,0.00,WUHU216HW,2013-02-25 00:18:00,
2013-02-24 17:19:00,45.5,9.5,29.75,NW,315,14.1,21.9,23,0.00,,,0.00,WUHU216HW,2013-02-25 00:19:00,
2013-02-24 17:20:00,45.4,9.5,29.75,WNW,293,8.9,21.9,23,0.00,,,0.00,WUHU216HW,2013-02-25 00:20:00,
2013-02-24 17:21:00,45.5,9.5,29.75,WNW,293,8.5,21.9,23,0.00,,,0.00,WUHU216HW,2013-02-25 00:21:00,
2013-02-24 17:22:00,45.5,9.5,29.75,NW,315,7.8,21.9,23,0.00,,,0.00,WUHU216HW,2013-02-25 00:22:00,
2013-02-24 17:23:00,45.4,9.5,29.75,NNW,338,9.8,19.5,23,0.00,,,0.00,WUHU216HW,2013-02-25 00:23:00,
2013-02-24 17:24:00,45.4,9.5,29.75,SW,225,6.7,19.5,23,0.00,,,0.00,WUHU216HW,2013-02-25 00:24:00,
2013-02-24 17:25:00,45.4,9.5,29.75,West,270,8.1,19.5,23,0.00,,,0.00,WUHU216HW,2013-02-25 00:25:00,
2013-02-24 17:26:00,45.4,9.5,29.75,North,0,17.9,19.5,23,0.00,,,0.00,WUHU216HW,2013-02-25 00:26:00,
2013-02-24 17:27:00,45.4,10.4,29.76,WNW,293,6.3,19.5,24,0.00,,,0.00,WUHU216HW,2013-02-25 00:27:00,
2013-02-24 17:28:00,45.4,10.4,29.76,West,270,16.8,17.9,24,0.00,,,0.00,WUHU216HW,2013-02-25 00:28:00,
2013-02-24 17:29:00,45.2,10.2,29.76,WNW,293,17.7,17.9,24,0.00,,,0.00,WUHU216HW,2013-02-25 00:29:00,
2013-02-24 17:30:00,45.2,10.2,29.76,NW,315,17.2,17.9,24,0.00,,,0.00,WUHU216HW,2013-02-25 00:30:00,
2013-02-24 17:31:00,45.2,10.2,29.76,WSW,248,11.4,19.7,24,0.00,,,0.00,WUHU216HW,2013-02-25 00:31:00,
2013-02-24 17:32:00,45.0,10.0,29.76,NW,315,11.4,20.4,24,0.00,,,0.00,WUHU216HW,2013-02-25 00:32:00,
2013-02-24 17:33:00,45.0,10.0,29.76,West,270,13.4,20.4,24,0.00,,,0.00,WUHU216HW,2013-02-25 00:33:00,
2013-02-24 17:34:00,44.8,9.9,29.76,WSW,248,15.2,20.4,24,0.00,,,0.00,WUHU216HW,2013-02-25 00:34:00,
2013-02-24 17:35:00,44.8,9.9,29.76,WNW,293,19.9,20.4,24,0.00,,,0.00,WUHU216HW,2013-02-25 00:35:00,
2013-02-24 17:36:00,44.6,9.7,29.76,West,270,15.7,20.4,24,0.00,,,0.00,WUHU216HW,2013-02-25 00:36:00,
2013-02-24 17:37:00,44.6,9.7,29.76,WNW,293,12.5,20.4,24,0.00,,,0.00,WUHU216HW,2013-02-25 00:37:00,
2013-02-24 17:38:00,44.6,9.7,29.76,West,270,15.2,20.4,24,0.00,,,0.00,WUHU216HW,2013-02-25 00:38:00,
2013-02-24 17:39:00,44.5,9.5,29.76,WNW,293,16.3,20.4,24,0.00,,,0.00,WUHU216HW,2013-02-25 00:39:00,
2013-02-24 17:40:00,44.5,9.5,29.76,WSW,248,11.0,20.4,24,0.00,,,0.00,WUHU216HW,2013-02-25 00:40:00,
2013-02-24 17:41:00,44.5,9.5,29.76,SW,225,14.8,20.4,24,0.00,,,0.00,WUHU216HW,2013-02-25 00:41:00,
2013-02-24 17:42:00,44.5,10.4,29.76,WNW,293,13.0,19.9,25,0.00,,,0.00,WUHU216HW,2013-02-25 00:42:00,
2013-02-24 17:43:00,44.5,10.4,29.76,WNW,293,15.4,19.9,25,0.00,,,0.00,WUHU216HW,2013-02-25 00:43:00,
2013-02-24 17:44:00,44.3,10.3,29.76,WNW,293,11.4,21.5,25,0.00,,,0.00,WUHU216HW,2013-02-25 00:44:00,
2013-02-24 17:45:00,44.3,10.3,29.76,WSW,248,15.0,21.5,25,0.00,,,0.00,WUHU216HW,2013-02-25 00:45:00,
2013-02-24 17:46:00,44.3,10.3,29.77,WSW,248,17.2,21.5,25,0.00,,,0.00,WUHU216HW,2013-02-25 00:46:00,
2013-02-24 17:47:00,44.1,10.2,29.77,West,270,9.8,21.5,25,0.00,,,0.00,WUHU216HW,2013-02-25 00:47:00,
2013-02-24 17:48:00,44.3,10.3,29.77,West,270,15.0,21.5,25,0.00,,,0.00,WUHU216HW,2013-02-25 00:48:00,
2013-02-24 17:49:00,44.1,10.2,29.77,West,270,13.9,21.5,25,0.00,,,0.00,WUHU216HW,2013-02-25 00:49:00,
2013-02-24 17:50:00,44.1,10.2,29.76,WNW,293,13.4,21.5,25,0.00,,,0.00,WUHU216HW,2013-02-25 00:50:00,
2013-02-24 17:51:00,43.9,11.8,29.76,West,270,14.3,21.5,27,0.00,,,0.00,WUHU216HW,2013-02-25 00:51:00,
2013-02-24 17:52:00,43.9,11.8,29.76,NNW,338,18.1,21.5,27,0.00,,,0.00,WUHU216HW,2013-02-25 00:52:00,
2013-02-24 17:53:00,43.9,11.8,29.77,WSW,248,7.2,21.5,27,0.00,,,0.00,WUHU216HW,2013-02-25 00:53:00,
2013-02-24 17:54:00,43.7,11.6,29.77,West,270,12.5,21.3,27,0.00,,,0.00,WUHU216HW,2013-02-25 00:54:00,
2013-02-24 17:55:00,43.7,11.6,29.77,WSW,248,12.5,21.3,27,0.00,,,0.00,WUHU216HW,2013-02-25 00:55:00,
2013-02-24 17:56:00,43.7,11.6,29.77,West,270,16.3,21.3,27,0.00,,,0.00,WUHU216HW,2013-02-25 00:56:00,
2013-02-24 17:57:00,43.6,11.4,29.77,WNW,293,11.9,21.3,27,0.00,,,0.00,WUHU216HW,2013-02-25 00:57:00,
2013-02-24 17:58:00,43.6,10.5,29.77,WNW,293,16.6,21.3,26,0.00,,,0.00,WUHU216HW,2013-02-25 00:58:00,
2013-02-24 17:59:00,43.6,9.6,29.77,West,270,17.2,20.1,25,0.00,,,0.00,WUHU216HW,2013-02-25 00:59:00,
2013-02-24 18:00:00,43.4,9.5,29.77,West,270,17.4,23.7,25,0.00,,,0.00,WUHU216HW,2013-02-25 01:00:00,
2013-02-24 18:01:00,43.4,9.5,29.77,WNW,293,14.8,23.7,25,0.00,,,0.00,WUHU216HW,2013-02-25 01:01:00,
2013-02-24 18:02:00,43.4,9.5,29.77,WNW,293,12.3,23.7,25,0.00,,,0.00,WUHU216HW,2013-02-25 01:02:00,
2013-02-24 18:03:00,43.2,9.4,29.77,WNW,293,17.7,23.7,25,0.00,,,0.00,WUHU216HW,2013-02-25 01:03:00,
2013-02-24 18:04:00,43.2,9.4,29.77,WSW,248,21.5,23.7,25,0.00,,,0.00,WUHU216HW,2013-02-25 01:04:00,
2013-02-24 18:05:00,43.0,9.2,29.77,NW,315,21.5,23.7,25,0.00,,,0.00,WUHU216HW,2013-02-25 01:05:00,
2013-02-24 18:06:00,43.0,9.2,29.77,WNW,293,15.7,23.7,25,0.00,,,0.00,WUHU216HW,2013-02-25 01:06:00,
2013-02-24 18:07:00,43.0,8.3,29.77,West,270,19.9,23.7,24,0.00,,,0.00,WUHU216HW,2013-02-25 01:07:00,
2013-02-24 18:08:00,43.0,9.2,29.77,WSW,248,15.7,23.7,25,0.00,,,0.00,WUHU216HW,2013-02-25 01:08:00,
2013-02-24 18:09:00,43.0,9.2,29.77,WSW,248,8.1,23.7,25,0.00,,,0.00,WUHU216HW,2013-02-25 01:09:00,
2013-02-24 18:10:00,42.8,9.0,29.77,WSW,248,13.4,21.5,25,0.00,,,0.00,WUHU216HW,2013-02-25 01:10:00,
2013-02-24 18:11:00,42.8,8.1,29.77,NW,315,21.5,21.5,24,0.00,,,0.00,WUHU216HW,2013-02-25 01:11:00,
2013-02-24 18:12:00,42.8,8.1,29.78,West,270,15.4,21.5,24,0.00,,,0.00,WUHU216HW,2013-02-25 01:12:00,
2013-02-24 18:13:00,42.8,8.1,29.78,West,270,13.0,21.5,24,0.00,,,0.00,WUHU216HW,2013-02-25 01:13:00,
2013-02-24 18:14:00,42.8,8.1,29.78,WSW,248,21.0,21.5,24,0.00,,,0.00,WUHU216HW,2013-02-25 01:14:00,
2013-02-24 18:15:00,42.8,8.1,29.78,WSW,248,22.6,27.3,24,0.00,,,0.00,WUHU216HW,2013-02-25 01:15:00,
2013-02-24 18:16:00,42.8,8.1,29.78,WNW,293,17.2,27.3,24,0.00,,,0.00,WUHU216HW,2013-02-25 01:16:00,
2013-02-24 18:17:00,42.8,7.2,29.78,West,270,17.9,27.3,23,0.00,,,0.00,WUHU216HW,2013-02-25 01:17:00,
2013-02-24 18:18:00,42.8,8.1,29.78,WNW,293,17.4,27.3,24,0.00,,,0.00,WUHU216HW,2013-02-25 01:18:00,
2013-02-24 18:19:00,42.8,8.1,29.78,WSW,248,14.3,27.3,24,0.00,,,0.00,WUHU216HW,2013-02-25 01:19:00,
2013-02-24 18:20:00,42.7,7.9,29.78,WSW,248,15.4,27.3,24,0.00,,,0.00,WUHU216HW,2013-02-25 01:20:00,
2013-02-24 18:21:00,42.7,7.9,29.78,West,270,21.0,27.3,24,0.00,,,0.00,WUHU216HW,2013-02-25 01:21:00,
2013-02-24 18:22:00,42.7,7.9,29.78,WSW,248,15.0,27.3,24,0.00,,,0.00,WUHU216HW,2013-02-25 01:22:00,
2013-02-24 18:23:00,42.5,7.8,29.79,WSW,248,10.5,27.3,24,0.00,,,0.00,WUHU216HW,2013-02-25 01:23:00,
2013-02-24 18:24:00,42.5,7.8,29.79,NW,315,15.0,27.3,24,0.00,,,0.00,WUHU216HW,2013-02-25 01:24:00,
2013-02-24 18:25:00,42.5,8.7,29.79,West,270,10.5,22.6,25,0.00,,,0.00,WUHU216HW,2013-02-25 01:25:00,
2013-02-24 18:26:00,42.5,8.7,29.79,SW,225,20.1,25.1,25,0.00,,,0.00,WUHU216HW,2013-02-25 01:26:00,
2013-02-24 18:27:00,42.3,8.6,29.79,West,270,15.7,25.1,25,0.00,,,0.00,WUHU216HW,2013-02-25 01:27:00,
2013-02-24 18:28:00,42.3,8.6,29.79,West,270,18.8,25.1,25,0.00,,,0.00,WUHU216HW,2013-02-25 01:28:00,
2013-02-24 18:29:00,42.3,8.6,29.79,NNW,338,9.6,25.1,25,0.00,,,0.00,WUHU216HW,2013-02-25 01:29:00,
2013-02-24 18:30:00,42.1,8.5,29.79,WNW,293,11.9,25.1,25,0.00,,,0.00,WUHU216HW,2013-02-25 01:30:00,
2013-02-24 18:31:00,42.1,9.4,29.79,West,270,14.5,25.1,26,0.00,,,0.00,WUHU216HW,2013-02-25 01:31:00,
2013-02-24 18:32:00,42.1,9.4,29.80,NNW,338,11.9,25.1,26,0.00,,,0.00,WUHU216HW,2013-02-25 01:32:00,
2013-02-24 18:33:00,42.1,9.4,29.80,WNW,293,15.0,25.1,26,0.00,,,0.00,WUHU216HW,2013-02-25 01:33:00,
2013-02-24 18:34:00,42.1,10.3,29.80,West,270,8.7,25.1,27,0.00,,,0.00,WUHU216HW,2013-02-25 01:34:00,
2013-02-24 18:35:00,42.1,10.3,29.80,WSW,248,14.3,25.1,27,0.00,,,0.00,WUHU216HW,2013-02-25 01:35:00,
2013-02-24 18:36:00,42.1,11.2,29.80,WSW,248,19.9,19.9,28,0.00,,,0.00,WUHU216HW,2013-02-25 01:36:00,
2013-02-24 18:37:00,41.9,11.0,29.80,West,270,11.2,19.9,28,0.00,,,0.00,WUHU216HW,2013-02-25 01:37:00,
2013-02-24 18:38:00,41.9,11.9,29.80,WNW,293,19.9,19.9,29,0.00,,,0.00,WUHU216HW,2013-02-25 01:38:00,
2013-02-24 18:39:00,41.8,12.6,29.81,West,270,12.5,19.9,30,0.00,,,0.00,WUHU216HW,2013-02-25 01:39:00,
2013-02-24 18:40:00,41.8,13.3,29.81,West,270,15.2,19.9,31,0.00,,,0.00,WUHU216HW,2013-02-25 01:40:00,
2013-02-24 18:41:00,41.6,12.5,29.81,NNW,338,5.6,19.9,30,0.00,,,0.00,WUHU216HW,2013-02-25 01:41:00,
2013-02-24 18:42:00,41.6,12.5,29.81,WNW,293,6.0,19.9,30,0.00,,,0.00,WUHU216HW,2013-02-25 01:42:00,
2013-02-24 18:43:00,41.4,13.0,29.81,NW,315,15.0,19.9,31,0.00,,,0.00,WUHU216HW,2013-02-25 01:43:00,
2013-02-24 18:44:00,41.4,13.7,29.81,WNW,293,8.9,19.9,32,0.00,,,0.00,WUHU216HW,2013-02-25 01:44:00,
2013-02-24 18:45:00,41.4,15.6,29.81,SW,225,18.8,19.9,35,0.00,,,0.00,WUHU216HW,2013-02-25 01:45:00,
2013-02-24 18:46:00,41.4,15.6,29.81,WNW,293,9.2,19.9,35,0.00,,,0.00,WUHU216HW,2013-02-25 01:46:00,
2013-02-24 18:47:00,41.2,16.1,29.81,SW,225,13.0,19.9,36,0.00,,,0.00,WUHU216HW,2013-02-25 01:47:00,
2013-02-24 18:48:00,41.0,15.9,29.82,SW,225,6.5,19.9,36,0.00,,,0.00,WUHU216HW,2013-02-25 01:48:00,
2013-02-24 18:49:00,40.9,15.8,29.82,NNW,338,10.1,18.8,36,0.00,,,0.00,WUHU216HW,2013-02-25 01:49:00,
2013-02-24 18:50:00,40.9,16.5,29.82,WNW,293,9.2,18.8,37,0.00,,,0.00,WUHU216HW,2013-02-25 01:50:00,
2013-02-24 18:51:00,40.7,16.3,29.82,West,270,12.3,18.8,37,0.00,,,0.00,WUHU216HW,2013-02-25 01:51:00,
2013-02-24 18:52:00,40.7,16.3,29.82,NW,315,11.2,18.8,37,0.00,,,0.00,WUHU216HW,2013-02-25 01:52:00,
2013-02-24 18:53:00,40.7,16.3,29.82,WNW,293,8.5,18.8,37,0.00,,,0.00,WUHU216HW,2013-02-25 01:53:00,
2013-02-24 18:54:00,40.5,16.7,29.82,WSW,248,14.3,18.8,38,0.00,,,0.00,WUHU216HW,2013-02-25 01:54:00,
2013-02-24 18:55:00,40.3,16.6,29.82,WNW,293,10.5,18.8,38,0.00,,,0.00,WUHU216HW,2013-02-25 01:55:00,
2013-02-24 18:56:00,40.3,16.6,29.82,WNW,293,5.4,14.3,38,0.00,,,0.00,WUHU216HW,2013-02-25 01:56:00,
2013-02-24 18:57:00,40.1,17.1,29.82,WNW,293,15.0,15.0,39,0.00,,,0.00,WUHU216HW,2013-02-25 01:57:00,
2013-02-24 18:58:00,40.1,17.7,29.82,WNW,293,9.2,15.0,40,0.00,,,0.00,WUHU216HW,2013-02-25 01:58:00,
2013-02-24 18:59:00,40.0,16.9,29.82,NNW,338,7.6,15.0,39,0.00,,,0.00,WUHU216HW,2013-02-25 01:59:00,
2013-02-24 19:00:00,40.0,16.9,29.82,West,270,14.3,15.0,39,0.00,,,0.00,WUHU216HW,2013-02-25 02:00:00,
2013-02-24 19:01:00,39.8,18.5,29.82,SSW,203,19.2,19.2,42,0.00,,,0.00,WUHU216HW,2013-02-25 02:01:00,
2013-02-24 19:02:00,39.8,18.5,29.82,NW,315,14.3,19.2,42,0.00,,,0.00,WUHU216HW,2013-02-25 02:02:00,
2013-02-24 19:03:00,39.6,18.3,29.83,West,270,11.4,19.2,42,0.00,,,0.00,WUHU216HW,2013-02-25 02:03:00,
2013-02-24 19:04:00,39.4,18.1,29.82,WSW,248,15.7,19.2,42,0.00,,,0.00,WUHU216HW,2013-02-25 02:04:00,
2013-02-24 19:05:00,39.4,18.6,29.82,SW,225,13.0,19.2,43,0.00,,,0.00,WUHU216HW,2013-02-25 02:05:00,
2013-02-24 19:06:00,39.2,19.0,29.82,WNW,293,14.3,19.2,44,0.00,,,0.00,WUHU216HW,2013-02-25 02:06:00,
2013-02-24 19:07:00,39.2,18.5,29.82,West,270,9.4,19.2,43,0.00,,,0.00,WUHU216HW,2013-02-25 02:07:00,
2013-02-24 19:08:00,39.1,18.8,29.82,WSW,248,18.6,19.2,44,0.00,,,0.00,WUHU216HW,2013-02-25 02:08:00,
2013-02-24 19:09:00,39.1,18.8,29.82,West,270,10.3,19.2,44,0.00,,,0.00,WUHU216HW,2013-02-25 02:09:00,
2013-02-24 19:10:00,38.9,18.7,29.82,West,270,6.7,19.2,44,0.00,,,0.00,WUHU216HW,2013-02-25 02:10:00,
2013-02-24 19:11:00,38.7,19.1,29.82,West,270,11.0,19.2,45,0.00,,,0.00,WUHU216HW,2013-02-25 02:11:00,
2013-02-24 19:12:00,38.7,19.1,29.82,WSW,248,15.9,18.6,45,0.00,,,0.00,WUHU216HW,2013-02-25 02:12:00,
2013-02-24 19:13:00,38.5,18.4,29.82,West,270,9.2,18.6,44,0.00,,,0.00,WUHU216HW,2013-02-25 02:13:00,
2013-02-24 19:14:00,38.5,18.9,29.82,SW,225,9.8,18.6,45,0.00,,,0.00,WUHU216HW,2013-02-25 02:14:00,
2013-02-24 19:15:00,38.5,18.9,29.82,WNW,293,10.3,18.6,45,0.00,,,0.00,WUHU216HW,2013-02-25 02:15:00,
2013-02-24 19:16:00,38.5,18.9,29.82,WNW,293,11.4,18.6,45,0.00,,,0.00,WUHU216HW,2013-02-25 02:16:00,
2013-02-24 19:17:00,38.3,18.7,29.82,WNW,293,11.9,18.6,45,0.00,,,0.00,WUHU216HW,2013-02-25 02:17:00,
2013-02-24 19:18:00,38.3,18.7,29.82,SW,225,7.6,18.6,45,0.00,,,0.00,WUHU216HW,2013-02-25 02:18:00,
2013-02-24 19:19:00,38.3,18.7,29.82,WSW,248,6.0,16.3,45,0.00,,,0.00,WUHU216HW,2013-02-25 02:19:00,
2013-02-24 19:20:00,38.3,18.7,29.82,WNW,293,14.3,16.3,45,0.00,,,0.00,WUHU216HW,2013-02-25 02:20:00,
2013-02-24 19:21:00,38.3,18.7,29.82,South,180,10.5,16.3,45,0.00,,,0.00,WUHU216HW,2013-02-25 02:21:00,
2013-02-24 19:22:00,38.2,18.5,29.82,NNE,23,13.4,16.6,45,0.00,,,0.00,WUHU216HW,2013-02-25 02:22:00,
2013-02-24 19:23:00,38.2,18.5,29.82,WNW,293,14.3,19.2,45,0.00,,,0.00,WUHU216HW,2013-02-25 02:23:00,
2013-02-24 19:24:00,38.2,18.5,29.82,WSW,248,11.2,19.2,45,0.00,,,0.00,WUHU216HW,2013-02-25 02:24:00,
2013-02-24 19:25:00,38.2,18.5,29.82,West,270,11.4,19.2,45,0.00,,,0.00,WUHU216HW,2013-02-25 02:25:00,
2013-02-24 19:26:00,38.2,18.5,29.82,WNW,293,15.2,19.2,45,0.00,,,0.00,WUHU216HW,2013-02-25 02:26:00,
2013-02-24 19:27:00,38.2,18.5,29.82,West,270,25.3,25.3,45,0.00,,,0.00,WUHU216HW,2013-02-25 02:27:00,
2013-02-24 19:28:00,38.2,18.5,29.82,NNW,338,11.9,25.3,45,0.00,,,0.00,WUHU216HW,2013-02-25 02:28:00,
2013-02-24 19:29:00,38.0,18.4,29.82,NNW,338,12.8,25.3,45,0.00,,,0.00,WUHU216HW,2013-02-25 02:29:00,
2013-02-24 19:30:00,38.0,18.9,29.82,West,270,15.0,25.3,46,0.00,,,0.00,WUHU216HW,2013-02-25 02:30:00,
2013-02-24 19:31:00,38.0,18.9,29.81,West,270,19.2,25.3,46,0.00,,,0.00,WUHU216HW,2013-02-25 02:31:00,
2013-02-24 19:32:00,38.0,18.9,29.81,WNW,293,20.6,25.3,46,0.00,,,0.00,WUHU216HW,2013-02-25 02:32:00,
2013-02-24 19:33:00,37.8,18.7,29.81,West,270,19.2,25.3,46,0.00,,,0.00,WUHU216HW,2013-02-25 02:33:00,
2013-02-24 19:34:00,37.8,18.7,29.81,NW,315,17.9,28.0,46,0.00,,,0.00,WUHU216HW,2013-02-25 02:34:00,
2013-02-24 19:35:00,37.8,18.7,29.81,NW,315,17.9,28.0,46,0.00,,,0.00,WUHU216HW,2013-02-25 02:35:00,
2013-02-24 19:36:00,37.8,18.7,29.81,SW,225,15.7,28.0,46,0.00,,,0.00,WUHU216HW,2013-02-25 02:36:00,
2013-02-24 19:37:00,37.8,18.7,29.82,West,270,18.3,28.0,46,0.00,,,0.00,WUHU216HW,2013-02-25 02:37:00,
2013-02-24 19:38:00,37.8,18.7,29.82,WSW,248,13.0,28.0,46,0.00,,,0.00,WUHU216HW,2013-02-25 02:38:00,
2013-02-24 19:39:00,37.8,18.7,29.82,WSW,248,12.1,28.0,46,0.00,,,0.00,WUHU216HW,2013-02-25 02:39:00,
2013-02-24 19:40:00,37.8,19.3,29.82,WSW,248,17.2,28.0,47,0.00,,,0.00,WUHU216HW,2013-02-25 02:40:00,
2013-02-24 19:41:00,37.6,19.1,29.82,West,270,13.4,28.0,47,0.00,,,0.00,WUHU216HW,2013-02-25 02:41:00,
2013-02-24 19:42:00,37.6,19.1,29.82,West,270,18.3,28.0,47,0.00,,,0.00,WUHU216HW,2013-02-25 02:42:00,
2013-02-24 19:43:00,37.6,19.1,29.82,NNW,338,15.0,28.0,47,0.00,,,0.00,WUHU216HW,2013-02-25 02:43:00,
2013-02-24 19:44:00,37.4,19.0,29.82,WNW,293,22.6,28.0,47,0.00,,,0.00,WUHU216HW,2013-02-25 02:44:00,
2013-02-24 19:45:00,37.4,19.4,29.82,West,270,17.2,25.9,48,0.00,,,0.00,WUHU216HW,2013-02-25 02:45:00,
2013-02-24 19:46:00,37.4,19.4,29.82,WNW,293,22.1,22.6,48,0.00,,,0.00,WUHU216HW,2013-02-25 02:46:00,
2013-02-24 19:47:00,37.4,19.4,29.82,WSW,248,16.1,22.6,48,0.00,,,0.00,WUHU216HW,2013-02-25 02:47:00,
2013-02-24 19:48:00,37.4,19.4,29.82,West,270,20.1,22.6,48,0.00,,,0.00,WUHU216HW,2013-02-25 02:48:00,
2013-02-24 19:49:00,37.3,19.4,29.82,WNW,293,15.7,22.6,48,0.00,,,0.00,WUHU216HW,2013-02-25 02:49:00,
2013-02-24 19:50:00,37.3,19.4,29.83,West,270,12.1,22.6,48,0.00,,,0.00,WUHU216HW,2013-02-25 02:50:00,
2013-02-24 19:51:00,37.3,19.8,29.83,West,270,16.8,22.6,49,0.00,,,0.00,WUHU216HW,2013-02-25 02:51:00,
2013-02-24 19:52:00,37.1,19.7,29.83,WNW,293,14.5,22.6,49,0.00,,,0.00,WUHU216HW,2013-02-25 02:52:00,
2013-02-24 19:53:00,37.1,19.7,29.83,WSW,248,18.6,22.6,49,0.00,,,0.00,WUHU216HW,2013-02-25 02:53:00,
2013-02-24 19:54:00,37.1,19.7,29.83,SW,225,12.5,22.6,49,0.00,,,0.00,WUHU216HW,2013-02-25 02:54:00,
2013-02-24 19:55:00,36.9,19.5,29.83,WNW,293,15.9,22.1,49,0.00,,,0.00,WUHU216HW,2013-02-25 02:55:00,
2013-02-24 19:56:00,36.9,20.1,29.83,NW,315,12.8,22.1,50,0.00,,,0.00,WUHU216HW,2013-02-25 02:56:00,
2013-02-24 19:57:00,36.9,20.1,29.83,WNW,293,14.8,20.6,50,0.00,,,0.00,WUHU216HW,2013-02-25 02:57:00,
2013-02-24 19:58:00,36.7,19.9,29.83,WNW,293,21.9,21.9,50,0.00,,,0.00,WUHU216HW,2013-02-25 02:58:00,
2013-02-24 19:59:00,36.7,19.9,29.83,West,270,16.3,21.9,50,0.00,,,0.00,WUHU216HW,2013-02-25 02:59:00,
2013-02-24 20:00:00,36.7,19.9,29.83,West,270,8.7,21.9,50,0.00,,,0.00,WUHU216HW,2013-02-25 03:00:00,
2013-02-24 20:01:00,36.5,19.7,29.83,WSW,248,12.1,21.9,50,0.00,,,0.00,WUHU216HW,2013-02-25 03:01:00,
2013-02-24 20:02:00,36.5,19.7,29.83,West,270,18.3,22.4,50,0.00,,,0.00,WUHU216HW,2013-02-25 03:02:00,
2013-02-24 20:03:00,36.5,19.2,29.83,West,270,14.3,22.4,49,0.00,,,0.00,WUHU216HW,2013-02-25 03:03:00,
2013-02-24 20:04:00,36.5,19.2,29.83,West,270,9.8,22.4,49,0.00,,,0.00,WUHU216HW,2013-02-25 03:04:00,
2013-02-24 20:05:00,36.5,19.2,29.83,NNW,338,16.8,22.4,49,0.00,,,0.00,WUHU216HW,2013-02-25 03:05:00,
2013-02-24 20:06:00,36.5,19.2,29.83,West,270,21.0,22.4,49,0.00,,,0.00,WUHU216HW,2013-02-25 03:06:00,
2013-02-24 20:07:00,36.5,19.2,29.83,WNW,293,22.4,22.4,49,0.00,,,0.00,WUHU216HW,2013-02-25 03:07:00,
2013-02-24 20:08:00,36.4,19.0,29.83,West,270,20.1,22.4,49,0.00,,,0.00,WUHU216HW,2013-02-25 03:08:00,
2013-02-24 20:09:00,36.4,19.0,29.83,WSW,248,15.7,22.4,49,0.00,,,0.00,WUHU216HW,2013-02-25 03:09:00,
2013-02-24 20:10:00,36.4,19.0,29.83,WNW,293,13.6,22.4,49,0.00,,,0.00,WUHU216HW,2013-02-25 03:10:00,
2013-02-24 20:11:00,36.4,19.0,29.84,NW,315,17.2,22.4,49,0.00,,,0.00,WUHU216HW,2013-02-25 03:11:00,
2013-02-24 20:12:00,36.4,19.0,29.84,WNW,293,13.2,22.4,49,0.00,,,0.00,WUHU216HW,2013-02-25 03:12:00,
2013-02-24 20:13:00,36.4,19.0,29.84,WNW,293,13.2,22.4,49,0.00,,,0.00,WUHU216HW,2013-02-25 03:13:00,
2013-02-24 20:14:00,36.4,19.0,29.84,WNW,293,11.4,22.4,49,0.00,,,0.00,WUHU216HW,2013-02-25 03:14:00,
2013-02-24 20:15:00,36.4,19.0,29.84,West,270,16.3,22.4,49,0.00,,,0.00,WUHU216HW,2013-02-25 03:15:00,
2013-02-24 20:16:00,36.4,19.0,29.84,SW,225,12.3,22.4,49,0.00,,,0.00,WUHU216HW,2013-02-25 03:16:00,
2013-02-24 20:17:00,36.4,19.0,29.84,WNW,293,15.7,22.4,49,0.00,,,0.00,WUHU216HW,2013-02-25 03:17:00,
2013-02-24 20:18:00,36.4,19.0,29.84,West,270,11.4,20.1,49,0.00,,,0.00,WUHU216HW,2013-02-25 03:18:00,
2013-02-24 20:19:00,36.4,19.0,29.84,West,270,11.2,19.5,49,0.00,,,0.00,WUHU216HW,2013-02-25 03:19:00,
2013-02-24 20:20:00,36.4,19.0,29.84,WNW,293,18.6,19.5,49,0.00,,,0.00,WUHU216HW,2013-02-25 03:20:00,
2013-02-24 20:21:00,36.4,19.5,29.84,WSW,248,15.4,19.5,50,0.00,,,0.00,WUHU216HW,2013-02-25 03:21:00,
2013-02-24 20:22:00,36.4,19.0,29.84,West,270,14.5,19.5,49,0.00,,,0.00,WUHU216HW,2013-02-25 03:22:00,
2013-02-24 20:23:00,36.4,19.0,29.84,West,270,8.9,19.5,49,0.00,,,0.00,WUHU216HW,2013-02-25 03:23:00,
2013-02-24 20:24:00,36.2,19.4,29.84,WSW,248,13.4,19.5,50,0.00,,,0.00,WUHU216HW,2013-02-25 03:24:00,
2013-02-24 20:25:00,36.2,19.4,29.84,WSW,248,15.0,19.5,50,0.00,,,0.00,WUHU216HW,2013-02-25 03:25:00,
2013-02-24 20:26:00,36.2,19.4,29.84,WNW,293,14.8,18.6,50,0.00,,,0.00,WUHU216HW,2013-02-25 03:26:00,
2013-02-24 20:27:00,36.2,19.4,29.84,West,270,17.7,18.6,50,0.00,,,0.00,WUHU216HW,2013-02-25 03:27:00,
2013-02-24 20:28:00,36.2,19.4,29.84,WNW,293,12.8,18.6,50,0.00,,,0.00,WUHU216HW,2013-02-25 03:28:00,
2013-02-24 20:29:00,36.0,19.3,29.84,WNW,293,14.5,18.6,50,0.00,,,0.00,WUHU216HW,2013-02-25 03:29:00,
2013-02-24 20:30:00,36.0,19.3,29.84,SW,225,13.4,18.6,50,0.00,,,0.00,WUHU216HW,2013-02-25 03:30:00,
2013-02-24 20:31:00,36.0,19.3,29.84,WSW,248,16.3,17.7,50,0.00,,,0.00,WUHU216HW,2013-02-25 03:31:00,
2013-02-24 20:32:00,36.0,19.3,29.84,WSW,248,12.8,17.7,50,0.00,,,0.00,WUHU216HW,2013-02-25 03:32:00,
2013-02-24 20:33:00,36.0,19.3,29.84,WSW,248,21.5,21.5,50,0.00,,,0.00,WUHU216HW,2013-02-25 03:33:00,
2013-02-24 20:34:00,36.0,19.6,29.84,West,270,17.9,21.5,51,0.00,,,0.00,WUHU216HW,2013-02-25 03:34:00,
2013-02-24 20:35:00,36.0,19.6,29.84,NNW,338,15.0,21.5,51,0.00,,,0.00,WUHU216HW,2013-02-25 03:35:00,
2013-02-24 20:36:00,35.8,19.5,29.85,West,270,11.4,21.5,51,0.00,,,0.00,WUHU216HW,2013-02-25 03:36:00,
2013-02-24 20:37:00,35.8,19.5,29.84,WSW,248,16.1,21.5,51,0.00,,,0.00,WUHU216HW,2013-02-25 03:37:00,
2013-02-24 20:38:00,35.8,19.5,29.84,SW,225,16.3,21.5,51,0.00,,,0.00,WUHU216HW,2013-02-25 03:38:00,
2013-02-24 20:39:00,35.6,19.8,29.85,WNW,293,17.0,21.5,52,0.00,,,0.00,WUHU216HW,2013-02-25 03:39:00,
2013-02-24 20:40:00,35.6,19.8,29.84,West,270,21.0,21.5,52,0.00,,,0.00,WUHU216HW,2013-02-25 03:40:00,
2013-02-24 20:41:00,35.6,19.8,29.84,WSW,248,11.4,21.5,52,0.00,,,0.00,WUHU216HW,2013-02-25 03:41:00,
2013-02-24 20:42:00,35.6,19.8,29.84,West,270,15.0,21.5,52,0.00,,,0.00,WUHU216HW,2013-02-25 03:42:00,
2013-02-24 20:43:00,35.6,19.8,29.84,WSW,248,14.8,21.0,52,0.00,,,0.00,WUHU216HW,2013-02-25 03:43:00,
2013-02-24 20:44:00,35.6,19.8,29.85,WSW,248,13.6,21.0,52,0.00,,,0.00,WUHU216HW,2013-02-25 03:44:00,
2013-02-24 20:45:00,35.6,19.4,29.85,West,270,16.1,21.0,51,0.00,,,0.00,WUHU216HW,2013-02-25 03:45:00,
2013-02-24 20:46:00,35.6,19.4,29.85,WSW,248,15.0,21.0,51,0.00,,,0.00,WUHU216HW,2013-02-25 03:46:00,
2013-02-24 20:47:00,35.6,19.4,29.85,NW,315,15.0,21.0,51,0.00,,,0.00,WUHU216HW,2013-02-25 03:47:00,
2013-02-24 20:48:00,35.5,19.2,29.85,SW,225,9.4,21.0,51,0.00,,,0.00,WUHU216HW,2013-02-25 03:48:00,
2013-02-24 20:49:00,35.5,19.2,29.85,WSW,248,14.8,22.8,51,0.00,,,0.00,WUHU216HW,2013-02-25 03:49:00,
2013-02-24 20:50:00,35.5,19.2,29.85,SW,225,14.1,22.8,51,0.00,,,0.00,WUHU216HW,2013-02-25 03:50:00,
2013-02-24 20:51:00,35.5,19.2,29.85,West,270,15.0,22.8,51,0.00,,,0.00,WUHU216HW,2013-02-25 03:51:00,
2013-02-24 20:52:00,35.5,19.2,29.85,WSW,248,14.5,22.8,51,0.00,,,0.00,WUHU216HW,2013-02-25 03:52:00,
2013-02-24 20:53:00,35.5,19.2,29.85,WNW,293,17.9,22.8,51,0.00,,,0.00,WUHU216HW,2013-02-25 03:53:00,
2013-02-24 20:54:00,35.5,19.6,29.85,West,270,16.3,22.8,52,0.00,,,0.00,WUHU216HW,2013-02-25 03:54:00,
2013-02-24 20:55:00,35.5,19.2,29.85,WSW,248,12.1,22.8,51,0.00,,,0.00,WUHU216HW,2013-02-25 03:55:00,
2013-02-24 20:56:00,35.5,19.2,29.85,West,270,15.4,22.8,51,0.00,,,0.00,WUHU216HW,2013-02-25 03:56:00,
2013-02-24 20:57:00,35.3,19.5,29.85,SSW,203,14.3,22.8,52,0.00,,,0.00,WUHU216HW,2013-02-25 03:57:00,
2013-02-24 20:58:00,35.3,19.0,29.85,WSW,248,14.5,22.8,51,0.00,,,0.00,WUHU216HW,2013-02-25 03:58:00,
2013-02-24 20:59:00,35.3,19.5,29.85,WSW,248,18.3,21.7,52,0.00,,,0.00,WUHU216HW,2013-02-25 03:59:00,
2013-02-24 21:00:00,35.3,19.5,29.85,West,270,13.4,21.7,52,0.00,,,0.00,WUHU216HW,2013-02-25 04:00:00,
2013-02-24 21:01:00,35.3,19.5,29.85,West,270,13.0,21.7,52,0.00,,,0.00,WUHU216HW,2013-02-25 04:01:00,
2013-02-24 21:02:00,35.3,19.5,29.85,SW,225,10.5,21.7,52,0.00,,,0.00,WUHU216HW,2013-02-25 04:02:00,
2013-02-24 21:03:00,35.3,19.5,29.85,WNW,293,13.0,21.7,52,0.00,,,0.00,WUHU216HW,2013-02-25 04:03:00,
2013-02-24 21:04:00,35.3,19.5,29.86,West,270,13.6,21.7,52,0.00,,,0.00,WUHU216HW,2013-02-25 04:04:00,
2013-02-24 21:05:00,35.3,19.5,29.85,SW,225,19.5,22.4,52,0.00,,,0.00,WUHU216HW,2013-02-25 04:05:00,
2013-02-24 21:06:00,35.3,19.5,29.86,WNW,293,15.0,22.4,52,0.00,,,0.00,WUHU216HW,2013-02-25 04:06:00,
2013-02-24 21:07:00,35.3,19.0,29.85,WSW,248,11.6,22.4,51,0.00,,,0.00,WUHU216HW,2013-02-25 04:07:00,
2013-02-24 21:08:00,35.3,19.5,29.86,West,270,14.8,22.4,52,0.00,,,0.00,WUHU216HW,2013-02-25 04:08:00,
2013-02-24 21:09:00,35.3,19.5,29.86,WNW,293,18.6,22.4,52,0.00,,,0.00,WUHU216HW,2013-02-25 04:09:00,
2013-02-24 21:10:00,35.3,19.0,29.86,West,270,10.1,22.4,51,0.00,,,0.00,WUHU216HW,2013-02-25 04:10:00,
2013-02-24 21:11:00,35.3,19.0,29.86,WSW,248,9.2,22.4,51,0.00,,,0.00,WUHU216HW,2013-02-25 04:11:00,
2013-02-24 21:12:00,35.3,19.0,29.86,NW,315,14.1,22.4,51,0.00,,,0.00,WUHU216HW,2013-02-25 04:12:00,
2013-02-24 21:13:00,35.3,19.5,29.86,WNW,293,12.1,22.4,52,0.00,,,0.00,WUHU216HW,2013-02-25 04:13:00,
2013-02-24 21:14:00,35.3,19.0,29.86,West,270,7.2,22.4,51,0.00,,,0.00,WUHU216HW,2013-02-25 04:14:00,
2013-02-24 21:15:00,35.3,19.5,29.86,WNW,293,15.9,19.9,52,0.00,,,0.00,WUHU216HW,2013-02-25 04:15:00,
2013-02-24 21:16:00,35.3,19.5,29.86,WSW,248,19.0,19.9,52,0.00,,,0.00,WUHU216HW,2013-02-25 04:16:00,
2013-02-24 21:17:00,35.3,19.0,29.86,SW,225,17.2,19.9,51,0.00,,,0.00,WUHU216HW,2013-02-25 04:17:00,
2013-02-24 21:18:00,35.3,19.0,29.86,WSW,248,12.5,19.9,51,0.00,,,0.00,WUHU216HW,2013-02-25 04:18:00,
2013-02-24 21:19:00,35.3,19.5,29.86,WSW,248,15.0,19.9,52,0.00,,,0.00,WUHU216HW,2013-02-25 04:19:00,
2013-02-24 21:20:00,35.3,19.5,29.86,WNW,293,9.6,19.9,52,0.00,,,0.00,WUHU216HW,2013-02-25 04:20:00,
2013-02-24 21:21:00,35.3,19.0,29.86,WSW,248,13.0,19.9,51,0.00,,,0.00,WUHU216HW,2013-02-25 04:21:00,
2013-02-24 21:22:00,35.3,19.5,29.86,WSW,248,17.4,19.9,52,0.00,,,0.00,WUHU216HW,2013-02-25 04:22:00,
2013-02-24 21:23:00,35.3,19.5,29.86,WSW,248,15.0,19.0,52,0.00,,,0.00,WUHU216HW,2013-02-25 04:23:00,
2013-02-24 21:24:00,35.3,19.0,29.86,West,270,13.2,19.0,51,0.00,,,0.00,WUHU216HW,2013-02-25 04:24:00,
2013-02-24 21:25:00,35.3,19.0,29.86,WSW,248,16.3,19.0,51,0.00,,,0.00,WUHU216HW,2013-02-25 04:25:00,
2013-02-24 21:26:00,35.3,19.0,29.86,WNW,293,11.2,19.0,51,0.00,,,0.00,WUHU216HW,2013-02-25 04:26:00,
2013-02-24 21:27:00,35.3,19.0,29.87,WSW,248,21.5,21.5,51,0.00,,,0.00,WUHU216HW,2013-02-25 04:27:00,
2013-02-24 21:28:00,35.3,19.0,29.86,West,270,14.1,21.5,51,0.00,,,0.00,WUHU216HW,2013-02-25 04:28:00,
2013-02-24 21:29:00,35.1,18.8,29.86,WNW,293,14.1,21.5,51,0.00,,,0.00,WUHU216HW,2013-02-25 04:29:00,
2013-02-24 21:30:00,35.1,18.8,29.86,WSW,248,17.9,21.5,51,0.00,,,0.00,WUHU216HW,2013-02-25 04:30:00,
2013-02-24 21:31:00,35.3,19.0,29.87,West,270,11.9,21.5,51,0.00,,,0.00,WUHU216HW,2013-02-25 04:31:00,
2013-02-24 21:32:00,35.1,18.8,29.86,West,270,14.3,21.5,51,0.00,,,0.00,WUHU216HW,2013-02-25 04:32:00,
2013-02-24 21:33:00,35.3,19.0,29.87,SW,225,9.6,21.5,51,0.00,,,0.00,WUHU216HW,2013-02-25 04:33:00,
2013-02-24 21:34:00,35.1,18.8,29.86,WNW,293,20.8,21.5,51,0.00,,,0.00,WUHU216HW,2013-02-25 04:34:00,
2013-02-24 21:35:00,35.1,18.8,29.87,SW,225,13.0,21.5,51,0.00,,,0.00,WUHU216HW,2013-02-25 04:35:00,
2013-02-24 21:36:00,35.1,18.8,29.87,WSW,248,14.3,21.5,51,0.00,,,0.00,WUHU216HW,2013-02-25 04:36:00,
2013-02-24 21:37:00,35.1,18.8,29.87,West,270,16.6,21.5,51,0.00,,,0.00,WUHU216HW,2013-02-25 04:37:00,
2013-02-24 21:38:00,35.1,18.8,29.87,WSW,248,14.8,20.8,51,0.00,,,0.00,WUHU216HW,2013-02-25 04:38:00,
2013-02-24 21:39:00,35.1,18.8,29.87,WSW,248,12.8,20.8,51,0.00,,,0.00,WUHU216HW,2013-02-25 04:39:00,
2013-02-24 21:40:00,34.9,18.6,29.87,SW,225,10.5,20.8,51,0.00,,,0.00,WUHU216HW,2013-02-25 04:40:00,
2013-02-24 21:41:00,34.9,18.6,29.87,WSW,248,17.2,20.8,51,0.00,,,0.00,WUHU216HW,2013-02-25 04:41:00,
2013-02-24 21:42:00,34.9,18.6,29.87,WSW,248,17.0,20.8,51,0.00,,,0.00,WUHU216HW,2013-02-25 04:42:00,
2013-02-24 21:43:00,34.9,18.6,29.87,West,270,11.6,20.8,51,0.00,,,0.00,WUHU216HW,2013-02-25 04:43:00,
2013-02-24 21:44:00,34.9,18.6,29.87,WSW,248,20.8,20.8,51,0.00,,,0.00,WUHU216HW,2013-02-25 04:44:00,
2013-02-24 21:45:00,34.9,18.6,29.87,WNW,293,8.9,20.8,51,0.00,,,0.00,WUHU216HW,2013-02-25 04:45:00,
2013-02-24 21:46:00,34.9,18.6,29.87,WSW,248,14.3,20.8,51,0.00,,,0.00,WUHU216HW,2013-02-25 04:46:00,
2013-02-24 21:47:00,34.9,18.6,29.87,WSW,248,12.3,20.8,51,0.00,,,0.00,WUHU216HW,2013-02-25 04:47:00,
2013-02-24 21:48:00,34.9,18.6,29.87,WNW,293,11.2,20.8,51,0.00,,,0.00,WUHU216HW,2013-02-25 04:48:00,
2013-02-24 21:49:00,34.9,18.6,29.87,WSW,248,14.8,20.8,51,0.00,,,0.00,WUHU216HW,2013-02-25 04:49:00,
2013-02-24 21:50:00,34.9,18.6,29.87,West,270,14.8,20.8,51,0.00,,,0.00,WUHU216HW,2013-02-25 04:50:00,
2013-02-24 21:51:00,34.9,18.6,29.87,SW,225,9.8,20.8,51,0.00,,,0.00,WUHU216HW,2013-02-25 04:51:00,
2013-02-24 21:52:00,34.9,18.6,29.87,WSW,248,10.5,20.8,51,0.00,,,0.00,WUHU216HW,2013-02-25 04:52:00,
2013-02-24 21:53:00,34.9,18.6,29.88,SW,225,11.4,20.8,51,0.00,,,0.00,WUHU216HW,2013-02-25 04:53:00,
2013-02-24 21:54:00,34.7,18.5,29.88,WSW,248,8.1,20.8,51,0.00,,,0.00,WUHU216HW,2013-02-25 04:54:00,
2013-02-24 21:55:00,34.7,18.5,29.88,WNW,293,13.4,19.2,51,0.00,,,0.00,WUHU216HW,2013-02-25 04:55:00,
2013-02-24 21:56:00,34.7,18.5,29.88,SW,225,7.4,19.2,51,0.00,,,0.00,WUHU216HW,2013-02-25 04:56:00,
2013-02-24 21:57:00,34.7,18.5,29.88,WSW,248,13.4,19.2,51,0.00,,,0.00,WUHU216HW,2013-02-25 04:57:00,
2013-02-24 21:58:00,34.6,18.3,29.88,West,270,8.1,15.2,51,0.00,,,0.00,WUHU216HW,2013-02-25 04:58:00,
2013-02-24 21:59:00,34.6,18.3,29.88,West,270,10.1,14.8,51,0.00,,,0.00,WUHU216HW,2013-02-25 04:59:00,
2013-02-24 22:00:00,34.6,18.3,29.88,West,270,13.2,14.8,51,0.00,,,0.00,WUHU216HW,2013-02-25 05:00:00,
2013-02-24 22:01:00,34.6,18.3,29.88,West,270,12.1,15.7,51,0.00,,,0.00,WUHU216HW,2013-02-25 05:01:00,
2013-02-24 22:02:00,34.6,18.3,29.88,West,270,9.2,15.7,51,0.00,,,0.00,WUHU216HW,2013-02-25 05:02:00,
2013-02-24 22:03:00,34.6,18.3,29.88,SW,225,12.1,15.7,51,0.00,,,0.00,WUHU216HW,2013-02-25 05:03:00,
2013-02-24 22:04:00,34.6,18.3,29.88,WNW,293,9.8,15.7,51,0.00,,,0.00,WUHU216HW,2013-02-25 05:04:00,
2013-02-24 22:05:00,34.6,18.3,29.88,WSW,248,12.8,15.7,51,0.00,,,0.00,WUHU216HW,2013-02-25 05:05:00,
2013-02-24 22:06:00,34.6,18.3,29.88,WSW,248,7.8,15.7,51,0.00,,,0.00,WUHU216HW,2013-02-25 05:06:00,
2013-02-24 22:07:00,34.4,18.1,29.88,West,270,8.5,15.7,51,0.00,,,0.00,WUHU216HW,2013-02-25 05:07:00,
2013-02-24 22:08:00,34.6,17.8,29.88,West,270,11.4,15.7,50,0.00,,,0.00,WUHU216HW,2013-02-25 05:08:00,
2013-02-24 22:09:00,34.4,17.6,29.88,West,270,10.1,15.7,50,0.00,,,0.00,WUHU216HW,2013-02-25 05:09:00,
2013-02-24 22:10:00,34.4,17.6,29.89,WSW,248,8.1,16.1,50,0.00,,,0.00,WUHU216HW,2013-02-25 05:10:00,
2013-02-24 22:11:00,34.4,17.6,29.89,West,270,8.7,16.1,50,0.00,,,0.00,WUHU216HW,2013-02-25 05:11:00,
2013-02-24 22:12:00,34.6,17.8,29.89,West,270,13.4,16.1,50,0.00,,,0.00,WUHU216HW,2013-02-25 05:12:00,
2013-02-24 22:13:00,34.4,17.6,29.89,WSW,248,9.4,16.1,50,0.00,,,0.00,WUHU216HW,2013-02-25 05:13:00,
2013-02-24 22:14:00,34.4,17.6,29.89,WSW,248,11.2,16.1,50,0.00,,,0.00,WUHU216HW,2013-02-25 05:14:00,
2013-02-24 22:15:00,34.6,17.8,29.89,West,270,8.7,16.1,50,0.00,,,0.00,WUHU216HW,2013-02-25 05:15:00,
2013-02-24 22:16:00,34.6,17.8,29.89,West,270,8.3,16.1,50,0.00,,,0.00,WUHU216HW,2013-02-25 05:16:00,
2013-02-24 22:17:00,34.4,17.1,29.89,NNW,338,7.4,16.1,49,0.00,,,0.00,WUHU216HW,2013-02-25 05:17:00,
2013-02-24 22:18:00,34.6,17.3,29.89,West,270,10.5,16.1,49,0.00,,,0.00,WUHU216HW,2013-02-25 05:18:00,
2013-02-24 22:19:00,34.4,17.1,29.89,West,270,13.0,16.1,49,0.00,,,0.00,WUHU216HW,2013-02-25 05:19:00,
2013-02-24 22:20:00,34.4,17.1,29.89,WSW,248,10.7,13.4,49,0.00,,,0.00,WUHU216HW,2013-02-25 05:20:00,
2013-02-24 22:21:00,34.4,17.1,29.89,WSW,248,8.5,13.4,49,0.00,,,0.00,WUHU216HW,2013-02-25 05:21:00,
2013-02-24 22:22:00,34.4,17.1,29.89,WNW,293,8.5,13.4,49,0.00,,,0.00,WUHU216HW,2013-02-25 05:22:00,
2013-02-24 22:23:00,34.4,17.1,29.89,WSW,248,9.2,13.4,49,0.00,,,0.00,WUHU216HW,2013-02-25 05:23:00,
2013-02-24 22:24:00,34.4,17.1,29.89,West,270,6.7,13.4,49,0.00,,,0.00,WUHU216HW,2013-02-25 05:24:00,
2013-02-24 22:25:00,34.4,17.1,29.89,SW,225,9.8,13.0,49,0.00,,,0.00,WUHU216HW,2013-02-25 05:25:00,
2013-02-24 22:26:00,34.4,17.1,29.90,West,270,7.2,13.0,49,0.00,,,0.00,WUHU216HW,2013-02-25 05:26:00,
2013-02-24 22:27:00,34.4,17.1,29.90,West,270,10.7,13.0,49,0.00,,,0.00,WUHU216HW,2013-02-25 05:27:00,
2013-02-24 22:28:00,34.4,17.1,29.90,SW,225,9.8,13.0,49,0.00,,,0.00,WUHU216HW,2013-02-25 05:28:00,
2013-02-24 22:29:00,34.2,16.5,29.90,WSW,248,6.7,13.0,48,0.00,,,0.00,WUHU216HW,2013-02-25 05:29:00,
2013-02-24 22:30:00,34.2,16.5,29.90,West,270,5.1,12.1,48,0.00,,,0.00,WUHU216HW,2013-02-25 05:30:00,
2013-02-24 22:31:00,34.2,16.5,29.90,SSW,203,6.5,12.3,48,0.00,,,0.00,WUHU216HW,2013-02-25 05:31:00,
2013-02-24 22:32:00,34.2,16.5,29.90,West,270,10.1,12.3,48,0.00,,,0.00,WUHU216HW,2013-02-25 05:32:00,
2013-02-24 22:33:00,34.2,16.5,29.90,WNW,293,8.5,12.3,48,0.00,,,0.00,WUHU216HW,2013-02-25 05:33:00,
2013-02-24 22:34:00,34.2,16.5,29.90,WSW,248,6.3,12.3,48,0.00,,,0.00,WUHU216HW,2013-02-25 05:34:00,
2013-02-24 22:35:00,34.2,16.5,29.90,WSW,248,13.2,13.2,48,0.00,,,0.00,WUHU216HW,2013-02-25 05:35:00,
2013-02-24 22:36:00,34.2,16.5,29.90,West,270,9.8,13.2,48,0.00,,,0.00,WUHU216HW,2013-02-25 05:36:00,
2013-02-24 22:37:00,34.2,16.5,29.90,SW,225,9.2,13.2,48,0.00,,,0.00,WUHU216HW,2013-02-25 05:37:00,
2013-02-24 22:38:00,34.2,16.5,29.90,WSW,248,10.3,13.2,48,0.00,,,0.00,WUHU216HW,2013-02-25 05:38:00,
2013-02-24 22:39:00,34.2,15.9,29.90,WSW,248,12.8,13.2,47,0.00,,,0.00,WUHU216HW,2013-02-25 05:39:00,
2013-02-24 22:40:00,34.2,15.9,29.89,WNW,293,4.0,13.2,47,0.00,,,0.00,WUHU216HW,2013-02-25 05:40:00,
2013-02-24 22:41:00,34.2,15.9,29.89,SW,225,7.6,13.2,47,0.00,,,0.00,WUHU216HW,2013-02-25 05:41:00,
2013-02-24 22:42:00,34.2,15.9,29.89,West,270,6.0,13.2,47,0.00,,,0.00,WUHU216HW,2013-02-25 05:42:00,
2013-02-24 22:43:00,34.2,15.9,29.90,West,270,6.9,13.2,47,0.00,,,0.00,WUHU216HW,2013-02-25 05:43:00,
2013-02-24 22:44:00,34.2,15.9,29.89,WSW,248,8.5,13.2,47,0.00,,,0.00,WUHU216HW,2013-02-25 05:44:00,
2013-02-24 22:45:00,34.2,15.9,29.89,WSW,248,6.9,13.2,47,0.00,,,0.00,WUHU216HW,2013-02-25 05:45:00,
2013-02-24 22:46:00,34.2,15.9,29.90,WSW,248,12.5,13.4,47,0.00,,,0.00,WUHU216HW,2013-02-25 05:46:00,
2013-02-24 22:47:00,34.2,15.9,29.90,WSW,248,11.4,13.4,47,0.00,,,0.00,WUHU216HW,2013-02-25 05:47:00,
2013-02-24 22:48:00,34.2,15.4,29.90,SW,225,5.4,13.4,46,0.00,,,0.00,WUHU216HW,2013-02-25 05:48:00,
2013-02-24 22:49:00,34.2,15.4,29.90,West,270,5.4,13.4,46,0.00,,,0.00,WUHU216HW,2013-02-25 05:49:00,
2013-02-24 22:50:00,34.2,15.4,29.90,West,270,8.5,13.4,46,0.00,,,0.00,WUHU216HW,2013-02-25 05:50:00,
2013-02-24 22:51:00,34.2,15.4,29.90,WNW,293,15.0,16.3,46,0.00,,,0.00,WUHU216HW,2013-02-25 05:51:00,
2013-02-24 22:52:00,34.2,15.4,29.90,West,270,8.9,16.3,46,0.00,,,0.00,WUHU216HW,2013-02-25 05:52:00,
2013-02-24 22:53:00,34.2,15.4,29.90,WSW,248,8.1,16.3,46,0.00,,,0.00,WUHU216HW,2013-02-25 05:53:00,
2013-02-24 22:54:00,34.2,15.4,29.90,West,270,8.3,16.3,46,0.00,,,0.00,WUHU216HW,2013-02-25 05:54:00,
2013-02-24 22:55:00,34.2,15.4,29.90,WSW,248,7.2,16.3,46,0.00,,,0.00,WUHU216HW,2013-02-25 05:55:00,
2013-02-24 22:56:00,34.2,15.4,29.90,SW,225,9.8,16.3,46,0.00,,,0.00,WUHU216HW,2013-02-25 05:56:00,
2013-02-24 22:57:00,34.2,15.4,29.90,WNW,293,10.5,16.3,46,0.00,,,0.00,WUHU216HW,2013-02-25 05:57:00,
2013-02-24 22:58:00,34.2,15.4,29.90,WSW,248,13.0,16.3,46,0.00,,,0.00,WUHU216HW,2013-02-25 05:58:00,
2013-02-24 22:59:00,34.2,15.4,29.90,West,270,8.3,16.3,46,0.00,,,0.00,WUHU216HW,2013-02-25 05:59:00,
2013-02-24 23:00:00,34.2,15.4,29.90,WNW,293,7.2,16.3,46,0.00,,,0.00,WUHU216HW,2013-02-25 06:00:00,
2013-02-24 23:01:00,34.2,15.4,29.90,WSW,248,6.7,13.4,46,0.00,,,0.00,WUHU216HW,2013-02-25 06:01:00,
2013-02-24 23:02:00,34.2,15.4,29.90,WSW,248,10.1,13.4,46,0.00,,,0.00,WUHU216HW,2013-02-25 06:02:00,
2013-02-24 23:03:00,34.0,15.3,29.90,WSW,248,15.0,15.0,46,0.00,,,0.00,WUHU216HW,2013-02-25 06:03:00,
2013-02-24 23:04:00,34.0,15.3,29.90,WSW,248,10.5,15.0,46,0.00,,,0.00,WUHU216HW,2013-02-25 06:04:00,
2013-02-24 23:05:00,34.0,15.3,29.90,WSW,248,6.5,15.0,46,0.00,,,0.00,WUHU216HW,2013-02-25 06:05:00,
2013-02-24 23:06:00,34.0,15.3,29.90,WSW,248,9.8,15.0,46,0.00,,,0.00,WUHU216HW,2013-02-25 06:06:00,
2013-02-24 23:07:00,34.0,15.3,29.90,West,270,7.8,15.0,46,0.00,,,0.00,WUHU216HW,2013-02-25 06:07:00,
2013-02-24 23:08:00,34.0,15.3,29.90,WSW,248,6.9,15.0,46,0.00,,,0.00,WUHU216HW,2013-02-25 06:08:00,
2013-02-24 23:09:00,33.8,15.1,29.90,NNW,338,6.7,15.0,46,0.00,,,0.00,WUHU216HW,2013-02-25 06:09:00,
2013-02-24 23:10:00,33.8,15.1,29.90,WSW,248,15.0,15.0,46,0.00,,,0.00,WUHU216HW,2013-02-25 06:10:00,
2013-02-24 23:11:00,33.8,15.1,29.90,West,270,8.1,15.0,46,0.00,,,0.00,WUHU216HW,2013-02-25 06:11:00,
2013-02-24 23:12:00,33.8,15.1,29.90,WSW,248,11.0,15.0,46,0.00,,,0.00,WUHU216HW,2013-02-25 06:12:00,
2013-02-24 23:13:00,33.8,15.1,29.90,South,180,6.9,15.0,46,0.00,,,0.00,WUHU216HW,2013-02-25 06:13:00,
2013-02-24 23:14:00,33.8,15.1,29.90,WSW,248,6.3,15.0,46,0.00,,,0.00,WUHU216HW,2013-02-25 06:14:00,
2013-02-24 23:15:00,33.8,15.1,29.90,WNW,293,10.1,15.0,46,0.00,,,0.00,WUHU216HW,2013-02-25 06:15:00,
2013-02-24 23:16:00,33.8,15.1,29.90,WNW,293,8.5,15.0,46,0.00,,,0.00,WUHU216HW,2013-02-25 06:16:00,
2013-02-24 23:17:00,33.8,14.6,29.90,SW,225,11.2,15.0,45,0.00,,,0.00,WUHU216HW,2013-02-25 06:17:00,
2013-02-24 23:18:00,33.8,14.6,29.90,West,270,9.4,15.0,45,0.00,,,0.00,WUHU216HW,2013-02-25 06:18:00,
2013-02-24 23:19:00,33.8,14.6,29.90,NW,315,8.5,15.0,45,0.00,,,0.00,WUHU216HW,2013-02-25 06:19:00,
2013-02-24 23:20:00,33.8,14.6,29.90,WSW,248,14.3,14.3,45,0.00,,,0.00,WUHU216HW,2013-02-25 06:20:00,
2013-02-24 23:21:00,33.8,14.6,29.90,SW,225,8.9,14.3,45,0.00,,,0.00,WUHU216HW,2013-02-25 06:21:00,
2013-02-24 23:22:00,33.8,14.6,29.90,West,270,12.8,15.0,45,0.00,,,0.00,WUHU216HW,2013-02-25 06:22:00,
2013-02-24 23:23:00,33.8,14.6,29.90,WSW,248,10.5,15.0,45,0.00,,,0.00,WUHU216HW,2013-02-25 06:23:00,
2013-02-24 23:24:00,33.8,14.6,29.90,WSW,248,13.9,15.2,45,0.00,,,0.00,WUHU216HW,2013-02-25 06:24:00,
2013-02-24 23:25:00,33.8,14.6,29.90,West,270,6.3,15.2,45,0.00,,,0.00,WUHU216HW,2013-02-25 06:25:00,
2013-02-24 23:26:00,34.0,14.2,29.90,WNW,293,8.3,15.2,44,0.00,,,0.00,WUHU216HW,2013-02-25 06:26:00,
2013-02-24 23:27:00,33.8,14.0,29.90,WNW,293,14.5,15.2,44,0.00,,,0.00,WUHU216HW,2013-02-25 06:27:00,
2013-02-24 23:28:00,33.8,14.0,29.90,NW,315,6.7,15.2,44,0.00,,,0.00,WUHU216HW,2013-02-25 06:28:00,
2013-02-24 23:29:00,33.8,14.0,29.91,WSW,248,11.9,15.2,44,0.00,,,0.00,WUHU216HW,2013-02-25 06:29:00,
2013-02-24 23:30:00,33.8,14.0,29.91,WNW,293,5.8,15.2,44,0.00,,,0.00,WUHU216HW,2013-02-25 06:30:00,
2013-02-24 23:31:00,33.8,14.0,29.91,SW,225,12.1,15.2,44,0.00,,,0.00,WUHU216HW,2013-02-25 06:31:00,
2013-02-24 23:32:00,33.8,14.0,29.91,West,270,11.4,15.2,44,0.00,,,0.00,WUHU216HW,2013-02-25 06:32:00,
2013-02-24 23:33:00,33.8,14.0,29.91,West,270,10.5,15.2,44,0.00,,,0.00,WUHU216HW,2013-02-25 06:33:00,
2013-02-24 23:34:00,33.8,14.0,29.91,SW,225,12.1,14.8,44,0.00,,,0.00,WUHU216HW,2013-02-25 06:34:00,
2013-02-24 23:35:00,33.7,14.0,29.91,West,270,7.6,14.8,44,0.00,,,0.00,WUHU216HW,2013-02-25 06:35:00,
2013-02-24 23:36:00,33.7,14.0,29.91,West,270,6.9,14.8,44,0.00,,,0.00,WUHU216HW,2013-02-25 06:36:00,
2013-02-24 23:37:00,33.7,14.0,29.91,SW,225,11.2,14.8,44,0.00,,,0.00,WUHU216HW,2013-02-25 06:37:00,
2013-02-24 23:38:00,33.7,14.0,29.91,WNW,293,11.4,14.8,44,0.00,,,0.00,WUHU216HW,2013-02-25 06:38:00,
2013-02-24 23:39:00,33.7,14.0,29.91,SW,225,9.4,13.0,44,0.00,,,0.00,WUHU216HW,2013-02-25 06:39:00,
2013-02-24 23:40:00,33.5,13.8,29.92,WSW,248,10.3,13.0,44,0.00,,,0.00,WUHU216HW,2013-02-25 06:40:00,
2013-02-24 23:41:00,33.5,13.8,29.91,WSW,248,8.7,13.0,44,0.00,,,0.00,WUHU216HW,2013-02-25 06:41:00,
2013-02-24 23:42:00,33.5,13.8,29.91,WSW,248,14.3,14.3,44,0.00,,,0.00,WUHU216HW,2013-02-25 06:42:00,
2013-02-24 23:43:00,33.5,13.8,29.92,WSW,248,9.8,14.3,44,0.00,,,0.00,WUHU216HW,2013-02-25 06:43:00,
2013-02-24 23:44:00,33.5,13.8,29.92,West,270,9.6,14.3,44,0.00,,,0.00,WUHU216HW,2013-02-25 06:44:00,
2013-02-24 23:45:00,33.5,13.8,29.92,WSW,248,4.7,14.3,44,0.00,,,0.00,WUHU216HW,2013-02-25 06:45:00,
2013-02-24 23:46:00,33.5,13.8,29.92,WSW,248,10.7,14.3,44,0.00,,,0.00,WUHU216HW,2013-02-25 06:46:00,
2013-02-24 23:47:00,33.5,13.8,29.92,WNW,293,7.8,14.3,44,0.00,,,0.00,WUHU216HW,2013-02-25 06:47:00,
2013-02-24 23:48:00,33.5,13.8,29.92,West,270,9.2,16.3,44,0.00,,,0.00,WUHU216HW,2013-02-25 06:48:00,
2013-02-24 23:49:00,33.5,13.8,29.92,WSW,248,11.2,16.3,44,0.00,,,0.00,WUHU216HW,2013-02-25 06:49:00,
2013-02-24 23:50:00,33.5,13.8,29.92,WNW,293,7.4,16.3,44,0.00,,,0.00,WUHU216HW,2013-02-25 06:50:00,
2013-02-24 23:51:00,33.3,13.6,29.91,West,270,6.3,16.3,44,0.00,,,0.00,WUHU216HW,2013-02-25 06:51:00,
2013-02-24 23:52:00,33.3,13.6,29.92,West,270,12.5,16.3,44,0.00,,,0.00,WUHU216HW,2013-02-25 06:52:00,
2013-02-24 23:53:00,33.3,13.6,29.92,WSW,248,11.2,16.3,44,0.00,,,0.00,WUHU216HW,2013-02-25 06:53:00,
2013-02-24 23:54:00,33.3,13.6,29.91,WNW,293,8.9,16.3,44,0.00,,,0.00,WUHU216HW,2013-02-25 06:54:00,
2013-02-24 23:55:00,33.3,13.6,29.91,West,270,11.4,16.3,44,0.00,,,0.00,WUHU216HW,2013-02-25 06:55:00,
2013-02-24 23:56:00,33.1,13.4,29.92,West,270,6.9,16.3,44,0.00,,,0.00,WUHU216HW,2013-02-25 06:56:00,
2013-02-24 23:57:00,33.1,13.4,29.91,West,270,7.4,16.3,44,0.00,,,0.00,WUHU216HW,2013-02-25 06:57:00,
2013-02-24 23:58:00,33.1,13.4,29.91,SW,225,9.2,12.5,44,0.00,,,0.00,WUHU216HW,2013-02-25 06:58:00,
2013-02-24 23:59:00,33.1,13.4,29.91,WSW,248,13.4,13.4,44,0.00,,,0.00,WUHU216HW,2013-02-25 06:59:00,